<?xml version="1.0" encoding="UTF-8" standalone="no" ?>
<gpx xmlns="http://www.topografix.com/GPX/1/1" xmlns:xsi="http://www.w3.org/2001/XMLSchema-instance" xsi:schemaLocation="http://www.topografix.com/GPX/1/1 http://www.topografix.com/GPX/1/1/gpx.xsd" version="1.1" creator="VisuGPX - https://www.visugpx.com">
  <metadata>
    <name>Trail des Citadelles 2011 - 20 kms</name>
    <desc><![CDATA[Trail des Citadelles 2011 - 20 kms]]></desc>
  </metadata>
  <trk>
    <name><![CDATA[Trail des citadelles]]></name>
    <cmt><![CDATA[163 ème]]></cmt>
    <trkseg>
      <trkpt lat="42.93449" lon="1.84953">
        <ele>518.7685546875</ele>
        <time>2011-04-24T07:29:23Z</time>
      </trkpt>
      <trkpt lat="42.93449" lon="1.84952">
        <ele>518.28784179688</ele>
        <time>2011-04-24T07:29:24Z</time>
      </trkpt>
      <trkpt lat="42.93446" lon="1.8495">
        <ele>519.72985839844</ele>
        <time>2011-04-24T07:29:30Z</time>
      </trkpt>
      <trkpt lat="42.93433" lon="1.84939">
        <ele>520.69128417969</ele>
        <time>2011-04-24T07:29:36Z</time>
      </trkpt>
      <trkpt lat="42.93424" lon="1.84933">
        <ele>522.13317871094</ele>
        <time>2011-04-24T07:29:39Z</time>
      </trkpt>
      <trkpt lat="42.93416" lon="1.84928">
        <ele>524.53649902344</ele>
        <time>2011-04-24T07:29:42Z</time>
      </trkpt>
      <trkpt lat="42.93407" lon="1.84922">
        <ele>525.49780273438</ele>
        <time>2011-04-24T07:29:45Z</time>
      </trkpt>
      <trkpt lat="42.93396" lon="1.84915">
        <ele>526.93981933594</ele>
        <time>2011-04-24T07:29:49Z</time>
      </trkpt>
      <trkpt lat="42.93383" lon="1.84905">
        <ele>527.90100097656</ele>
        <time>2011-04-24T07:29:54Z</time>
      </trkpt>
      <trkpt lat="42.93377" lon="1.84899">
        <ele>529.34313964844</ele>
        <time>2011-04-24T07:29:57Z</time>
      </trkpt>
      <trkpt lat="42.93363" lon="1.8489">
        <ele>531.74633789062</ele>
        <time>2011-04-24T07:30:02Z</time>
      </trkpt>
      <trkpt lat="42.93351" lon="1.84882">
        <ele>534.14965820312</ele>
        <time>2011-04-24T07:30:06Z</time>
      </trkpt>
      <trkpt lat="42.93337" lon="1.84872">
        <ele>537.03369140625</ele>
        <time>2011-04-24T07:30:11Z</time>
      </trkpt>
      <trkpt lat="42.93325" lon="1.84869">
        <ele>538.47570800781</ele>
        <time>2011-04-24T07:30:15Z</time>
      </trkpt>
      <trkpt lat="42.93319" lon="1.84868">
        <ele>538.95629882812</ele>
        <time>2011-04-24T07:30:17Z</time>
      </trkpt>
      <trkpt lat="42.93301" lon="1.84861">
        <ele>540.87890625</ele>
        <time>2011-04-24T07:30:23Z</time>
      </trkpt>
      <trkpt lat="42.93289" lon="1.84855">
        <ele>542.32092285156</ele>
        <time>2011-04-24T07:30:27Z</time>
      </trkpt>
      <trkpt lat="42.93284" lon="1.84851">
        <ele>543.76281738281</ele>
        <time>2011-04-24T07:30:29Z</time>
      </trkpt>
      <trkpt lat="42.93274" lon="1.84846">
        <ele>543.76281738281</ele>
        <time>2011-04-24T07:30:33Z</time>
      </trkpt>
      <trkpt lat="42.93259" lon="1.8484">
        <ele>545.685546875</ele>
        <time>2011-04-24T07:30:38Z</time>
      </trkpt>
      <trkpt lat="42.93253" lon="1.84841">
        <ele>545.20483398438</ele>
        <time>2011-04-24T07:30:40Z</time>
      </trkpt>
      <trkpt lat="42.93241" lon="1.84851">
        <ele>543.76281738281</ele>
        <time>2011-04-24T07:30:45Z</time>
      </trkpt>
      <trkpt lat="42.9323" lon="1.8486">
        <ele>540.87890625</ele>
        <time>2011-04-24T07:30:49Z</time>
      </trkpt>
      <trkpt lat="42.93219" lon="1.8486">
        <ele>538.95629882812</ele>
        <time>2011-04-24T07:30:53Z</time>
      </trkpt>
      <trkpt lat="42.93211" lon="1.84858">
        <ele>537.51428222656</ele>
        <time>2011-04-24T07:30:56Z</time>
      </trkpt>
      <trkpt lat="42.93197" lon="1.84853">
        <ele>537.03369140625</ele>
        <time>2011-04-24T07:31:01Z</time>
      </trkpt>
      <trkpt lat="42.93183" lon="1.84846">
        <ele>536.07238769531</ele>
        <time>2011-04-24T07:31:06Z</time>
      </trkpt>
      <trkpt lat="42.9317" lon="1.84835">
        <ele>535.59155273438</ele>
        <time>2011-04-24T07:31:11Z</time>
      </trkpt>
      <trkpt lat="42.93167" lon="1.84833">
        <ele>535.11096191406</ele>
        <time>2011-04-24T07:31:12Z</time>
      </trkpt>
      <trkpt lat="42.93151" lon="1.84832">
        <ele>534.14965820312</ele>
        <time>2011-04-24T07:31:18Z</time>
      </trkpt>
      <trkpt lat="42.93135" lon="1.84833">
        <ele>534.14965820312</ele>
        <time>2011-04-24T07:31:24Z</time>
      </trkpt>
      <trkpt lat="42.93122" lon="1.84832">
        <ele>536.07238769531</ele>
        <time>2011-04-24T07:31:29Z</time>
      </trkpt>
      <trkpt lat="42.93106" lon="1.84831">
        <ele>536.55310058594</ele>
        <time>2011-04-24T07:31:35Z</time>
      </trkpt>
      <trkpt lat="42.93091" lon="1.8483">
        <ele>533.18835449219</ele>
        <time>2011-04-24T07:31:41Z</time>
      </trkpt>
      <trkpt lat="42.93076" lon="1.84832">
        <ele>533.18835449219</ele>
        <time>2011-04-24T07:31:47Z</time>
      </trkpt>
      <trkpt lat="42.93064" lon="1.84829">
        <ele>533.18835449219</ele>
        <time>2011-04-24T07:31:51Z</time>
      </trkpt>
      <trkpt lat="42.93048" lon="1.84824">
        <ele>533.18835449219</ele>
        <time>2011-04-24T07:31:57Z</time>
      </trkpt>
      <trkpt lat="42.93034" lon="1.84819">
        <ele>532.70776367188</ele>
        <time>2011-04-24T07:32:02Z</time>
      </trkpt>
      <trkpt lat="42.93022" lon="1.84812">
        <ele>533.18835449219</ele>
        <time>2011-04-24T07:32:06Z</time>
      </trkpt>
      <trkpt lat="42.93008" lon="1.84799">
        <ele>534.14965820312</ele>
        <time>2011-04-24T07:32:12Z</time>
      </trkpt>
      <trkpt lat="42.92996" lon="1.84789">
        <ele>534.63037109375</ele>
        <time>2011-04-24T07:32:17Z</time>
      </trkpt>
      <trkpt lat="42.92985" lon="1.84783">
        <ele>532.70776367188</ele>
        <time>2011-04-24T07:32:21Z</time>
      </trkpt>
      <trkpt lat="42.92975" lon="1.84774">
        <ele>530.78515625</ele>
        <time>2011-04-24T07:32:25Z</time>
      </trkpt>
      <trkpt lat="42.92962" lon="1.84765">
        <ele>530.78515625</ele>
        <time>2011-04-24T07:32:30Z</time>
      </trkpt>
      <trkpt lat="42.92945" lon="1.84755">
        <ele>531.74633789062</ele>
        <time>2011-04-24T07:32:36Z</time>
      </trkpt>
      <trkpt lat="42.92932" lon="1.84747">
        <ele>532.22705078125</ele>
        <time>2011-04-24T07:32:41Z</time>
      </trkpt>
      <trkpt lat="42.92918" lon="1.84738">
        <ele>534.14965820312</ele>
        <time>2011-04-24T07:32:46Z</time>
      </trkpt>
      <trkpt lat="42.92908" lon="1.8473">
        <ele>537.03369140625</ele>
        <time>2011-04-24T07:32:50Z</time>
      </trkpt>
      <trkpt lat="42.92902" lon="1.84726">
        <ele>538.47570800781</ele>
        <time>2011-04-24T07:32:52Z</time>
      </trkpt>
      <trkpt lat="42.92899" lon="1.84725">
        <ele>538.47570800781</ele>
        <time>2011-04-24T07:32:53Z</time>
      </trkpt>
      <trkpt lat="42.92897" lon="1.84723">
        <ele>538.47570800781</ele>
        <time>2011-04-24T07:32:54Z</time>
      </trkpt>
      <trkpt lat="42.92884" lon="1.84715">
        <ele>537.51428222656</ele>
        <time>2011-04-24T07:32:59Z</time>
      </trkpt>
      <trkpt lat="42.92879" lon="1.84711">
        <ele>537.03369140625</ele>
        <time>2011-04-24T07:33:01Z</time>
      </trkpt>
      <trkpt lat="42.92874" lon="1.84706">
        <ele>537.03369140625</ele>
        <time>2011-04-24T07:33:03Z</time>
      </trkpt>
      <trkpt lat="42.92871" lon="1.84704">
        <ele>537.51428222656</ele>
        <time>2011-04-24T07:33:04Z</time>
      </trkpt>
      <trkpt lat="42.92861" lon="1.84696">
        <ele>536.55310058594</ele>
        <time>2011-04-24T07:33:08Z</time>
      </trkpt>
      <trkpt lat="42.92852" lon="1.84688">
        <ele>534.63037109375</ele>
        <time>2011-04-24T07:33:12Z</time>
      </trkpt>
      <trkpt lat="42.92846" lon="1.84684">
        <ele>534.63037109375</ele>
        <time>2011-04-24T07:33:14Z</time>
      </trkpt>
      <trkpt lat="42.92844" lon="1.84682">
        <ele>534.14965820312</ele>
        <time>2011-04-24T07:33:15Z</time>
      </trkpt>
      <trkpt lat="42.92831" lon="1.84671">
        <ele>533.6689453125</ele>
        <time>2011-04-24T07:33:21Z</time>
      </trkpt>
      <trkpt lat="42.9282" lon="1.84661">
        <ele>535.59155273438</ele>
        <time>2011-04-24T07:33:26Z</time>
      </trkpt>
      <trkpt lat="42.92809" lon="1.84657">
        <ele>536.55310058594</ele>
        <time>2011-04-24T07:33:30Z</time>
      </trkpt>
      <trkpt lat="42.92798" lon="1.84653">
        <ele>538.95629882812</ele>
        <time>2011-04-24T07:33:34Z</time>
      </trkpt>
      <trkpt lat="42.92785" lon="1.84647">
        <ele>541.84020996094</ele>
        <time>2011-04-24T07:33:39Z</time>
      </trkpt>
      <trkpt lat="42.92773" lon="1.8464">
        <ele>545.20483398438</ele>
        <time>2011-04-24T07:33:44Z</time>
      </trkpt>
      <trkpt lat="42.92764" lon="1.84637">
        <ele>547.12744140625</ele>
        <time>2011-04-24T07:33:48Z</time>
      </trkpt>
      <trkpt lat="42.9275" lon="1.8463">
        <ele>550.4921875</ele>
        <time>2011-04-24T07:33:54Z</time>
      </trkpt>
      <trkpt lat="42.92737" lon="1.84625">
        <ele>552.89526367188</ele>
        <time>2011-04-24T07:33:59Z</time>
      </trkpt>
      <trkpt lat="42.92725" lon="1.84623">
        <ele>553.3759765625</ele>
        <time>2011-04-24T07:34:03Z</time>
      </trkpt>
      <trkpt lat="42.92714" lon="1.84624">
        <ele>552.89526367188</ele>
        <time>2011-04-24T07:34:07Z</time>
      </trkpt>
      <trkpt lat="42.92701" lon="1.84628">
        <ele>550.01147460938</ele>
        <time>2011-04-24T07:34:12Z</time>
      </trkpt>
      <trkpt lat="42.92692" lon="1.84632">
        <ele>548.0888671875</ele>
        <time>2011-04-24T07:34:16Z</time>
      </trkpt>
      <trkpt lat="42.9269" lon="1.84634">
        <ele>548.0888671875</ele>
        <time>2011-04-24T07:34:17Z</time>
      </trkpt>
      <trkpt lat="42.92682" lon="1.84641">
        <ele>550.4921875</ele>
        <time>2011-04-24T07:34:21Z</time>
      </trkpt>
      <trkpt lat="42.92675" lon="1.84648">
        <ele>551.45336914062</ele>
        <time>2011-04-24T07:34:25Z</time>
      </trkpt>
      <trkpt lat="42.92664" lon="1.84659">
        <ele>554.33740234375</ele>
        <time>2011-04-24T07:34:30Z</time>
      </trkpt>
      <trkpt lat="42.92656" lon="1.8466">
        <ele>554.33740234375</ele>
        <time>2011-04-24T07:34:34Z</time>
      </trkpt>
      <trkpt lat="42.92641" lon="1.84665">
        <ele>554.33740234375</ele>
        <time>2011-04-24T07:34:40Z</time>
      </trkpt>
      <trkpt lat="42.92629" lon="1.84672">
        <ele>555.29858398438</ele>
        <time>2011-04-24T07:34:45Z</time>
      </trkpt>
      <trkpt lat="42.9262" lon="1.84672">
        <ele>556.26000976562</ele>
        <time>2011-04-24T07:34:49Z</time>
      </trkpt>
      <trkpt lat="42.92618" lon="1.84671">
        <ele>556.74072265625</ele>
        <time>2011-04-24T07:34:50Z</time>
      </trkpt>
      <trkpt lat="42.92605" lon="1.84673">
        <ele>557.7021484375</ele>
        <time>2011-04-24T07:34:54Z</time>
      </trkpt>
      <trkpt lat="42.92599" lon="1.84671">
        <ele>557.7021484375</ele>
        <time>2011-04-24T07:34:56Z</time>
      </trkpt>
      <trkpt lat="42.92587" lon="1.84669">
        <ele>556.74072265625</ele>
        <time>2011-04-24T07:35:00Z</time>
      </trkpt>
      <trkpt lat="42.92583" lon="1.84669">
        <ele>556.26000976562</ele>
        <time>2011-04-24T07:35:03Z</time>
      </trkpt>
      <trkpt lat="42.92579" lon="1.84669">
        <ele>555.779296875</ele>
        <time>2011-04-24T07:35:05Z</time>
      </trkpt>
      <trkpt lat="42.92562" lon="1.84666">
        <ele>552.89526367188</ele>
        <time>2011-04-24T07:35:10Z</time>
      </trkpt>
      <trkpt lat="42.92548" lon="1.84663">
        <ele>550.97265625</ele>
        <time>2011-04-24T07:35:15Z</time>
      </trkpt>
      <trkpt lat="42.92532" lon="1.84662">
        <ele>546.64685058594</ele>
        <time>2011-04-24T07:35:22Z</time>
      </trkpt>
      <trkpt lat="42.92523" lon="1.8466">
        <ele>547.12744140625</ele>
        <time>2011-04-24T07:35:26Z</time>
      </trkpt>
      <trkpt lat="42.92511" lon="1.84654">
        <ele>544.24365234375</ele>
        <time>2011-04-24T07:35:31Z</time>
      </trkpt>
      <trkpt lat="42.925" lon="1.84654">
        <ele>543.76281738281</ele>
        <time>2011-04-24T07:35:35Z</time>
      </trkpt>
      <trkpt lat="42.92484" lon="1.84651">
        <ele>544.24365234375</ele>
        <time>2011-04-24T07:35:40Z</time>
      </trkpt>
      <trkpt lat="42.92474" lon="1.84647">
        <ele>542.80151367188</ele>
        <time>2011-04-24T07:35:44Z</time>
      </trkpt>
      <trkpt lat="42.92464" lon="1.84642">
        <ele>543.76281738281</ele>
        <time>2011-04-24T07:35:47Z</time>
      </trkpt>
      <trkpt lat="42.92452" lon="1.84637">
        <ele>543.76281738281</ele>
        <time>2011-04-24T07:35:51Z</time>
      </trkpt>
      <trkpt lat="42.92449" lon="1.84636">
        <ele>544.24365234375</ele>
        <time>2011-04-24T07:35:52Z</time>
      </trkpt>
      <trkpt lat="42.92435" lon="1.84631">
        <ele>542.80151367188</ele>
        <time>2011-04-24T07:35:57Z</time>
      </trkpt>
      <trkpt lat="42.92418" lon="1.84624">
        <ele>541.84020996094</ele>
        <time>2011-04-24T07:36:03Z</time>
      </trkpt>
      <trkpt lat="42.92406" lon="1.84617">
        <ele>543.76281738281</ele>
        <time>2011-04-24T07:36:07Z</time>
      </trkpt>
      <trkpt lat="42.92402" lon="1.84613">
        <ele>543.76281738281</ele>
        <time>2011-04-24T07:36:09Z</time>
      </trkpt>
      <trkpt lat="42.92392" lon="1.84604">
        <ele>544.72424316406</ele>
        <time>2011-04-24T07:36:13Z</time>
      </trkpt>
      <trkpt lat="42.92374" lon="1.84595">
        <ele>546.64685058594</ele>
        <time>2011-04-24T07:36:19Z</time>
      </trkpt>
      <trkpt lat="42.92371" lon="1.84594">
        <ele>547.12744140625</ele>
        <time>2011-04-24T07:36:20Z</time>
      </trkpt>
      <trkpt lat="42.92355" lon="1.84592">
        <ele>549.53076171875</ele>
        <time>2011-04-24T07:36:26Z</time>
      </trkpt>
      <trkpt lat="42.92339" lon="1.84588">
        <ele>552.89526367188</ele>
        <time>2011-04-24T07:36:31Z</time>
      </trkpt>
      <trkpt lat="42.92329" lon="1.84586">
        <ele>554.33740234375</ele>
        <time>2011-04-24T07:36:34Z</time>
      </trkpt>
      <trkpt lat="42.92316" lon="1.84585">
        <ele>557.7021484375</ele>
        <time>2011-04-24T07:36:39Z</time>
      </trkpt>
      <trkpt lat="42.92302" lon="1.84584">
        <ele>560.10522460938</ele>
        <time>2011-04-24T07:36:44Z</time>
      </trkpt>
      <trkpt lat="42.92292" lon="1.84584">
        <ele>562.02807617188</ele>
        <time>2011-04-24T07:36:48Z</time>
      </trkpt>
      <trkpt lat="42.92287" lon="1.84583">
        <ele>562.02807617188</ele>
        <time>2011-04-24T07:36:51Z</time>
      </trkpt>
      <trkpt lat="42.92285" lon="1.84583">
        <ele>562.50854492188</ele>
        <time>2011-04-24T07:36:52Z</time>
      </trkpt>
      <trkpt lat="42.92283" lon="1.84582">
        <ele>562.9892578125</ele>
        <time>2011-04-24T07:36:53Z</time>
      </trkpt>
      <trkpt lat="42.9227" lon="1.84583">
        <ele>564.91186523438</ele>
        <time>2011-04-24T07:36:58Z</time>
      </trkpt>
      <trkpt lat="42.92258" lon="1.84587">
        <ele>565.87329101562</ele>
        <time>2011-04-24T07:37:02Z</time>
      </trkpt>
      <trkpt lat="42.92245" lon="1.84584">
        <ele>564.43115234375</ele>
        <time>2011-04-24T07:37:07Z</time>
      </trkpt>
      <trkpt lat="42.92232" lon="1.84582">
        <ele>560.10522460938</ele>
        <time>2011-04-24T07:37:12Z</time>
      </trkpt>
      <trkpt lat="42.92218" lon="1.84578">
        <ele>557.22143554688</ele>
        <time>2011-04-24T07:37:17Z</time>
      </trkpt>
      <trkpt lat="42.92216" lon="1.84578">
        <ele>556.74072265625</ele>
        <time>2011-04-24T07:37:18Z</time>
      </trkpt>
      <trkpt lat="42.92204" lon="1.84571">
        <ele>553.85668945312</ele>
        <time>2011-04-24T07:37:23Z</time>
      </trkpt>
      <trkpt lat="42.92189" lon="1.84561">
        <ele>552.41455078125</ele>
        <time>2011-04-24T07:37:29Z</time>
      </trkpt>
      <trkpt lat="42.92175" lon="1.8456">
        <ele>551.93408203125</ele>
        <time>2011-04-24T07:37:33Z</time>
      </trkpt>
      <trkpt lat="42.92163" lon="1.84556">
        <ele>551.93408203125</ele>
        <time>2011-04-24T07:37:37Z</time>
      </trkpt>
      <trkpt lat="42.9215" lon="1.84554">
        <ele>551.93408203125</ele>
        <time>2011-04-24T07:37:41Z</time>
      </trkpt>
      <trkpt lat="42.92136" lon="1.8455">
        <ele>552.41455078125</ele>
        <time>2011-04-24T07:37:46Z</time>
      </trkpt>
      <trkpt lat="42.92123" lon="1.84544">
        <ele>555.29858398438</ele>
        <time>2011-04-24T07:37:51Z</time>
      </trkpt>
      <trkpt lat="42.92107" lon="1.84538">
        <ele>560.5859375</ele>
        <time>2011-04-24T07:37:56Z</time>
      </trkpt>
      <trkpt lat="42.92093" lon="1.84527">
        <ele>562.50854492188</ele>
        <time>2011-04-24T07:38:01Z</time>
      </trkpt>
      <trkpt lat="42.92088" lon="1.84521">
        <ele>562.50854492188</ele>
        <time>2011-04-24T07:38:03Z</time>
      </trkpt>
      <trkpt lat="42.92075" lon="1.84515">
        <ele>562.9892578125</ele>
        <time>2011-04-24T07:38:08Z</time>
      </trkpt>
      <trkpt lat="42.92062" lon="1.84508">
        <ele>562.9892578125</ele>
        <time>2011-04-24T07:38:13Z</time>
      </trkpt>
      <trkpt lat="42.92048" lon="1.84506">
        <ele>562.9892578125</ele>
        <time>2011-04-24T07:38:18Z</time>
      </trkpt>
      <trkpt lat="42.92045" lon="1.84505">
        <ele>562.50854492188</ele>
        <time>2011-04-24T07:38:19Z</time>
      </trkpt>
      <trkpt lat="42.92032" lon="1.84504">
        <ele>560.10522460938</ele>
        <time>2011-04-24T07:38:24Z</time>
      </trkpt>
      <trkpt lat="42.9202" lon="1.84503">
        <ele>559.14404296875</ele>
        <time>2011-04-24T07:38:29Z</time>
      </trkpt>
      <trkpt lat="42.92008" lon="1.845">
        <ele>558.66333007812</ele>
        <time>2011-04-24T07:38:34Z</time>
      </trkpt>
      <trkpt lat="42.92" lon="1.84499">
        <ele>558.18286132812</ele>
        <time>2011-04-24T07:38:38Z</time>
      </trkpt>
      <trkpt lat="42.91992" lon="1.84499">
        <ele>556.26000976562</ele>
        <time>2011-04-24T07:38:44Z</time>
      </trkpt>
      <trkpt lat="42.91984" lon="1.84499">
        <ele>556.26000976562</ele>
        <time>2011-04-24T07:38:48Z</time>
      </trkpt>
      <trkpt lat="42.91977" lon="1.845">
        <ele>557.7021484375</ele>
        <time>2011-04-24T07:38:52Z</time>
      </trkpt>
      <trkpt lat="42.91974" lon="1.84499">
        <ele>557.7021484375</ele>
        <time>2011-04-24T07:38:54Z</time>
      </trkpt>
      <trkpt lat="42.91961" lon="1.84497">
        <ele>558.66333007812</ele>
        <time>2011-04-24T07:39:01Z</time>
      </trkpt>
      <trkpt lat="42.91955" lon="1.84496">
        <ele>559.62475585938</ele>
        <time>2011-04-24T07:39:04Z</time>
      </trkpt>
      <trkpt lat="42.91942" lon="1.84492">
        <ele>559.62475585938</ele>
        <time>2011-04-24T07:39:10Z</time>
      </trkpt>
      <trkpt lat="42.91941" lon="1.84492">
        <ele>560.5859375</ele>
        <time>2011-04-24T07:39:11Z</time>
      </trkpt>
      <trkpt lat="42.91933" lon="1.84493">
        <ele>565.392578125</ele>
        <time>2011-04-24T07:39:17Z</time>
      </trkpt>
      <trkpt lat="42.91923" lon="1.84494">
        <ele>565.392578125</ele>
        <time>2011-04-24T07:39:22Z</time>
      </trkpt>
      <trkpt lat="42.9192" lon="1.84495">
        <ele>564.43115234375</ele>
        <time>2011-04-24T07:39:24Z</time>
      </trkpt>
      <trkpt lat="42.91914" lon="1.84497">
        <ele>565.392578125</ele>
        <time>2011-04-24T07:39:27Z</time>
      </trkpt>
      <trkpt lat="42.91903" lon="1.84498">
        <ele>568.75708007812</ele>
        <time>2011-04-24T07:39:32Z</time>
      </trkpt>
      <trkpt lat="42.91901" lon="1.84497">
        <ele>568.75708007812</ele>
        <time>2011-04-24T07:39:33Z</time>
      </trkpt>
      <trkpt lat="42.91893" lon="1.84493">
        <ele>568.2763671875</ele>
        <time>2011-04-24T07:39:38Z</time>
      </trkpt>
      <trkpt lat="42.91883" lon="1.8449">
        <ele>567.31518554688</ele>
        <time>2011-04-24T07:39:45Z</time>
      </trkpt>
      <trkpt lat="42.9188" lon="1.84488">
        <ele>566.35375976562</ele>
        <time>2011-04-24T07:39:47Z</time>
      </trkpt>
      <trkpt lat="42.91871" lon="1.84486">
        <ele>566.35375976562</ele>
        <time>2011-04-24T07:39:53Z</time>
      </trkpt>
      <trkpt lat="42.91867" lon="1.84486">
        <ele>566.35375976562</ele>
        <time>2011-04-24T07:39:56Z</time>
      </trkpt>
      <trkpt lat="42.9186" lon="1.84487">
        <ele>568.75708007812</ele>
        <time>2011-04-24T07:39:59Z</time>
      </trkpt>
      <trkpt lat="42.91857" lon="1.84486">
        <ele>569.71850585938</ele>
        <time>2011-04-24T07:40:01Z</time>
      </trkpt>
      <trkpt lat="42.91848" lon="1.84485">
        <ele>574.04443359375</ele>
        <time>2011-04-24T07:40:06Z</time>
      </trkpt>
      <trkpt lat="42.91846" lon="1.84486">
        <ele>575.486328125</ele>
        <time>2011-04-24T07:40:07Z</time>
      </trkpt>
      <trkpt lat="42.91833" lon="1.84483">
        <ele>579.33154296875</ele>
        <time>2011-04-24T07:40:13Z</time>
      </trkpt>
      <trkpt lat="42.91819" lon="1.84476">
        <ele>584.61889648438</ele>
        <time>2011-04-24T07:40:19Z</time>
      </trkpt>
      <trkpt lat="42.91811" lon="1.84469">
        <ele>583.65747070312</ele>
        <time>2011-04-24T07:40:23Z</time>
      </trkpt>
      <trkpt lat="42.91803" lon="1.84461">
        <ele>582.21557617188</ele>
        <time>2011-04-24T07:40:27Z</time>
      </trkpt>
      <trkpt lat="42.91788" lon="1.8445">
        <ele>582.6962890625</ele>
        <time>2011-04-24T07:40:33Z</time>
      </trkpt>
      <trkpt lat="42.91778" lon="1.84442">
        <ele>586.06079101562</ele>
        <time>2011-04-24T07:40:38Z</time>
      </trkpt>
      <trkpt lat="42.91766" lon="1.84433">
        <ele>587.02197265625</ele>
        <time>2011-04-24T07:40:43Z</time>
      </trkpt>
      <trkpt lat="42.91752" lon="1.84423">
        <ele>587.9833984375</ele>
        <time>2011-04-24T07:40:49Z</time>
      </trkpt>
      <trkpt lat="42.91741" lon="1.84415">
        <ele>587.9833984375</ele>
        <time>2011-04-24T07:40:54Z</time>
      </trkpt>
      <trkpt lat="42.91734" lon="1.84409">
        <ele>588.94506835938</ele>
        <time>2011-04-24T07:40:57Z</time>
      </trkpt>
      <trkpt lat="42.91721" lon="1.84398">
        <ele>590.38696289062</ele>
        <time>2011-04-24T07:41:03Z</time>
      </trkpt>
      <trkpt lat="42.91716" lon="1.84394">
        <ele>590.86743164062</ele>
        <time>2011-04-24T07:41:05Z</time>
      </trkpt>
      <trkpt lat="42.91707" lon="1.84383">
        <ele>592.3095703125</ele>
        <time>2011-04-24T07:41:10Z</time>
      </trkpt>
      <trkpt lat="42.91703" lon="1.84379">
        <ele>592.79028320312</ele>
        <time>2011-04-24T07:41:12Z</time>
      </trkpt>
      <trkpt lat="42.91694" lon="1.84367">
        <ele>594.71264648438</ele>
        <time>2011-04-24T07:41:17Z</time>
      </trkpt>
      <trkpt lat="42.91686" lon="1.84358">
        <ele>594.71264648438</ele>
        <time>2011-04-24T07:41:21Z</time>
      </trkpt>
      <trkpt lat="42.91683" lon="1.84353">
        <ele>595.193359375</ele>
        <time>2011-04-24T07:41:23Z</time>
      </trkpt>
      <trkpt lat="42.91671" lon="1.84341">
        <ele>598.07739257812</ele>
        <time>2011-04-24T07:41:29Z</time>
      </trkpt>
      <trkpt lat="42.91659" lon="1.84332">
        <ele>600.96118164062</ele>
        <time>2011-04-24T07:41:34Z</time>
      </trkpt>
      <trkpt lat="42.91644" lon="1.84326">
        <ele>601.44189453125</ele>
        <time>2011-04-24T07:41:40Z</time>
      </trkpt>
      <trkpt lat="42.91631" lon="1.84318">
        <ele>601.44189453125</ele>
        <time>2011-04-24T07:41:45Z</time>
      </trkpt>
      <trkpt lat="42.91621" lon="1.84307">
        <ele>601.44189453125</ele>
        <time>2011-04-24T07:41:50Z</time>
      </trkpt>
      <trkpt lat="42.91613" lon="1.84297">
        <ele>602.40307617188</ele>
        <time>2011-04-24T07:41:54Z</time>
      </trkpt>
      <trkpt lat="42.91611" lon="1.84295">
        <ele>602.40307617188</ele>
        <time>2011-04-24T07:41:55Z</time>
      </trkpt>
      <trkpt lat="42.91599" lon="1.84284">
        <ele>603.36450195312</ele>
        <time>2011-04-24T07:42:00Z</time>
      </trkpt>
      <trkpt lat="42.91584" lon="1.84273">
        <ele>604.326171875</ele>
        <time>2011-04-24T07:42:06Z</time>
      </trkpt>
      <trkpt lat="42.91573" lon="1.84264">
        <ele>604.326171875</ele>
        <time>2011-04-24T07:42:11Z</time>
      </trkpt>
      <trkpt lat="42.91568" lon="1.8426">
        <ele>603.84521484375</ele>
        <time>2011-04-24T07:42:13Z</time>
      </trkpt>
      <trkpt lat="42.9156" lon="1.84253">
        <ele>603.36450195312</ele>
        <time>2011-04-24T07:42:18Z</time>
      </trkpt>
      <trkpt lat="42.91554" lon="1.84247">
        <ele>603.36450195312</ele>
        <time>2011-04-24T07:42:21Z</time>
      </trkpt>
      <trkpt lat="42.91545" lon="1.84236">
        <ele>600.96118164062</ele>
        <time>2011-04-24T07:42:25Z</time>
      </trkpt>
      <trkpt lat="42.91544" lon="1.84233">
        <ele>600.96118164062</ele>
        <time>2011-04-24T07:42:26Z</time>
      </trkpt>
      <trkpt lat="42.91536" lon="1.84219">
        <ele>600.48071289062</ele>
        <time>2011-04-24T07:42:31Z</time>
      </trkpt>
      <trkpt lat="42.9153" lon="1.84212">
        <ele>599.51928710938</ele>
        <time>2011-04-24T07:42:34Z</time>
      </trkpt>
      <trkpt lat="42.91517" lon="1.84201">
        <ele>600</ele>
        <time>2011-04-24T07:42:39Z</time>
      </trkpt>
      <trkpt lat="42.91505" lon="1.84191">
        <ele>600</ele>
        <time>2011-04-24T07:42:44Z</time>
      </trkpt>
      <trkpt lat="42.9149" lon="1.84179">
        <ele>598.07739257812</ele>
        <time>2011-04-24T07:42:50Z</time>
      </trkpt>
      <trkpt lat="42.91479" lon="1.84172">
        <ele>597.11596679688</ele>
        <time>2011-04-24T07:42:55Z</time>
      </trkpt>
      <trkpt lat="42.91477" lon="1.8417">
        <ele>596.15478515625</ele>
        <time>2011-04-24T07:42:56Z</time>
      </trkpt>
      <trkpt lat="42.91467" lon="1.84158">
        <ele>595.193359375</ele>
        <time>2011-04-24T07:43:01Z</time>
      </trkpt>
      <trkpt lat="42.91461" lon="1.84153">
        <ele>594.23217773438</ele>
        <time>2011-04-24T07:43:04Z</time>
      </trkpt>
      <trkpt lat="42.91452" lon="1.84138">
        <ele>592.79028320312</ele>
        <time>2011-04-24T07:43:09Z</time>
      </trkpt>
      <trkpt lat="42.91446" lon="1.84126">
        <ele>592.79028320312</ele>
        <time>2011-04-24T07:43:13Z</time>
      </trkpt>
      <trkpt lat="42.91441" lon="1.84119">
        <ele>593.27075195312</ele>
        <time>2011-04-24T07:43:16Z</time>
      </trkpt>
      <trkpt lat="42.91438" lon="1.84114">
        <ele>593.27075195312</ele>
        <time>2011-04-24T07:43:18Z</time>
      </trkpt>
      <trkpt lat="42.91434" lon="1.84109">
        <ele>594.23217773438</ele>
        <time>2011-04-24T07:43:20Z</time>
      </trkpt>
      <trkpt lat="42.91426" lon="1.84097">
        <ele>595.67407226562</ele>
        <time>2011-04-24T07:43:25Z</time>
      </trkpt>
      <trkpt lat="42.9142" lon="1.84086">
        <ele>595.193359375</ele>
        <time>2011-04-24T07:43:29Z</time>
      </trkpt>
      <trkpt lat="42.9141" lon="1.84073">
        <ele>595.193359375</ele>
        <time>2011-04-24T07:43:34Z</time>
      </trkpt>
      <trkpt lat="42.91401" lon="1.84059">
        <ele>594.23217773438</ele>
        <time>2011-04-24T07:43:39Z</time>
      </trkpt>
      <trkpt lat="42.91394" lon="1.84046">
        <ele>594.71264648438</ele>
        <time>2011-04-24T07:43:43Z</time>
      </trkpt>
      <trkpt lat="42.91385" lon="1.8403">
        <ele>595.193359375</ele>
        <time>2011-04-24T07:43:49Z</time>
      </trkpt>
      <trkpt lat="42.91374" lon="1.8402">
        <ele>596.63549804688</ele>
        <time>2011-04-24T07:43:54Z</time>
      </trkpt>
      <trkpt lat="42.91372" lon="1.84019">
        <ele>597.11596679688</ele>
        <time>2011-04-24T07:43:55Z</time>
      </trkpt>
      <trkpt lat="42.91361" lon="1.84013">
        <ele>597.5966796875</ele>
        <time>2011-04-24T07:44:00Z</time>
      </trkpt>
      <trkpt lat="42.91351" lon="1.84008">
        <ele>598.55786132812</ele>
        <time>2011-04-24T07:44:05Z</time>
      </trkpt>
      <trkpt lat="42.9134" lon="1.84003">
        <ele>598.07739257812</ele>
        <time>2011-04-24T07:44:10Z</time>
      </trkpt>
      <trkpt lat="42.91327" lon="1.83996">
        <ele>599.51928710938</ele>
        <time>2011-04-24T07:44:15Z</time>
      </trkpt>
      <trkpt lat="42.91317" lon="1.8399">
        <ele>601.92260742188</ele>
        <time>2011-04-24T07:44:19Z</time>
      </trkpt>
      <trkpt lat="42.91307" lon="1.83986">
        <ele>602.8837890625</ele>
        <time>2011-04-24T07:44:22Z</time>
      </trkpt>
      <trkpt lat="42.91296" lon="1.83977">
        <ele>604.326171875</ele>
        <time>2011-04-24T07:44:27Z</time>
      </trkpt>
      <trkpt lat="42.91294" lon="1.83975">
        <ele>604.326171875</ele>
        <time>2011-04-24T07:44:28Z</time>
      </trkpt>
      <trkpt lat="42.91286" lon="1.83969">
        <ele>604.806640625</ele>
        <time>2011-04-24T07:44:32Z</time>
      </trkpt>
      <trkpt lat="42.91272" lon="1.83958">
        <ele>605.76806640625</ele>
        <time>2011-04-24T07:44:38Z</time>
      </trkpt>
      <trkpt lat="42.91264" lon="1.83952">
        <ele>605.28735351562</ele>
        <time>2011-04-24T07:44:42Z</time>
      </trkpt>
      <trkpt lat="42.91258" lon="1.83948">
        <ele>604.326171875</ele>
        <time>2011-04-24T07:44:45Z</time>
      </trkpt>
      <trkpt lat="42.91246" lon="1.83941">
        <ele>603.84521484375</ele>
        <time>2011-04-24T07:44:50Z</time>
      </trkpt>
      <trkpt lat="42.91233" lon="1.83932">
        <ele>603.84521484375</ele>
        <time>2011-04-24T07:44:56Z</time>
      </trkpt>
      <trkpt lat="42.91227" lon="1.83927">
        <ele>603.36450195312</ele>
        <time>2011-04-24T07:44:59Z</time>
      </trkpt>
      <trkpt lat="42.91213" lon="1.83921">
        <ele>604.806640625</ele>
        <time>2011-04-24T07:45:05Z</time>
      </trkpt>
      <trkpt lat="42.91203" lon="1.83915">
        <ele>605.76806640625</ele>
        <time>2011-04-24T07:45:10Z</time>
      </trkpt>
      <trkpt lat="42.91191" lon="1.83908">
        <ele>605.28735351562</ele>
        <time>2011-04-24T07:45:16Z</time>
      </trkpt>
      <trkpt lat="42.91182" lon="1.83899">
        <ele>606.24853515625</ele>
        <time>2011-04-24T07:45:21Z</time>
      </trkpt>
      <trkpt lat="42.91174" lon="1.83892">
        <ele>607.2099609375</ele>
        <time>2011-04-24T07:45:25Z</time>
      </trkpt>
      <trkpt lat="42.91166" lon="1.83884">
        <ele>606.72924804688</ele>
        <time>2011-04-24T07:45:29Z</time>
      </trkpt>
      <trkpt lat="42.91161" lon="1.83877">
        <ele>607.69067382812</ele>
        <time>2011-04-24T07:45:32Z</time>
      </trkpt>
      <trkpt lat="42.9115" lon="1.83867">
        <ele>608.17138671875</ele>
        <time>2011-04-24T07:45:37Z</time>
      </trkpt>
      <trkpt lat="42.91144" lon="1.83858">
        <ele>608.65185546875</ele>
        <time>2011-04-24T07:45:41Z</time>
      </trkpt>
      <trkpt lat="42.91138" lon="1.83851">
        <ele>609.61328125</ele>
        <time>2011-04-24T07:45:45Z</time>
      </trkpt>
      <trkpt lat="42.9113" lon="1.83844">
        <ele>610.09375</ele>
        <time>2011-04-24T07:45:49Z</time>
      </trkpt>
      <trkpt lat="42.91126" lon="1.8384">
        <ele>610.09375</ele>
        <time>2011-04-24T07:45:51Z</time>
      </trkpt>
      <trkpt lat="42.91117" lon="1.83829">
        <ele>609.13256835938</ele>
        <time>2011-04-24T07:45:56Z</time>
      </trkpt>
      <trkpt lat="42.91112" lon="1.83824">
        <ele>610.09375</ele>
        <time>2011-04-24T07:45:59Z</time>
      </trkpt>
      <trkpt lat="42.9111" lon="1.83823">
        <ele>610.09375</ele>
        <time>2011-04-24T07:46:00Z</time>
      </trkpt>
      <trkpt lat="42.91098" lon="1.83817">
        <ele>611.05517578125</ele>
        <time>2011-04-24T07:46:06Z</time>
      </trkpt>
      <trkpt lat="42.91089" lon="1.83809">
        <ele>610.09375</ele>
        <time>2011-04-24T07:46:10Z</time>
      </trkpt>
      <trkpt lat="42.91074" lon="1.83801">
        <ele>607.2099609375</ele>
        <time>2011-04-24T07:46:16Z</time>
      </trkpt>
      <trkpt lat="42.91071" lon="1.83799">
        <ele>607.2099609375</ele>
        <time>2011-04-24T07:46:17Z</time>
      </trkpt>
      <trkpt lat="42.91056" lon="1.83796">
        <ele>605.28735351562</ele>
        <time>2011-04-24T07:46:22Z</time>
      </trkpt>
      <trkpt lat="42.9104" lon="1.83792">
        <ele>601.44189453125</ele>
        <time>2011-04-24T07:46:27Z</time>
      </trkpt>
      <trkpt lat="42.91031" lon="1.83791">
        <ele>600.48071289062</ele>
        <time>2011-04-24T07:46:30Z</time>
      </trkpt>
      <trkpt lat="42.91012" lon="1.83787">
        <ele>600</ele>
        <time>2011-04-24T07:46:36Z</time>
      </trkpt>
      <trkpt lat="42.90998" lon="1.8378">
        <ele>599.03857421875</ele>
        <time>2011-04-24T07:46:41Z</time>
      </trkpt>
      <trkpt lat="42.90984" lon="1.83775">
        <ele>600.96118164062</ele>
        <time>2011-04-24T07:46:46Z</time>
      </trkpt>
      <trkpt lat="42.90979" lon="1.83772">
        <ele>601.44189453125</ele>
        <time>2011-04-24T07:46:48Z</time>
      </trkpt>
      <trkpt lat="42.90967" lon="1.83761">
        <ele>600.96118164062</ele>
        <time>2011-04-24T07:46:53Z</time>
      </trkpt>
      <trkpt lat="42.90958" lon="1.83756">
        <ele>603.36450195312</ele>
        <time>2011-04-24T07:46:57Z</time>
      </trkpt>
      <trkpt lat="42.90948" lon="1.83748">
        <ele>604.806640625</ele>
        <time>2011-04-24T07:47:02Z</time>
      </trkpt>
      <trkpt lat="42.90937" lon="1.83737">
        <ele>605.76806640625</ele>
        <time>2011-04-24T07:47:07Z</time>
      </trkpt>
      <trkpt lat="42.90928" lon="1.83729">
        <ele>606.24853515625</ele>
        <time>2011-04-24T07:47:11Z</time>
      </trkpt>
      <trkpt lat="42.9092" lon="1.8372">
        <ele>607.2099609375</ele>
        <time>2011-04-24T07:47:15Z</time>
      </trkpt>
      <trkpt lat="42.90911" lon="1.83713">
        <ele>606.72924804688</ele>
        <time>2011-04-24T07:47:19Z</time>
      </trkpt>
      <trkpt lat="42.90903" lon="1.8371">
        <ele>608.17138671875</ele>
        <time>2011-04-24T07:47:23Z</time>
      </trkpt>
      <trkpt lat="42.90894" lon="1.83702">
        <ele>608.17138671875</ele>
        <time>2011-04-24T07:47:27Z</time>
      </trkpt>
      <trkpt lat="42.90886" lon="1.83694">
        <ele>607.69067382812</ele>
        <time>2011-04-24T07:47:31Z</time>
      </trkpt>
      <trkpt lat="42.90876" lon="1.83685">
        <ele>606.72924804688</ele>
        <time>2011-04-24T07:47:36Z</time>
      </trkpt>
      <trkpt lat="42.90866" lon="1.83675">
        <ele>606.72924804688</ele>
        <time>2011-04-24T07:47:41Z</time>
      </trkpt>
      <trkpt lat="42.90864" lon="1.83673">
        <ele>606.72924804688</ele>
        <time>2011-04-24T07:47:42Z</time>
      </trkpt>
      <trkpt lat="42.90861" lon="1.83678">
        <ele>605.76806640625</ele>
        <time>2011-04-24T07:47:48Z</time>
      </trkpt>
      <trkpt lat="42.90866" lon="1.8369">
        <ele>606.24853515625</ele>
        <time>2011-04-24T07:47:54Z</time>
      </trkpt>
      <trkpt lat="42.90866" lon="1.83706">
        <ele>609.61328125</ele>
        <time>2011-04-24T07:47:59Z</time>
      </trkpt>
      <trkpt lat="42.90866" lon="1.83717">
        <ele>611.53588867188</ele>
        <time>2011-04-24T07:48:03Z</time>
      </trkpt>
      <trkpt lat="42.90866" lon="1.83727">
        <ele>613.45849609375</ele>
        <time>2011-04-24T07:48:06Z</time>
      </trkpt>
      <trkpt lat="42.90866" lon="1.83737">
        <ele>615.86181640625</ele>
        <time>2011-04-24T07:48:11Z</time>
      </trkpt>
      <trkpt lat="42.90866" lon="1.8375">
        <ele>618.74560546875</ele>
        <time>2011-04-24T07:48:17Z</time>
      </trkpt>
      <trkpt lat="42.90867" lon="1.83757">
        <ele>620.66845703125</ele>
        <time>2011-04-24T07:48:21Z</time>
      </trkpt>
      <trkpt lat="42.90868" lon="1.83766">
        <ele>622.1103515625</ele>
        <time>2011-04-24T07:48:25Z</time>
      </trkpt>
      <trkpt lat="42.90868" lon="1.83776">
        <ele>621.14916992188</ele>
        <time>2011-04-24T07:48:31Z</time>
      </trkpt>
      <trkpt lat="42.90868" lon="1.83784">
        <ele>622.59106445312</ele>
        <time>2011-04-24T07:48:35Z</time>
      </trkpt>
      <trkpt lat="42.90868" lon="1.83793">
        <ele>624.513671875</ele>
        <time>2011-04-24T07:48:41Z</time>
      </trkpt>
      <trkpt lat="42.90868" lon="1.83801">
        <ele>624.513671875</ele>
        <time>2011-04-24T07:48:44Z</time>
      </trkpt>
      <trkpt lat="42.9087" lon="1.83805">
        <ele>624.99438476562</ele>
        <time>2011-04-24T07:48:47Z</time>
      </trkpt>
      <trkpt lat="42.9087" lon="1.83815">
        <ele>629.32006835938</ele>
        <time>2011-04-24T07:48:53Z</time>
      </trkpt>
      <trkpt lat="42.9087" lon="1.83821">
        <ele>629.80078125</ele>
        <time>2011-04-24T07:48:58Z</time>
      </trkpt>
      <trkpt lat="42.90871" lon="1.83828">
        <ele>630.76220703125</ele>
        <time>2011-04-24T07:49:03Z</time>
      </trkpt>
      <trkpt lat="42.90872" lon="1.83831">
        <ele>630.76220703125</ele>
        <time>2011-04-24T07:49:04Z</time>
      </trkpt>
      <trkpt lat="42.90871" lon="1.8384">
        <ele>630.28149414062</ele>
        <time>2011-04-24T07:49:10Z</time>
      </trkpt>
      <trkpt lat="42.90871" lon="1.83854">
        <ele>630.76220703125</ele>
        <time>2011-04-24T07:49:19Z</time>
      </trkpt>
      <trkpt lat="42.9087" lon="1.83857">
        <ele>631.24291992188</ele>
        <time>2011-04-24T07:49:21Z</time>
      </trkpt>
      <trkpt lat="42.9087" lon="1.83865">
        <ele>632.68481445312</ele>
        <time>2011-04-24T07:49:25Z</time>
      </trkpt>
      <trkpt lat="42.90867" lon="1.83879">
        <ele>633.16528320312</ele>
        <time>2011-04-24T07:49:31Z</time>
      </trkpt>
      <trkpt lat="42.90866" lon="1.83888">
        <ele>635.08813476562</ele>
        <time>2011-04-24T07:49:37Z</time>
      </trkpt>
      <trkpt lat="42.90866" lon="1.83903">
        <ele>637.97216796875</ele>
        <time>2011-04-24T07:49:45Z</time>
      </trkpt>
      <trkpt lat="42.90866" lon="1.83905">
        <ele>638.45288085938</ele>
        <time>2011-04-24T07:49:46Z</time>
      </trkpt>
      <trkpt lat="42.90862" lon="1.83919">
        <ele>641.8173828125</ele>
        <time>2011-04-24T07:49:51Z</time>
      </trkpt>
      <trkpt lat="42.90862" lon="1.83929">
        <ele>642.77880859375</ele>
        <time>2011-04-24T07:49:55Z</time>
      </trkpt>
      <trkpt lat="42.90859" lon="1.83941">
        <ele>643.25927734375</ele>
        <time>2011-04-24T07:50:00Z</time>
      </trkpt>
      <trkpt lat="42.90858" lon="1.83951">
        <ele>643.25927734375</ele>
        <time>2011-04-24T07:50:03Z</time>
      </trkpt>
      <trkpt lat="42.90848" lon="1.83949">
        <ele>641.33666992188</ele>
        <time>2011-04-24T07:50:09Z</time>
      </trkpt>
      <trkpt lat="42.90845" lon="1.83948">
        <ele>640.37548828125</ele>
        <time>2011-04-24T07:50:10Z</time>
      </trkpt>
      <trkpt lat="42.90835" lon="1.83945">
        <ele>636.04956054688</ele>
        <time>2011-04-24T07:50:16Z</time>
      </trkpt>
      <trkpt lat="42.90831" lon="1.83942">
        <ele>635.08813476562</ele>
        <time>2011-04-24T07:50:19Z</time>
      </trkpt>
      <trkpt lat="42.90818" lon="1.83937">
        <ele>632.2041015625</ele>
        <time>2011-04-24T07:50:25Z</time>
      </trkpt>
      <trkpt lat="42.90813" lon="1.83936">
        <ele>631.24291992188</ele>
        <time>2011-04-24T07:50:27Z</time>
      </trkpt>
      <trkpt lat="42.90804" lon="1.83933">
        <ele>629.80078125</ele>
        <time>2011-04-24T07:50:31Z</time>
      </trkpt>
      <trkpt lat="42.908" lon="1.83932">
        <ele>628.35888671875</ele>
        <time>2011-04-24T07:50:33Z</time>
      </trkpt>
      <trkpt lat="42.90791" lon="1.83928">
        <ele>629.32006835938</ele>
        <time>2011-04-24T07:50:38Z</time>
      </trkpt>
      <trkpt lat="42.9078" lon="1.83923">
        <ele>630.28149414062</ele>
        <time>2011-04-24T07:50:44Z</time>
      </trkpt>
      <trkpt lat="42.90775" lon="1.83918">
        <ele>631.72338867188</ele>
        <time>2011-04-24T07:50:48Z</time>
      </trkpt>
      <trkpt lat="42.90766" lon="1.8391">
        <ele>635.56860351562</ele>
        <time>2011-04-24T07:50:54Z</time>
      </trkpt>
      <trkpt lat="42.9076" lon="1.83901">
        <ele>635.56860351562</ele>
        <time>2011-04-24T07:51:00Z</time>
      </trkpt>
      <trkpt lat="42.90755" lon="1.83896">
        <ele>635.08813476562</ele>
        <time>2011-04-24T07:51:06Z</time>
      </trkpt>
      <trkpt lat="42.90749" lon="1.83886">
        <ele>637.49145507812</ele>
        <time>2011-04-24T07:51:11Z</time>
      </trkpt>
      <trkpt lat="42.90744" lon="1.83881">
        <ele>637.0107421875</ele>
        <time>2011-04-24T07:51:17Z</time>
      </trkpt>
      <trkpt lat="42.90741" lon="1.83876">
        <ele>639.4140625</ele>
        <time>2011-04-24T07:51:21Z</time>
      </trkpt>
      <trkpt lat="42.90738" lon="1.83871">
        <ele>639.89477539062</ele>
        <time>2011-04-24T07:51:25Z</time>
      </trkpt>
      <trkpt lat="42.90734" lon="1.83867">
        <ele>639.89477539062</ele>
        <time>2011-04-24T07:51:30Z</time>
      </trkpt>
      <trkpt lat="42.9073" lon="1.83864">
        <ele>641.33666992188</ele>
        <time>2011-04-24T07:51:34Z</time>
      </trkpt>
      <trkpt lat="42.90728" lon="1.83862">
        <ele>639.4140625</ele>
        <time>2011-04-24T07:51:37Z</time>
      </trkpt>
      <trkpt lat="42.90726" lon="1.83859">
        <ele>640.85595703125</ele>
        <time>2011-04-24T07:51:39Z</time>
      </trkpt>
      <trkpt lat="42.90723" lon="1.83856">
        <ele>642.77880859375</ele>
        <time>2011-04-24T07:51:42Z</time>
      </trkpt>
      <trkpt lat="42.9072" lon="1.83854">
        <ele>645.66259765625</ele>
        <time>2011-04-24T07:51:46Z</time>
      </trkpt>
      <trkpt lat="42.90717" lon="1.83853">
        <ele>646.6240234375</ele>
        <time>2011-04-24T07:51:48Z</time>
      </trkpt>
      <trkpt lat="42.90711" lon="1.83849">
        <ele>647.58520507812</ele>
        <time>2011-04-24T07:51:52Z</time>
      </trkpt>
      <trkpt lat="42.90708" lon="1.83846">
        <ele>646.14331054688</ele>
        <time>2011-04-24T07:51:56Z</time>
      </trkpt>
      <trkpt lat="42.90703" lon="1.83839">
        <ele>643.73999023438</ele>
        <time>2011-04-24T07:52:00Z</time>
      </trkpt>
      <trkpt lat="42.90695" lon="1.83834">
        <ele>643.25927734375</ele>
        <time>2011-04-24T07:52:05Z</time>
      </trkpt>
      <trkpt lat="42.90691" lon="1.83832">
        <ele>642.77880859375</ele>
        <time>2011-04-24T07:52:07Z</time>
      </trkpt>
      <trkpt lat="42.90679" lon="1.83826">
        <ele>641.33666992188</ele>
        <time>2011-04-24T07:52:13Z</time>
      </trkpt>
      <trkpt lat="42.90667" lon="1.83822">
        <ele>639.4140625</ele>
        <time>2011-04-24T07:52:18Z</time>
      </trkpt>
      <trkpt lat="42.90657" lon="1.83819">
        <ele>637.0107421875</ele>
        <time>2011-04-24T07:52:23Z</time>
      </trkpt>
      <trkpt lat="42.9064" lon="1.83815">
        <ele>635.08813476562</ele>
        <time>2011-04-24T07:52:31Z</time>
      </trkpt>
      <trkpt lat="42.90628" lon="1.83811">
        <ele>631.24291992188</ele>
        <time>2011-04-24T07:52:36Z</time>
      </trkpt>
      <trkpt lat="42.90619" lon="1.83808">
        <ele>629.32006835938</ele>
        <time>2011-04-24T07:52:40Z</time>
      </trkpt>
      <trkpt lat="42.90608" lon="1.83807">
        <ele>626.9169921875</ele>
        <time>2011-04-24T07:52:45Z</time>
      </trkpt>
      <trkpt lat="42.90607" lon="1.83806">
        <ele>626.9169921875</ele>
        <time>2011-04-24T07:52:46Z</time>
      </trkpt>
      <trkpt lat="42.906" lon="1.83805">
        <ele>625.95556640625</ele>
        <time>2011-04-24T07:52:51Z</time>
      </trkpt>
      <trkpt lat="42.90595" lon="1.83805">
        <ele>625.47485351562</ele>
        <time>2011-04-24T07:52:55Z</time>
      </trkpt>
      <trkpt lat="42.90594" lon="1.83804">
        <ele>624.513671875</ele>
        <time>2011-04-24T07:52:56Z</time>
      </trkpt>
      <trkpt lat="42.9059" lon="1.83803">
        <ele>625.47485351562</ele>
        <time>2011-04-24T07:52:58Z</time>
      </trkpt>
      <trkpt lat="42.9058" lon="1.83803">
        <ele>624.99438476562</ele>
        <time>2011-04-24T07:53:04Z</time>
      </trkpt>
      <trkpt lat="42.90571" lon="1.83798">
        <ele>622.59106445312</ele>
        <time>2011-04-24T07:53:08Z</time>
      </trkpt>
      <trkpt lat="42.90556" lon="1.83794">
        <ele>622.59106445312</ele>
        <time>2011-04-24T07:53:13Z</time>
      </trkpt>
      <trkpt lat="42.90551" lon="1.83791">
        <ele>621.62963867188</ele>
        <time>2011-04-24T07:53:15Z</time>
      </trkpt>
      <trkpt lat="42.90538" lon="1.83785">
        <ele>621.62963867188</ele>
        <time>2011-04-24T07:53:20Z</time>
      </trkpt>
      <trkpt lat="42.90525" lon="1.83781">
        <ele>622.59106445312</ele>
        <time>2011-04-24T07:53:25Z</time>
      </trkpt>
      <trkpt lat="42.90513" lon="1.83777">
        <ele>624.513671875</ele>
        <time>2011-04-24T07:53:30Z</time>
      </trkpt>
      <trkpt lat="42.90509" lon="1.83777">
        <ele>624.99438476562</ele>
        <time>2011-04-24T07:53:32Z</time>
      </trkpt>
      <trkpt lat="42.90508" lon="1.83767">
        <ele>626.43627929688</ele>
        <time>2011-04-24T07:53:37Z</time>
      </trkpt>
      <trkpt lat="42.90509" lon="1.83761">
        <ele>626.43627929688</ele>
        <time>2011-04-24T07:53:40Z</time>
      </trkpt>
      <trkpt lat="42.90517" lon="1.83738">
        <ele>625.47485351562</ele>
        <time>2011-04-24T07:53:45Z</time>
      </trkpt>
      <trkpt lat="42.90525" lon="1.83718">
        <ele>624.03295898438</ele>
        <time>2011-04-24T07:53:50Z</time>
      </trkpt>
      <trkpt lat="42.90532" lon="1.83702">
        <ele>623.07177734375</ele>
        <time>2011-04-24T07:53:55Z</time>
      </trkpt>
      <trkpt lat="42.90526" lon="1.83695">
        <ele>623.07177734375</ele>
        <time>2011-04-24T07:53:58Z</time>
      </trkpt>
      <trkpt lat="42.90517" lon="1.83696">
        <ele>624.03295898438</ele>
        <time>2011-04-24T07:54:01Z</time>
      </trkpt>
      <trkpt lat="42.90514" lon="1.83698">
        <ele>624.513671875</ele>
        <time>2011-04-24T07:54:02Z</time>
      </trkpt>
      <trkpt lat="42.90498" lon="1.83704">
        <ele>626.9169921875</ele>
        <time>2011-04-24T07:54:08Z</time>
      </trkpt>
      <trkpt lat="42.90485" lon="1.83712">
        <ele>627.39770507812</ele>
        <time>2011-04-24T07:54:13Z</time>
      </trkpt>
      <trkpt lat="42.90474" lon="1.83719">
        <ele>629.32006835938</ele>
        <time>2011-04-24T07:54:18Z</time>
      </trkpt>
      <trkpt lat="42.9046" lon="1.83726">
        <ele>630.76220703125</ele>
        <time>2011-04-24T07:54:24Z</time>
      </trkpt>
      <trkpt lat="42.90447" lon="1.83734">
        <ele>631.72338867188</ele>
        <time>2011-04-24T07:54:30Z</time>
      </trkpt>
      <trkpt lat="42.90436" lon="1.8374">
        <ele>633.64599609375</ele>
        <time>2011-04-24T07:54:35Z</time>
      </trkpt>
      <trkpt lat="42.90425" lon="1.83746">
        <ele>635.56860351562</ele>
        <time>2011-04-24T07:54:40Z</time>
      </trkpt>
      <trkpt lat="42.90424" lon="1.83747">
        <ele>635.56860351562</ele>
        <time>2011-04-24T07:54:41Z</time>
      </trkpt>
      <trkpt lat="42.90415" lon="1.83748">
        <ele>636.5302734375</ele>
        <time>2011-04-24T07:54:45Z</time>
      </trkpt>
      <trkpt lat="42.90401" lon="1.83754">
        <ele>638.93359375</ele>
        <time>2011-04-24T07:54:51Z</time>
      </trkpt>
      <trkpt lat="42.90392" lon="1.83759">
        <ele>640.85595703125</ele>
        <time>2011-04-24T07:54:55Z</time>
      </trkpt>
      <trkpt lat="42.9038" lon="1.83763">
        <ele>643.25927734375</ele>
        <time>2011-04-24T07:55:00Z</time>
      </trkpt>
      <trkpt lat="42.90369" lon="1.83766">
        <ele>645.18188476562</ele>
        <time>2011-04-24T07:55:05Z</time>
      </trkpt>
      <trkpt lat="42.90359" lon="1.8377">
        <ele>646.14331054688</ele>
        <time>2011-04-24T07:55:09Z</time>
      </trkpt>
      <trkpt lat="42.90348" lon="1.83772">
        <ele>646.14331054688</ele>
        <time>2011-04-24T07:55:14Z</time>
      </trkpt>
      <trkpt lat="42.90339" lon="1.83775">
        <ele>645.18188476562</ele>
        <time>2011-04-24T07:55:19Z</time>
      </trkpt>
      <trkpt lat="42.90329" lon="1.83778">
        <ele>645.66259765625</ele>
        <time>2011-04-24T07:55:24Z</time>
      </trkpt>
      <trkpt lat="42.90319" lon="1.83778">
        <ele>648.06591796875</ele>
        <time>2011-04-24T07:55:29Z</time>
      </trkpt>
      <trkpt lat="42.90308" lon="1.83778">
        <ele>649.5078125</ele>
        <time>2011-04-24T07:55:34Z</time>
      </trkpt>
      <trkpt lat="42.90298" lon="1.83778">
        <ele>650.46923828125</ele>
        <time>2011-04-24T07:55:39Z</time>
      </trkpt>
      <trkpt lat="42.90287" lon="1.83778">
        <ele>651.43041992188</ele>
        <time>2011-04-24T07:55:44Z</time>
      </trkpt>
      <trkpt lat="42.90278" lon="1.83778">
        <ele>651.43041992188</ele>
        <time>2011-04-24T07:55:49Z</time>
      </trkpt>
      <trkpt lat="42.90271" lon="1.83778">
        <ele>652.39184570312</ele>
        <time>2011-04-24T07:55:52Z</time>
      </trkpt>
      <trkpt lat="42.90259" lon="1.83773">
        <ele>649.98852539062</ele>
        <time>2011-04-24T07:55:58Z</time>
      </trkpt>
      <trkpt lat="42.90251" lon="1.83771">
        <ele>649.02709960938</ele>
        <time>2011-04-24T07:56:02Z</time>
      </trkpt>
      <trkpt lat="42.90247" lon="1.8377">
        <ele>648.54638671875</ele>
        <time>2011-04-24T07:56:04Z</time>
      </trkpt>
      <trkpt lat="42.9024" lon="1.83769">
        <ele>649.02709960938</ele>
        <time>2011-04-24T07:56:08Z</time>
      </trkpt>
      <trkpt lat="42.90234" lon="1.83768">
        <ele>649.5078125</ele>
        <time>2011-04-24T07:56:13Z</time>
      </trkpt>
      <trkpt lat="42.90224" lon="1.83769">
        <ele>650.46923828125</ele>
        <time>2011-04-24T07:56:18Z</time>
      </trkpt>
      <trkpt lat="42.90215" lon="1.83768">
        <ele>650.94970703125</ele>
        <time>2011-04-24T07:56:23Z</time>
      </trkpt>
      <trkpt lat="42.90213" lon="1.83767">
        <ele>650.46923828125</ele>
        <time>2011-04-24T07:56:24Z</time>
      </trkpt>
      <trkpt lat="42.90205" lon="1.83763">
        <ele>649.98852539062</ele>
        <time>2011-04-24T07:56:31Z</time>
      </trkpt>
      <trkpt lat="42.90202" lon="1.83763">
        <ele>649.5078125</ele>
        <time>2011-04-24T07:56:34Z</time>
      </trkpt>
      <trkpt lat="42.90199" lon="1.83762">
        <ele>649.02709960938</ele>
        <time>2011-04-24T07:56:36Z</time>
      </trkpt>
      <trkpt lat="42.90193" lon="1.8376">
        <ele>650.94970703125</ele>
        <time>2011-04-24T07:56:42Z</time>
      </trkpt>
      <trkpt lat="42.90187" lon="1.83758">
        <ele>651.43041992188</ele>
        <time>2011-04-24T07:56:47Z</time>
      </trkpt>
      <trkpt lat="42.90178" lon="1.83755">
        <ele>655.27587890625</ele>
        <time>2011-04-24T07:56:54Z</time>
      </trkpt>
      <trkpt lat="42.9017" lon="1.83751">
        <ele>657.19848632812</ele>
        <time>2011-04-24T07:57:02Z</time>
      </trkpt>
      <trkpt lat="42.90169" lon="1.83749">
        <ele>657.19848632812</ele>
        <time>2011-04-24T07:57:04Z</time>
      </trkpt>
      <trkpt lat="42.90162" lon="1.83745">
        <ele>656.7177734375</ele>
        <time>2011-04-24T07:57:09Z</time>
      </trkpt>
      <trkpt lat="42.90153" lon="1.8374">
        <ele>655.75659179688</ele>
        <time>2011-04-24T07:57:15Z</time>
      </trkpt>
      <trkpt lat="42.90145" lon="1.83735">
        <ele>657.67919921875</ele>
        <time>2011-04-24T07:57:19Z</time>
      </trkpt>
      <trkpt lat="42.90144" lon="1.83733">
        <ele>656.7177734375</ele>
        <time>2011-04-24T07:57:21Z</time>
      </trkpt>
      <trkpt lat="42.90142" lon="1.83728">
        <ele>654.31469726562</ele>
        <time>2011-04-24T07:57:27Z</time>
      </trkpt>
      <trkpt lat="42.90141" lon="1.83722">
        <ele>653.35327148438</ele>
        <time>2011-04-24T07:57:32Z</time>
      </trkpt>
      <trkpt lat="42.90133" lon="1.83718">
        <ele>658.64038085938</ele>
        <time>2011-04-24T07:57:39Z</time>
      </trkpt>
      <trkpt lat="42.90128" lon="1.83713">
        <ele>663.44702148438</ele>
        <time>2011-04-24T07:57:44Z</time>
      </trkpt>
      <trkpt lat="42.90126" lon="1.83707">
        <ele>665.36962890625</ele>
        <time>2011-04-24T07:57:49Z</time>
      </trkpt>
      <trkpt lat="42.90126" lon="1.83706">
        <ele>665.36962890625</ele>
        <time>2011-04-24T07:57:50Z</time>
      </trkpt>
      <trkpt lat="42.90119" lon="1.83704">
        <ele>669.69580078125</ele>
        <time>2011-04-24T07:57:56Z</time>
      </trkpt>
      <trkpt lat="42.90113" lon="1.83702">
        <ele>671.6181640625</ele>
        <time>2011-04-24T07:58:01Z</time>
      </trkpt>
      <trkpt lat="42.90111" lon="1.837">
        <ele>670.65698242188</ele>
        <time>2011-04-24T07:58:05Z</time>
      </trkpt>
      <trkpt lat="42.90108" lon="1.83693">
        <ele>672.57958984375</ele>
        <time>2011-04-24T07:58:11Z</time>
      </trkpt>
      <trkpt lat="42.90106" lon="1.83688">
        <ele>672.57958984375</ele>
        <time>2011-04-24T07:58:17Z</time>
      </trkpt>
      <trkpt lat="42.90107" lon="1.83687">
        <ele>673.541015625</ele>
        <time>2011-04-24T07:58:20Z</time>
      </trkpt>
      <trkpt lat="42.90111" lon="1.83685">
        <ele>675.46337890625</ele>
        <time>2011-04-24T07:58:24Z</time>
      </trkpt>
      <trkpt lat="42.90114" lon="1.83682">
        <ele>676.90551757812</ele>
        <time>2011-04-24T07:58:29Z</time>
      </trkpt>
      <trkpt lat="42.90117" lon="1.83677">
        <ele>678.34741210938</ele>
        <time>2011-04-24T07:58:34Z</time>
      </trkpt>
      <trkpt lat="42.9012" lon="1.83675">
        <ele>679.30859375</ele>
        <time>2011-04-24T07:58:36Z</time>
      </trkpt>
      <trkpt lat="42.90123" lon="1.83661">
        <ele>680.27001953125</ele>
        <time>2011-04-24T07:58:43Z</time>
      </trkpt>
      <trkpt lat="42.90122" lon="1.8366">
        <ele>681.2314453125</ele>
        <time>2011-04-24T07:58:44Z</time>
      </trkpt>
      <trkpt lat="42.90118" lon="1.83656">
        <ele>682.67333984375</ele>
        <time>2011-04-24T07:58:48Z</time>
      </trkpt>
      <trkpt lat="42.90117" lon="1.83648">
        <ele>682.67333984375</ele>
        <time>2011-04-24T07:58:53Z</time>
      </trkpt>
      <trkpt lat="42.90117" lon="1.83645">
        <ele>684.11547851562</ele>
        <time>2011-04-24T07:58:59Z</time>
      </trkpt>
      <trkpt lat="42.90113" lon="1.8364">
        <ele>685.55737304688</ele>
        <time>2011-04-24T07:59:05Z</time>
      </trkpt>
      <trkpt lat="42.90109" lon="1.83637">
        <ele>686.51879882812</ele>
        <time>2011-04-24T07:59:12Z</time>
      </trkpt>
      <trkpt lat="42.90104" lon="1.83637">
        <ele>687.96069335938</ele>
        <time>2011-04-24T07:59:17Z</time>
      </trkpt>
      <trkpt lat="42.90102" lon="1.83634">
        <ele>688.44140625</ele>
        <time>2011-04-24T07:59:21Z</time>
      </trkpt>
      <trkpt lat="42.90099" lon="1.83629">
        <ele>690.84448242188</ele>
        <time>2011-04-24T07:59:27Z</time>
      </trkpt>
      <trkpt lat="42.90095" lon="1.83626">
        <ele>691.80590820312</ele>
        <time>2011-04-24T07:59:32Z</time>
      </trkpt>
      <trkpt lat="42.90091" lon="1.83621">
        <ele>690.84448242188</ele>
        <time>2011-04-24T07:59:38Z</time>
      </trkpt>
      <trkpt lat="42.90086" lon="1.83618">
        <ele>690.36401367188</ele>
        <time>2011-04-24T07:59:43Z</time>
      </trkpt>
      <trkpt lat="42.90078" lon="1.83613">
        <ele>691.80590820312</ele>
        <time>2011-04-24T07:59:49Z</time>
      </trkpt>
      <trkpt lat="42.9007" lon="1.83611">
        <ele>692.76733398438</ele>
        <time>2011-04-24T07:59:55Z</time>
      </trkpt>
      <trkpt lat="42.90064" lon="1.83606">
        <ele>690.84448242188</ele>
        <time>2011-04-24T08:00:01Z</time>
      </trkpt>
      <trkpt lat="42.90063" lon="1.83605">
        <ele>690.84448242188</ele>
        <time>2011-04-24T08:00:02Z</time>
      </trkpt>
      <trkpt lat="42.90061" lon="1.83603">
        <ele>691.3251953125</ele>
        <time>2011-04-24T08:00:04Z</time>
      </trkpt>
      <trkpt lat="42.90057" lon="1.83596">
        <ele>693.24780273438</ele>
        <time>2011-04-24T08:00:09Z</time>
      </trkpt>
      <trkpt lat="42.90056" lon="1.83594">
        <ele>692.28662109375</ele>
        <time>2011-04-24T08:00:11Z</time>
      </trkpt>
      <trkpt lat="42.90052" lon="1.83587">
        <ele>699.97705078125</ele>
        <time>2011-04-24T08:00:19Z</time>
      </trkpt>
      <trkpt lat="42.90052" lon="1.8358">
        <ele>699.49633789062</ele>
        <time>2011-04-24T08:00:24Z</time>
      </trkpt>
      <trkpt lat="42.90051" lon="1.83573">
        <ele>698.05444335938</ele>
        <time>2011-04-24T08:00:29Z</time>
      </trkpt>
      <trkpt lat="42.90054" lon="1.83563">
        <ele>697.09301757812</ele>
        <time>2011-04-24T08:00:35Z</time>
      </trkpt>
      <trkpt lat="42.90054" lon="1.83559">
        <ele>697.09301757812</ele>
        <time>2011-04-24T08:00:37Z</time>
      </trkpt>
      <trkpt lat="42.90051" lon="1.8355">
        <ele>699.015625</ele>
        <time>2011-04-24T08:00:41Z</time>
      </trkpt>
      <trkpt lat="42.9005" lon="1.83545">
        <ele>701.89990234375</ele>
        <time>2011-04-24T08:00:44Z</time>
      </trkpt>
      <trkpt lat="42.90047" lon="1.83541">
        <ele>703.341796875</ele>
        <time>2011-04-24T08:00:47Z</time>
      </trkpt>
      <trkpt lat="42.90039" lon="1.83535">
        <ele>703.82250976562</ele>
        <time>2011-04-24T08:00:54Z</time>
      </trkpt>
      <trkpt lat="42.90034" lon="1.83532">
        <ele>707.66772460938</ele>
        <time>2011-04-24T08:00:58Z</time>
      </trkpt>
      <trkpt lat="42.90026" lon="1.83528">
        <ele>709.59033203125</ele>
        <time>2011-04-24T08:01:05Z</time>
      </trkpt>
      <trkpt lat="42.90023" lon="1.83528">
        <ele>708.62890625</ele>
        <time>2011-04-24T08:01:07Z</time>
      </trkpt>
      <trkpt lat="42.90013" lon="1.83525">
        <ele>712.95483398438</ele>
        <time>2011-04-24T08:01:14Z</time>
      </trkpt>
      <trkpt lat="42.90009" lon="1.83524">
        <ele>715.8388671875</ele>
        <time>2011-04-24T08:01:19Z</time>
      </trkpt>
      <trkpt lat="42.90003" lon="1.83523">
        <ele>716.80029296875</ele>
        <time>2011-04-24T08:01:24Z</time>
      </trkpt>
      <trkpt lat="42.90002" lon="1.83523">
        <ele>716.31958007812</ele>
        <time>2011-04-24T08:01:25Z</time>
      </trkpt>
      <trkpt lat="42.89999" lon="1.83521">
        <ele>717.28100585938</ele>
        <time>2011-04-24T08:01:27Z</time>
      </trkpt>
      <trkpt lat="42.89996" lon="1.83519">
        <ele>716.31958007812</ele>
        <time>2011-04-24T08:01:31Z</time>
      </trkpt>
      <trkpt lat="42.89993" lon="1.83516">
        <ele>716.31958007812</ele>
        <time>2011-04-24T08:01:34Z</time>
      </trkpt>
      <trkpt lat="42.89982" lon="1.8351">
        <ele>715.8388671875</ele>
        <time>2011-04-24T08:01:39Z</time>
      </trkpt>
      <trkpt lat="42.89975" lon="1.83502">
        <ele>715.8388671875</ele>
        <time>2011-04-24T08:01:45Z</time>
      </trkpt>
      <trkpt lat="42.89966" lon="1.83495">
        <ele>718.72290039062</ele>
        <time>2011-04-24T08:01:53Z</time>
      </trkpt>
      <trkpt lat="42.89961" lon="1.83488">
        <ele>719.68432617188</ele>
        <time>2011-04-24T08:02:00Z</time>
      </trkpt>
      <trkpt lat="42.89959" lon="1.83488">
        <ele>720.16479492188</ele>
        <time>2011-04-24T08:02:02Z</time>
      </trkpt>
      <trkpt lat="42.89953" lon="1.83485">
        <ele>718.2421875</ele>
        <time>2011-04-24T08:02:08Z</time>
      </trkpt>
      <trkpt lat="42.89952" lon="1.83482">
        <ele>716.80029296875</ele>
        <time>2011-04-24T08:02:10Z</time>
      </trkpt>
      <trkpt lat="42.89953" lon="1.83472">
        <ele>720.6455078125</ele>
        <time>2011-04-24T08:02:19Z</time>
      </trkpt>
      <trkpt lat="42.89955" lon="1.83469">
        <ele>724.49072265625</ele>
        <time>2011-04-24T08:02:24Z</time>
      </trkpt>
      <trkpt lat="42.89959" lon="1.83464">
        <ele>723.048828125</ele>
        <time>2011-04-24T08:02:29Z</time>
      </trkpt>
      <trkpt lat="42.8996" lon="1.83458">
        <ele>723.52954101562</ele>
        <time>2011-04-24T08:02:32Z</time>
      </trkpt>
      <trkpt lat="42.8996" lon="1.83454">
        <ele>724.49072265625</ele>
        <time>2011-04-24T08:02:35Z</time>
      </trkpt>
      <trkpt lat="42.89957" lon="1.8345">
        <ele>725.9326171875</ele>
        <time>2011-04-24T08:02:39Z</time>
      </trkpt>
      <trkpt lat="42.89956" lon="1.83449">
        <ele>724.97143554688</ele>
        <time>2011-04-24T08:02:41Z</time>
      </trkpt>
      <trkpt lat="42.89953" lon="1.83445">
        <ele>726.89404296875</ele>
        <time>2011-04-24T08:02:47Z</time>
      </trkpt>
      <trkpt lat="42.89948" lon="1.83441">
        <ele>729.29711914062</ele>
        <time>2011-04-24T08:02:53Z</time>
      </trkpt>
      <trkpt lat="42.89943" lon="1.83434">
        <ele>732.18139648438</ele>
        <time>2011-04-24T08:02:59Z</time>
      </trkpt>
      <trkpt lat="42.89941" lon="1.83432">
        <ele>731.70043945312</ele>
        <time>2011-04-24T08:03:01Z</time>
      </trkpt>
      <trkpt lat="42.89939" lon="1.83424">
        <ele>730.7392578125</ele>
        <time>2011-04-24T08:03:08Z</time>
      </trkpt>
      <trkpt lat="42.89935" lon="1.83418">
        <ele>733.142578125</ele>
        <time>2011-04-24T08:03:13Z</time>
      </trkpt>
      <trkpt lat="42.89933" lon="1.83409">
        <ele>736.50732421875</ele>
        <time>2011-04-24T08:03:18Z</time>
      </trkpt>
      <trkpt lat="42.89932" lon="1.83407">
        <ele>736.02661132812</ele>
        <time>2011-04-24T08:03:20Z</time>
      </trkpt>
      <trkpt lat="42.8993" lon="1.83398">
        <ele>736.02661132812</ele>
        <time>2011-04-24T08:03:27Z</time>
      </trkpt>
      <trkpt lat="42.89928" lon="1.83395">
        <ele>738.91064453125</ele>
        <time>2011-04-24T08:03:29Z</time>
      </trkpt>
      <trkpt lat="42.89925" lon="1.83386">
        <ele>740.3525390625</ele>
        <time>2011-04-24T08:03:36Z</time>
      </trkpt>
      <trkpt lat="42.89923" lon="1.83382">
        <ele>741.31372070312</ele>
        <time>2011-04-24T08:03:39Z</time>
      </trkpt>
      <trkpt lat="42.8992" lon="1.83381">
        <ele>742.27514648438</ele>
        <time>2011-04-24T08:03:41Z</time>
      </trkpt>
      <trkpt lat="42.89914" lon="1.8337">
        <ele>745.15893554688</ele>
        <time>2011-04-24T08:03:50Z</time>
      </trkpt>
      <trkpt lat="42.89904" lon="1.83363">
        <ele>750.44653320312</ele>
        <time>2011-04-24T08:03:57Z</time>
      </trkpt>
      <trkpt lat="42.89899" lon="1.83361">
        <ele>752.849609375</ele>
        <time>2011-04-24T08:04:03Z</time>
      </trkpt>
      <trkpt lat="42.89893" lon="1.8336">
        <ele>754.77221679688</ele>
        <time>2011-04-24T08:04:09Z</time>
      </trkpt>
      <trkpt lat="42.89889" lon="1.83359">
        <ele>758.61743164062</ele>
        <time>2011-04-24T08:04:15Z</time>
      </trkpt>
      <trkpt lat="42.89883" lon="1.8336">
        <ele>760.5400390625</ele>
        <time>2011-04-24T08:04:20Z</time>
      </trkpt>
      <trkpt lat="42.89877" lon="1.83361">
        <ele>764.38549804688</ele>
        <time>2011-04-24T08:04:27Z</time>
      </trkpt>
      <trkpt lat="42.89873" lon="1.83357">
        <ele>763.90454101562</ele>
        <time>2011-04-24T08:04:33Z</time>
      </trkpt>
      <trkpt lat="42.89871" lon="1.83351">
        <ele>763.42407226562</ele>
        <time>2011-04-24T08:04:39Z</time>
      </trkpt>
      <trkpt lat="42.8987" lon="1.83344">
        <ele>762.46264648438</ele>
        <time>2011-04-24T08:04:44Z</time>
      </trkpt>
      <trkpt lat="42.89868" lon="1.83339">
        <ele>763.90454101562</ele>
        <time>2011-04-24T08:04:49Z</time>
      </trkpt>
      <trkpt lat="42.89864" lon="1.83334">
        <ele>766.30810546875</ele>
        <time>2011-04-24T08:04:55Z</time>
      </trkpt>
      <trkpt lat="42.89862" lon="1.83333">
        <ele>766.78881835938</ele>
        <time>2011-04-24T08:04:56Z</time>
      </trkpt>
      <trkpt lat="42.89857" lon="1.83334">
        <ele>771.59521484375</ele>
        <time>2011-04-24T08:05:03Z</time>
      </trkpt>
      <trkpt lat="42.89852" lon="1.83332">
        <ele>774.9599609375</ele>
        <time>2011-04-24T08:05:09Z</time>
      </trkpt>
      <trkpt lat="42.89848" lon="1.8333">
        <ele>774.47924804688</ele>
        <time>2011-04-24T08:05:15Z</time>
      </trkpt>
      <trkpt lat="42.89843" lon="1.83331">
        <ele>774.47924804688</ele>
        <time>2011-04-24T08:05:21Z</time>
      </trkpt>
      <trkpt lat="42.89837" lon="1.83333">
        <ele>776.88256835938</ele>
        <time>2011-04-24T08:05:27Z</time>
      </trkpt>
      <trkpt lat="42.89833" lon="1.83332">
        <ele>777.84375</ele>
        <time>2011-04-24T08:05:32Z</time>
      </trkpt>
      <trkpt lat="42.89828" lon="1.83331">
        <ele>777.84375</ele>
        <time>2011-04-24T08:05:38Z</time>
      </trkpt>
      <trkpt lat="42.89821" lon="1.83331">
        <ele>779.28564453125</ele>
        <time>2011-04-24T08:05:45Z</time>
      </trkpt>
      <trkpt lat="42.89817" lon="1.83332">
        <ele>779.76635742188</ele>
        <time>2011-04-24T08:05:52Z</time>
      </trkpt>
      <trkpt lat="42.89811" lon="1.83335">
        <ele>782.65063476562</ele>
        <time>2011-04-24T08:05:58Z</time>
      </trkpt>
      <trkpt lat="42.89803" lon="1.83336">
        <ele>784.09252929688</ele>
        <time>2011-04-24T08:06:04Z</time>
      </trkpt>
      <trkpt lat="42.89803" lon="1.83337">
        <ele>784.5732421875</ele>
        <time>2011-04-24T08:06:05Z</time>
      </trkpt>
      <trkpt lat="42.89798" lon="1.83335">
        <ele>786.01513671875</ele>
        <time>2011-04-24T08:06:09Z</time>
      </trkpt>
      <trkpt lat="42.89795" lon="1.83332">
        <ele>786.49584960938</ele>
        <time>2011-04-24T08:06:13Z</time>
      </trkpt>
      <trkpt lat="42.89793" lon="1.83329">
        <ele>786.49584960938</ele>
        <time>2011-04-24T08:06:16Z</time>
      </trkpt>
      <trkpt lat="42.89788" lon="1.83324">
        <ele>790.34106445312</ele>
        <time>2011-04-24T08:06:23Z</time>
      </trkpt>
      <trkpt lat="42.89784" lon="1.83317">
        <ele>789.8603515625</ele>
        <time>2011-04-24T08:06:30Z</time>
      </trkpt>
      <trkpt lat="42.89782" lon="1.83318">
        <ele>791.78295898438</ele>
        <time>2011-04-24T08:06:35Z</time>
      </trkpt>
      <trkpt lat="42.89778" lon="1.83322">
        <ele>796.10913085938</ele>
        <time>2011-04-24T08:06:42Z</time>
      </trkpt>
      <trkpt lat="42.89775" lon="1.83322">
        <ele>798.99291992188</ele>
        <time>2011-04-24T08:06:48Z</time>
      </trkpt>
      <trkpt lat="42.89774" lon="1.83323">
        <ele>799.4736328125</ele>
        <time>2011-04-24T08:06:57Z</time>
      </trkpt>
      <trkpt lat="42.8977" lon="1.83325">
        <ele>802.83813476562</ele>
        <time>2011-04-24T08:07:04Z</time>
      </trkpt>
      <trkpt lat="42.89767" lon="1.83325">
        <ele>803.31884765625</ele>
        <time>2011-04-24T08:07:06Z</time>
      </trkpt>
      <trkpt lat="42.89759" lon="1.8333">
        <ele>805.24145507812</ele>
        <time>2011-04-24T08:07:12Z</time>
      </trkpt>
      <trkpt lat="42.89752" lon="1.83331">
        <ele>802.83813476562</ele>
        <time>2011-04-24T08:07:20Z</time>
      </trkpt>
      <trkpt lat="42.89747" lon="1.83329">
        <ele>802.357421875</ele>
        <time>2011-04-24T08:07:26Z</time>
      </trkpt>
      <trkpt lat="42.89743" lon="1.83325">
        <ele>797.55102539062</ele>
        <time>2011-04-24T08:07:33Z</time>
      </trkpt>
      <trkpt lat="42.89739" lon="1.83322">
        <ele>800.91552734375</ele>
        <time>2011-04-24T08:07:38Z</time>
      </trkpt>
      <trkpt lat="42.89732" lon="1.8332">
        <ele>804.7607421875</ele>
        <time>2011-04-24T08:07:45Z</time>
      </trkpt>
      <trkpt lat="42.89732" lon="1.8332">
        <ele>804.7607421875</ele>
        <time>2011-04-24T08:07:46Z</time>
      </trkpt>
      <trkpt lat="42.89721" lon="1.83324">
        <ele>806.20263671875</ele>
        <time>2011-04-24T08:07:54Z</time>
      </trkpt>
      <trkpt lat="42.89713" lon="1.83328">
        <ele>807.64477539062</ele>
        <time>2011-04-24T08:08:00Z</time>
      </trkpt>
      <trkpt lat="42.89707" lon="1.83331">
        <ele>808.60595703125</ele>
        <time>2011-04-24T08:08:04Z</time>
      </trkpt>
      <trkpt lat="42.89704" lon="1.83332">
        <ele>809.08666992188</ele>
        <time>2011-04-24T08:08:06Z</time>
      </trkpt>
      <trkpt lat="42.89695" lon="1.83333">
        <ele>810.52856445312</ele>
        <time>2011-04-24T08:08:11Z</time>
      </trkpt>
      <trkpt lat="42.89685" lon="1.83336">
        <ele>813.41284179688</ele>
        <time>2011-04-24T08:08:16Z</time>
      </trkpt>
      <trkpt lat="42.89684" lon="1.83336">
        <ele>812.93212890625</ele>
        <time>2011-04-24T08:08:17Z</time>
      </trkpt>
      <trkpt lat="42.8968" lon="1.83337">
        <ele>813.89331054688</ele>
        <time>2011-04-24T08:08:20Z</time>
      </trkpt>
      <trkpt lat="42.89678" lon="1.83336">
        <ele>814.85473632812</ele>
        <time>2011-04-24T08:08:22Z</time>
      </trkpt>
      <trkpt lat="42.89669" lon="1.83333">
        <ele>814.3740234375</ele>
        <time>2011-04-24T08:08:29Z</time>
      </trkpt>
      <trkpt lat="42.89659" lon="1.83328">
        <ele>816.77734375</ele>
        <time>2011-04-24T08:08:38Z</time>
      </trkpt>
      <trkpt lat="42.89656" lon="1.83325">
        <ele>815.33544921875</ele>
        <time>2011-04-24T08:08:41Z</time>
      </trkpt>
      <trkpt lat="42.89651" lon="1.83318">
        <ele>815.33544921875</ele>
        <time>2011-04-24T08:08:47Z</time>
      </trkpt>
      <trkpt lat="42.89647" lon="1.83311">
        <ele>817.25805664062</ele>
        <time>2011-04-24T08:08:51Z</time>
      </trkpt>
      <trkpt lat="42.89646" lon="1.83309">
        <ele>816.77734375</ele>
        <time>2011-04-24T08:08:52Z</time>
      </trkpt>
      <trkpt lat="42.8964" lon="1.833">
        <ele>819.1806640625</ele>
        <time>2011-04-24T08:08:59Z</time>
      </trkpt>
      <trkpt lat="42.89637" lon="1.83299">
        <ele>821.10327148438</ele>
        <time>2011-04-24T08:09:01Z</time>
      </trkpt>
      <trkpt lat="42.8963" lon="1.83297">
        <ele>822.064453125</ele>
        <time>2011-04-24T08:09:07Z</time>
      </trkpt>
      <trkpt lat="42.89627" lon="1.83296">
        <ele>822.54516601562</ele>
        <time>2011-04-24T08:09:09Z</time>
      </trkpt>
      <trkpt lat="42.89622" lon="1.83292">
        <ele>824.94848632812</ele>
        <time>2011-04-24T08:09:14Z</time>
      </trkpt>
      <trkpt lat="42.89621" lon="1.83291">
        <ele>824.94848632812</ele>
        <time>2011-04-24T08:09:15Z</time>
      </trkpt>
      <trkpt lat="42.89616" lon="1.83284">
        <ele>830.71655273438</ele>
        <time>2011-04-24T08:09:21Z</time>
      </trkpt>
      <trkpt lat="42.89611" lon="1.83279">
        <ele>836.00366210938</ele>
        <time>2011-04-24T08:09:27Z</time>
      </trkpt>
      <trkpt lat="42.89607" lon="1.83275">
        <ele>836.484375</ele>
        <time>2011-04-24T08:09:32Z</time>
      </trkpt>
      <trkpt lat="42.89602" lon="1.83268">
        <ele>836.96484375</ele>
        <time>2011-04-24T08:09:41Z</time>
      </trkpt>
      <trkpt lat="42.89595" lon="1.83264">
        <ele>842.73291015625</ele>
        <time>2011-04-24T08:09:47Z</time>
      </trkpt>
      <trkpt lat="42.89594" lon="1.83261">
        <ele>845.13623046875</ele>
        <time>2011-04-24T08:09:49Z</time>
      </trkpt>
      <trkpt lat="42.89588" lon="1.83256">
        <ele>848.02026367188</ele>
        <time>2011-04-24T08:09:55Z</time>
      </trkpt>
      <trkpt lat="42.89581" lon="1.83253">
        <ele>850.42358398438</ele>
        <time>2011-04-24T08:10:02Z</time>
      </trkpt>
      <trkpt lat="42.89576" lon="1.83251">
        <ele>849.46215820312</ele>
        <time>2011-04-24T08:10:06Z</time>
      </trkpt>
      <trkpt lat="42.89569" lon="1.83254">
        <ele>847.05883789062</ele>
        <time>2011-04-24T08:10:12Z</time>
      </trkpt>
      <trkpt lat="42.89563" lon="1.83252">
        <ele>844.65551757812</ele>
        <time>2011-04-24T08:10:18Z</time>
      </trkpt>
      <trkpt lat="42.8956" lon="1.83249">
        <ele>846.09765625</ele>
        <time>2011-04-24T08:10:22Z</time>
      </trkpt>
      <trkpt lat="42.89556" lon="1.83243">
        <ele>851.384765625</ele>
        <time>2011-04-24T08:10:29Z</time>
      </trkpt>
      <trkpt lat="42.89552" lon="1.8324">
        <ele>851.86547851562</ele>
        <time>2011-04-24T08:10:34Z</time>
      </trkpt>
      <trkpt lat="42.89548" lon="1.83233">
        <ele>848.9814453125</ele>
        <time>2011-04-24T08:10:41Z</time>
      </trkpt>
      <trkpt lat="42.89541" lon="1.83229">
        <ele>849.46215820312</ele>
        <time>2011-04-24T08:10:47Z</time>
      </trkpt>
      <trkpt lat="42.89541" lon="1.83228">
        <ele>849.46215820312</ele>
        <time>2011-04-24T08:10:48Z</time>
      </trkpt>
      <trkpt lat="42.89534" lon="1.83221">
        <ele>852.82666015625</ele>
        <time>2011-04-24T08:10:56Z</time>
      </trkpt>
      <trkpt lat="42.89524" lon="1.83215">
        <ele>861.47875976562</ele>
        <time>2011-04-24T08:11:03Z</time>
      </trkpt>
      <trkpt lat="42.8952" lon="1.83215">
        <ele>864.36254882812</ele>
        <time>2011-04-24T08:11:07Z</time>
      </trkpt>
      <trkpt lat="42.89516" lon="1.83216">
        <ele>864.84326171875</ele>
        <time>2011-04-24T08:11:10Z</time>
      </trkpt>
      <trkpt lat="42.89513" lon="1.83211">
        <ele>863.8818359375</ele>
        <time>2011-04-24T08:11:17Z</time>
      </trkpt>
      <trkpt lat="42.89505" lon="1.83206">
        <ele>864.36254882812</ele>
        <time>2011-04-24T08:11:25Z</time>
      </trkpt>
      <trkpt lat="42.89504" lon="1.83204">
        <ele>864.36254882812</ele>
        <time>2011-04-24T08:11:27Z</time>
      </trkpt>
      <trkpt lat="42.89497" lon="1.83198">
        <ele>863.8818359375</ele>
        <time>2011-04-24T08:11:35Z</time>
      </trkpt>
      <trkpt lat="42.89497" lon="1.83196">
        <ele>865.32397460938</ele>
        <time>2011-04-24T08:11:36Z</time>
      </trkpt>
      <trkpt lat="42.89493" lon="1.83192">
        <ele>866.76586914062</ele>
        <time>2011-04-24T08:11:41Z</time>
      </trkpt>
      <trkpt lat="42.89487" lon="1.83185">
        <ele>867.72705078125</ele>
        <time>2011-04-24T08:11:46Z</time>
      </trkpt>
      <trkpt lat="42.89482" lon="1.83181">
        <ele>871.091796875</ele>
        <time>2011-04-24T08:11:51Z</time>
      </trkpt>
      <trkpt lat="42.89481" lon="1.83179">
        <ele>872.53369140625</ele>
        <time>2011-04-24T08:11:53Z</time>
      </trkpt>
      <trkpt lat="42.89478" lon="1.83173">
        <ele>877.82104492188</ele>
        <time>2011-04-24T08:11:59Z</time>
      </trkpt>
      <trkpt lat="42.89474" lon="1.8317">
        <ele>876.85986328125</ele>
        <time>2011-04-24T08:12:03Z</time>
      </trkpt>
      <trkpt lat="42.89471" lon="1.83167">
        <ele>877.34057617188</ele>
        <time>2011-04-24T08:12:05Z</time>
      </trkpt>
      <trkpt lat="42.89468" lon="1.83163">
        <ele>876.85986328125</ele>
        <time>2011-04-24T08:12:09Z</time>
      </trkpt>
      <trkpt lat="42.89461" lon="1.83157">
        <ele>879.26293945312</ele>
        <time>2011-04-24T08:12:16Z</time>
      </trkpt>
      <trkpt lat="42.89458" lon="1.83154">
        <ele>879.26293945312</ele>
        <time>2011-04-24T08:12:20Z</time>
      </trkpt>
      <trkpt lat="42.89453" lon="1.83145">
        <ele>877.82104492188</ele>
        <time>2011-04-24T08:12:27Z</time>
      </trkpt>
      <trkpt lat="42.89452" lon="1.83143">
        <ele>879.26293945312</ele>
        <time>2011-04-24T08:12:29Z</time>
      </trkpt>
      <trkpt lat="42.89452" lon="1.8314">
        <ele>881.18579101562</ele>
        <time>2011-04-24T08:12:31Z</time>
      </trkpt>
      <trkpt lat="42.8945" lon="1.8314">
        <ele>881.18579101562</ele>
        <time>2011-04-24T08:12:33Z</time>
      </trkpt>
      <trkpt lat="42.89447" lon="1.83136">
        <ele>881.66625976562</ele>
        <time>2011-04-24T08:12:37Z</time>
      </trkpt>
      <trkpt lat="42.89442" lon="1.83127">
        <ele>875.89819335938</ele>
        <time>2011-04-24T08:12:43Z</time>
      </trkpt>
      <trkpt lat="42.89435" lon="1.83128">
        <ele>876.37915039062</ele>
        <time>2011-04-24T08:12:47Z</time>
      </trkpt>
      <trkpt lat="42.8943" lon="1.83123">
        <ele>879.26293945312</ele>
        <time>2011-04-24T08:12:52Z</time>
      </trkpt>
      <trkpt lat="42.89425" lon="1.83124">
        <ele>882.14697265625</ele>
        <time>2011-04-24T08:12:55Z</time>
      </trkpt>
      <trkpt lat="42.8942" lon="1.83119">
        <ele>882.62768554688</ele>
        <time>2011-04-24T08:13:00Z</time>
      </trkpt>
      <trkpt lat="42.89419" lon="1.83116">
        <ele>883.5888671875</ele>
        <time>2011-04-24T08:13:02Z</time>
      </trkpt>
      <trkpt lat="42.89417" lon="1.83102">
        <ele>885.51147460938</ele>
        <time>2011-04-24T08:13:09Z</time>
      </trkpt>
      <trkpt lat="42.89416" lon="1.83101">
        <ele>885.9921875</ele>
        <time>2011-04-24T08:13:10Z</time>
      </trkpt>
      <trkpt lat="42.89413" lon="1.83089">
        <ele>889.35668945312</ele>
        <time>2011-04-24T08:13:17Z</time>
      </trkpt>
      <trkpt lat="42.89411" lon="1.83087">
        <ele>888.87622070312</ele>
        <time>2011-04-24T08:13:19Z</time>
      </trkpt>
      <trkpt lat="42.8941" lon="1.83078">
        <ele>892.7216796875</ele>
        <time>2011-04-24T08:13:25Z</time>
      </trkpt>
      <trkpt lat="42.89407" lon="1.83072">
        <ele>892.24096679688</ele>
        <time>2011-04-24T08:13:30Z</time>
      </trkpt>
      <trkpt lat="42.89405" lon="1.83068">
        <ele>893.2021484375</ele>
        <time>2011-04-24T08:13:33Z</time>
      </trkpt>
      <trkpt lat="42.89403" lon="1.83064">
        <ele>893.2021484375</ele>
        <time>2011-04-24T08:13:36Z</time>
      </trkpt>
      <trkpt lat="42.89401" lon="1.8306">
        <ele>897.04736328125</ele>
        <time>2011-04-24T08:13:39Z</time>
      </trkpt>
      <trkpt lat="42.89398" lon="1.83052">
        <ele>900.892578125</ele>
        <time>2011-04-24T08:13:44Z</time>
      </trkpt>
      <trkpt lat="42.89399" lon="1.83049">
        <ele>902.33447265625</ele>
        <time>2011-04-24T08:13:46Z</time>
      </trkpt>
      <trkpt lat="42.89399" lon="1.83046">
        <ele>903.2958984375</ele>
        <time>2011-04-24T08:13:48Z</time>
      </trkpt>
      <trkpt lat="42.89397" lon="1.83037">
        <ele>905.21850585938</ele>
        <time>2011-04-24T08:13:55Z</time>
      </trkpt>
      <trkpt lat="42.89394" lon="1.83034">
        <ele>903.77661132812</ele>
        <time>2011-04-24T08:13:59Z</time>
      </trkpt>
      <trkpt lat="42.89392" lon="1.83031">
        <ele>903.2958984375</ele>
        <time>2011-04-24T08:14:02Z</time>
      </trkpt>
      <trkpt lat="42.89388" lon="1.83025">
        <ele>905.21850585938</ele>
        <time>2011-04-24T08:14:07Z</time>
      </trkpt>
      <trkpt lat="42.89385" lon="1.83024">
        <ele>904.73779296875</ele>
        <time>2011-04-24T08:14:09Z</time>
      </trkpt>
      <trkpt lat="42.8938" lon="1.83017">
        <ele>900.892578125</ele>
        <time>2011-04-24T08:14:17Z</time>
      </trkpt>
      <trkpt lat="42.89373" lon="1.83007">
        <ele>900.892578125</ele>
        <time>2011-04-24T08:14:25Z</time>
      </trkpt>
      <trkpt lat="42.8937" lon="1.83">
        <ele>901.85400390625</ele>
        <time>2011-04-24T08:14:29Z</time>
      </trkpt>
      <trkpt lat="42.89368" lon="1.82993">
        <ele>900.892578125</ele>
        <time>2011-04-24T08:14:34Z</time>
      </trkpt>
      <trkpt lat="42.89365" lon="1.82988">
        <ele>899.93139648438</ele>
        <time>2011-04-24T08:14:40Z</time>
      </trkpt>
      <trkpt lat="42.89364" lon="1.82978">
        <ele>902.33447265625</ele>
        <time>2011-04-24T08:14:46Z</time>
      </trkpt>
      <trkpt lat="42.89363" lon="1.82976">
        <ele>902.81518554688</ele>
        <time>2011-04-24T08:14:47Z</time>
      </trkpt>
      <trkpt lat="42.8936" lon="1.82963">
        <ele>900.412109375</ele>
        <time>2011-04-24T08:14:54Z</time>
      </trkpt>
      <trkpt lat="42.89358" lon="1.82962">
        <ele>900.892578125</ele>
        <time>2011-04-24T08:14:56Z</time>
      </trkpt>
      <trkpt lat="42.89356" lon="1.82962">
        <ele>900.892578125</ele>
        <time>2011-04-24T08:14:59Z</time>
      </trkpt>
      <trkpt lat="42.89351" lon="1.8297">
        <ele>901.85400390625</ele>
        <time>2011-04-24T08:15:05Z</time>
      </trkpt>
      <trkpt lat="42.8935" lon="1.82978">
        <ele>902.81518554688</ele>
        <time>2011-04-24T08:15:08Z</time>
      </trkpt>
      <trkpt lat="42.89348" lon="1.82995">
        <ele>905.69921875</ele>
        <time>2011-04-24T08:15:13Z</time>
      </trkpt>
      <trkpt lat="42.89346" lon="1.83003">
        <ele>907.14111328125</ele>
        <time>2011-04-24T08:15:16Z</time>
      </trkpt>
      <trkpt lat="42.8934" lon="1.83023">
        <ele>912.42846679688</ele>
        <time>2011-04-24T08:15:22Z</time>
      </trkpt>
      <trkpt lat="42.89335" lon="1.83031">
        <ele>912.9091796875</ele>
        <time>2011-04-24T08:15:27Z</time>
      </trkpt>
      <trkpt lat="42.89329" lon="1.83042">
        <ele>913.38989257812</ele>
        <time>2011-04-24T08:15:32Z</time>
      </trkpt>
      <trkpt lat="42.89328" lon="1.83046">
        <ele>914.35107421875</ele>
        <time>2011-04-24T08:15:34Z</time>
      </trkpt>
      <trkpt lat="42.89322" lon="1.83064">
        <ele>920.11889648438</ele>
        <time>2011-04-24T08:15:40Z</time>
      </trkpt>
      <trkpt lat="42.8932" lon="1.83068">
        <ele>921.56079101562</ele>
        <time>2011-04-24T08:15:42Z</time>
      </trkpt>
      <trkpt lat="42.89315" lon="1.83083">
        <ele>923.96411132812</ele>
        <time>2011-04-24T08:15:48Z</time>
      </trkpt>
      <trkpt lat="42.8931" lon="1.83094">
        <ele>926.36767578125</ele>
        <time>2011-04-24T08:15:52Z</time>
      </trkpt>
      <trkpt lat="42.89308" lon="1.83108">
        <ele>926.36767578125</ele>
        <time>2011-04-24T08:15:57Z</time>
      </trkpt>
      <trkpt lat="42.89307" lon="1.8311">
        <ele>926.84838867188</ele>
        <time>2011-04-24T08:15:58Z</time>
      </trkpt>
      <trkpt lat="42.89295" lon="1.83119">
        <ele>926.36767578125</ele>
        <time>2011-04-24T08:16:04Z</time>
      </trkpt>
      <trkpt lat="42.89286" lon="1.83125">
        <ele>927.8095703125</ele>
        <time>2011-04-24T08:16:08Z</time>
      </trkpt>
      <trkpt lat="42.89277" lon="1.83136">
        <ele>928.29028320312</ele>
        <time>2011-04-24T08:16:14Z</time>
      </trkpt>
      <trkpt lat="42.8927" lon="1.83145">
        <ele>927.3291015625</ele>
        <time>2011-04-24T08:16:18Z</time>
      </trkpt>
      <trkpt lat="42.89267" lon="1.83158">
        <ele>928.77099609375</ele>
        <time>2011-04-24T08:16:22Z</time>
      </trkpt>
      <trkpt lat="42.89256" lon="1.83174">
        <ele>927.8095703125</ele>
        <time>2011-04-24T08:16:28Z</time>
      </trkpt>
      <trkpt lat="42.89251" lon="1.83186">
        <ele>928.29028320312</ele>
        <time>2011-04-24T08:16:32Z</time>
      </trkpt>
      <trkpt lat="42.89242" lon="1.83201">
        <ele>929.73217773438</ele>
        <time>2011-04-24T08:16:37Z</time>
      </trkpt>
      <trkpt lat="42.89237" lon="1.83215">
        <ele>927.3291015625</ele>
        <time>2011-04-24T08:16:42Z</time>
      </trkpt>
      <trkpt lat="42.89234" lon="1.8323">
        <ele>924.92578125</ele>
        <time>2011-04-24T08:16:46Z</time>
      </trkpt>
      <trkpt lat="42.89225" lon="1.83251">
        <ele>922.04150390625</ele>
        <time>2011-04-24T08:16:52Z</time>
      </trkpt>
      <trkpt lat="42.89221" lon="1.83258">
        <ele>920.11889648438</ele>
        <time>2011-04-24T08:16:55Z</time>
      </trkpt>
      <trkpt lat="42.89213" lon="1.83273">
        <ele>918.67700195312</ele>
        <time>2011-04-24T08:17:00Z</time>
      </trkpt>
      <trkpt lat="42.89203" lon="1.83284">
        <ele>920.599609375</ele>
        <time>2011-04-24T08:17:04Z</time>
      </trkpt>
      <trkpt lat="42.89192" lon="1.83293">
        <ele>920.599609375</ele>
        <time>2011-04-24T08:17:08Z</time>
      </trkpt>
      <trkpt lat="42.89183" lon="1.83302">
        <ele>918.1962890625</ele>
        <time>2011-04-24T08:17:13Z</time>
      </trkpt>
      <trkpt lat="42.89178" lon="1.83313">
        <ele>919.15771484375</ele>
        <time>2011-04-24T08:17:18Z</time>
      </trkpt>
      <trkpt lat="42.89167" lon="1.83323">
        <ele>918.67700195312</ele>
        <time>2011-04-24T08:17:23Z</time>
      </trkpt>
      <trkpt lat="42.89159" lon="1.83332">
        <ele>914.83178710938</ele>
        <time>2011-04-24T08:17:28Z</time>
      </trkpt>
      <trkpt lat="42.89154" lon="1.83336">
        <ele>916.27368164062</ele>
        <time>2011-04-24T08:17:32Z</time>
      </trkpt>
      <trkpt lat="42.89147" lon="1.83345">
        <ele>921.08032226562</ele>
        <time>2011-04-24T08:17:38Z</time>
      </trkpt>
      <trkpt lat="42.89134" lon="1.83351">
        <ele>925.88696289062</ele>
        <time>2011-04-24T08:17:43Z</time>
      </trkpt>
      <trkpt lat="42.89132" lon="1.83347">
        <ele>926.36767578125</ele>
        <time>2011-04-24T08:17:45Z</time>
      </trkpt>
      <trkpt lat="42.89131" lon="1.83336">
        <ele>930.212890625</ele>
        <time>2011-04-24T08:17:49Z</time>
      </trkpt>
      <trkpt lat="42.89123" lon="1.83329">
        <ele>933.57739257812</ele>
        <time>2011-04-24T08:17:56Z</time>
      </trkpt>
      <trkpt lat="42.89121" lon="1.83326">
        <ele>932.13549804688</ele>
        <time>2011-04-24T08:17:59Z</time>
      </trkpt>
      <trkpt lat="42.89113" lon="1.83325">
        <ele>933.0966796875</ele>
        <time>2011-04-24T08:18:04Z</time>
      </trkpt>
      <trkpt lat="42.89109" lon="1.83312">
        <ele>934.05810546875</ele>
        <time>2011-04-24T08:18:08Z</time>
      </trkpt>
      <trkpt lat="42.89104" lon="1.83305">
        <ele>930.69360351562</ele>
        <time>2011-04-24T08:18:12Z</time>
      </trkpt>
      <trkpt lat="42.89101" lon="1.83305">
        <ele>929.73217773438</ele>
        <time>2011-04-24T08:18:13Z</time>
      </trkpt>
      <trkpt lat="42.89092" lon="1.833">
        <ele>925.40625</ele>
        <time>2011-04-24T08:18:17Z</time>
      </trkpt>
      <trkpt lat="42.89083" lon="1.8329">
        <ele>924.92578125</ele>
        <time>2011-04-24T08:18:22Z</time>
      </trkpt>
      <trkpt lat="42.89077" lon="1.83283">
        <ele>923.48364257812</ele>
        <time>2011-04-24T08:18:26Z</time>
      </trkpt>
      <trkpt lat="42.89067" lon="1.83284">
        <ele>922.52221679688</ele>
        <time>2011-04-24T08:18:30Z</time>
      </trkpt>
      <trkpt lat="42.89056" lon="1.83275">
        <ele>922.04150390625</ele>
        <time>2011-04-24T08:18:35Z</time>
      </trkpt>
      <trkpt lat="42.89049" lon="1.83268">
        <ele>921.56079101562</ele>
        <time>2011-04-24T08:18:40Z</time>
      </trkpt>
      <trkpt lat="42.89048" lon="1.83266">
        <ele>921.08032226562</ele>
        <time>2011-04-24T08:18:41Z</time>
      </trkpt>
      <trkpt lat="42.89037" lon="1.83254">
        <ele>917.23510742188</ele>
        <time>2011-04-24T08:18:47Z</time>
      </trkpt>
      <trkpt lat="42.8903" lon="1.83246">
        <ele>914.83178710938</ele>
        <time>2011-04-24T08:18:51Z</time>
      </trkpt>
      <trkpt lat="42.89019" lon="1.83234">
        <ele>910.505859375</ele>
        <time>2011-04-24T08:18:57Z</time>
      </trkpt>
      <trkpt lat="42.89011" lon="1.83226">
        <ele>909.06396484375</ele>
        <time>2011-04-24T08:19:01Z</time>
      </trkpt>
      <trkpt lat="42.89" lon="1.83225">
        <ele>908.58325195312</ele>
        <time>2011-04-24T08:19:05Z</time>
      </trkpt>
      <trkpt lat="42.88983" lon="1.83221">
        <ele>911.94799804688</ele>
        <time>2011-04-24T08:19:11Z</time>
      </trkpt>
      <trkpt lat="42.88971" lon="1.83224">
        <ele>914.83178710938</ele>
        <time>2011-04-24T08:19:17Z</time>
      </trkpt>
      <trkpt lat="42.8897" lon="1.83225">
        <ele>915.3125</ele>
        <time>2011-04-24T08:19:19Z</time>
      </trkpt>
      <trkpt lat="42.8896" lon="1.83222">
        <ele>916.27368164062</ele>
        <time>2011-04-24T08:19:24Z</time>
      </trkpt>
      <trkpt lat="42.88945" lon="1.83218">
        <ele>918.1962890625</ele>
        <time>2011-04-24T08:19:30Z</time>
      </trkpt>
      <trkpt lat="42.8893" lon="1.83215">
        <ele>919.63842773438</ele>
        <time>2011-04-24T08:19:36Z</time>
      </trkpt>
      <trkpt lat="42.88918" lon="1.83215">
        <ele>921.08032226562</ele>
        <time>2011-04-24T08:19:41Z</time>
      </trkpt>
      <trkpt lat="42.88905" lon="1.83212">
        <ele>922.04150390625</ele>
        <time>2011-04-24T08:19:47Z</time>
      </trkpt>
      <trkpt lat="42.88902" lon="1.83212">
        <ele>922.04150390625</ele>
        <time>2011-04-24T08:19:48Z</time>
      </trkpt>
      <trkpt lat="42.88888" lon="1.8321">
        <ele>922.52221679688</ele>
        <time>2011-04-24T08:19:54Z</time>
      </trkpt>
      <trkpt lat="42.88877" lon="1.83209">
        <ele>923.96411132812</ele>
        <time>2011-04-24T08:19:59Z</time>
      </trkpt>
      <trkpt lat="42.88869" lon="1.83206">
        <ele>924.44506835938</ele>
        <time>2011-04-24T08:20:03Z</time>
      </trkpt>
      <trkpt lat="42.88867" lon="1.83205">
        <ele>923.96411132812</ele>
        <time>2011-04-24T08:20:07Z</time>
      </trkpt>
      <trkpt lat="42.88856" lon="1.83207">
        <ele>925.88696289062</ele>
        <time>2011-04-24T08:20:12Z</time>
      </trkpt>
      <trkpt lat="42.8885" lon="1.83208">
        <ele>926.84838867188</ele>
        <time>2011-04-24T08:20:14Z</time>
      </trkpt>
      <trkpt lat="42.88833" lon="1.83211">
        <ele>925.40625</ele>
        <time>2011-04-24T08:20:21Z</time>
      </trkpt>
      <trkpt lat="42.88824" lon="1.83214">
        <ele>923.96411132812</ele>
        <time>2011-04-24T08:20:25Z</time>
      </trkpt>
      <trkpt lat="42.88808" lon="1.83214">
        <ele>921.08032226562</ele>
        <time>2011-04-24T08:20:31Z</time>
      </trkpt>
      <trkpt lat="42.888" lon="1.8321">
        <ele>917.71557617188</ele>
        <time>2011-04-24T08:20:35Z</time>
      </trkpt>
      <trkpt lat="42.88791" lon="1.832">
        <ele>913.87036132812</ele>
        <time>2011-04-24T08:20:40Z</time>
      </trkpt>
      <trkpt lat="42.88785" lon="1.83193">
        <ele>913.38989257812</ele>
        <time>2011-04-24T08:20:43Z</time>
      </trkpt>
      <trkpt lat="42.88783" lon="1.83192">
        <ele>912.9091796875</ele>
        <time>2011-04-24T08:20:44Z</time>
      </trkpt>
      <trkpt lat="42.8877" lon="1.83178">
        <ele>910.505859375</ele>
        <time>2011-04-24T08:20:50Z</time>
      </trkpt>
      <trkpt lat="42.88761" lon="1.83169">
        <ele>910.02514648438</ele>
        <time>2011-04-24T08:20:54Z</time>
      </trkpt>
      <trkpt lat="42.88752" lon="1.8316">
        <ele>907.14111328125</ele>
        <time>2011-04-24T08:20:59Z</time>
      </trkpt>
      <trkpt lat="42.88751" lon="1.83158">
        <ele>906.1796875</ele>
        <time>2011-04-24T08:21:00Z</time>
      </trkpt>
      <trkpt lat="42.88735" lon="1.83146">
        <ele>903.2958984375</ele>
        <time>2011-04-24T08:21:06Z</time>
      </trkpt>
      <trkpt lat="42.88729" lon="1.83132">
        <ele>898.96997070312</ele>
        <time>2011-04-24T08:21:10Z</time>
      </trkpt>
      <trkpt lat="42.8872" lon="1.83115">
        <ele>894.64404296875</ele>
        <time>2011-04-24T08:21:15Z</time>
      </trkpt>
      <trkpt lat="42.88713" lon="1.831">
        <ele>891.279296875</ele>
        <time>2011-04-24T08:21:20Z</time>
      </trkpt>
      <trkpt lat="42.88707" lon="1.83091">
        <ele>888.87622070312</ele>
        <time>2011-04-24T08:21:23Z</time>
      </trkpt>
      <trkpt lat="42.88697" lon="1.83075">
        <ele>885.51147460938</ele>
        <time>2011-04-24T08:21:28Z</time>
      </trkpt>
      <trkpt lat="42.88688" lon="1.83066">
        <ele>883.5888671875</ele>
        <time>2011-04-24T08:21:32Z</time>
      </trkpt>
      <trkpt lat="42.88677" lon="1.83062">
        <ele>883.10815429688</ele>
        <time>2011-04-24T08:21:36Z</time>
      </trkpt>
      <trkpt lat="42.88667" lon="1.83066">
        <ele>880.705078125</ele>
        <time>2011-04-24T08:21:40Z</time>
      </trkpt>
      <trkpt lat="42.88654" lon="1.83074">
        <ele>878.3017578125</ele>
        <time>2011-04-24T08:21:45Z</time>
      </trkpt>
      <trkpt lat="42.88649" lon="1.83078">
        <ele>877.34057617188</ele>
        <time>2011-04-24T08:21:47Z</time>
      </trkpt>
      <trkpt lat="42.88629" lon="1.83084">
        <ele>875.41748046875</ele>
        <time>2011-04-24T08:21:53Z</time>
      </trkpt>
      <trkpt lat="42.88612" lon="1.83085">
        <ele>873.4951171875</ele>
        <time>2011-04-24T08:21:58Z</time>
      </trkpt>
      <trkpt lat="42.88607" lon="1.83084">
        <ele>872.05297851562</ele>
        <time>2011-04-24T08:22:00Z</time>
      </trkpt>
      <trkpt lat="42.88589" lon="1.83083">
        <ele>870.13037109375</ele>
        <time>2011-04-24T08:22:06Z</time>
      </trkpt>
      <trkpt lat="42.88577" lon="1.83089">
        <ele>869.16918945312</ele>
        <time>2011-04-24T08:22:10Z</time>
      </trkpt>
      <trkpt lat="42.88566" lon="1.83096">
        <ele>869.64990234375</ele>
        <time>2011-04-24T08:22:14Z</time>
      </trkpt>
      <trkpt lat="42.88551" lon="1.83101">
        <ele>870.13037109375</ele>
        <time>2011-04-24T08:22:20Z</time>
      </trkpt>
      <trkpt lat="42.88535" lon="1.83102">
        <ele>870.61108398438</ele>
        <time>2011-04-24T08:22:26Z</time>
      </trkpt>
      <trkpt lat="42.88533" lon="1.83102">
        <ele>870.61108398438</ele>
        <time>2011-04-24T08:22:27Z</time>
      </trkpt>
      <trkpt lat="42.88525" lon="1.83104">
        <ele>871.572265625</ele>
        <time>2011-04-24T08:22:32Z</time>
      </trkpt>
      <trkpt lat="42.8852" lon="1.83108">
        <ele>873.9755859375</ele>
        <time>2011-04-24T08:22:35Z</time>
      </trkpt>
      <trkpt lat="42.88512" lon="1.83108">
        <ele>875.41748046875</ele>
        <time>2011-04-24T08:22:40Z</time>
      </trkpt>
      <trkpt lat="42.88507" lon="1.83107">
        <ele>876.37915039062</ele>
        <time>2011-04-24T08:22:42Z</time>
      </trkpt>
      <trkpt lat="42.88499" lon="1.83102">
        <ele>877.34057617188</ele>
        <time>2011-04-24T08:22:46Z</time>
      </trkpt>
      <trkpt lat="42.88485" lon="1.83094">
        <ele>883.10815429688</ele>
        <time>2011-04-24T08:22:52Z</time>
      </trkpt>
      <trkpt lat="42.88477" lon="1.83091">
        <ele>888.3955078125</ele>
        <time>2011-04-24T08:22:57Z</time>
      </trkpt>
      <trkpt lat="42.88474" lon="1.83091">
        <ele>889.35668945312</ele>
        <time>2011-04-24T08:22:59Z</time>
      </trkpt>
      <trkpt lat="42.88465" lon="1.83091">
        <ele>891.279296875</ele>
        <time>2011-04-24T08:23:04Z</time>
      </trkpt>
      <trkpt lat="42.88463" lon="1.8309">
        <ele>892.7216796875</ele>
        <time>2011-04-24T08:23:07Z</time>
      </trkpt>
      <trkpt lat="42.88453" lon="1.83091">
        <ele>893.68286132812</ele>
        <time>2011-04-24T08:23:12Z</time>
      </trkpt>
      <trkpt lat="42.88448" lon="1.83087">
        <ele>894.16357421875</ele>
        <time>2011-04-24T08:23:15Z</time>
      </trkpt>
      <trkpt lat="42.88442" lon="1.83084">
        <ele>896.08618164062</ele>
        <time>2011-04-24T08:23:19Z</time>
      </trkpt>
      <trkpt lat="42.88436" lon="1.83082">
        <ele>897.52807617188</ele>
        <time>2011-04-24T08:23:24Z</time>
      </trkpt>
      <trkpt lat="42.88432" lon="1.8308">
        <ele>899.93139648438</ele>
        <time>2011-04-24T08:23:28Z</time>
      </trkpt>
      <trkpt lat="42.88423" lon="1.83077">
        <ele>896.56689453125</ele>
        <time>2011-04-24T08:23:33Z</time>
      </trkpt>
      <trkpt lat="42.88417" lon="1.83074">
        <ele>896.56689453125</ele>
        <time>2011-04-24T08:23:36Z</time>
      </trkpt>
      <trkpt lat="42.88408" lon="1.8307">
        <ele>893.68286132812</ele>
        <time>2011-04-24T08:23:42Z</time>
      </trkpt>
      <trkpt lat="42.884" lon="1.83062">
        <ele>894.16357421875</ele>
        <time>2011-04-24T08:23:47Z</time>
      </trkpt>
      <trkpt lat="42.8839" lon="1.83056">
        <ele>893.2021484375</ele>
        <time>2011-04-24T08:23:52Z</time>
      </trkpt>
      <trkpt lat="42.88382" lon="1.83048">
        <ele>893.2021484375</ele>
        <time>2011-04-24T08:23:57Z</time>
      </trkpt>
      <trkpt lat="42.88375" lon="1.83046">
        <ele>894.64404296875</ele>
        <time>2011-04-24T08:24:00Z</time>
      </trkpt>
      <trkpt lat="42.88367" lon="1.83046">
        <ele>895.60546875</ele>
        <time>2011-04-24T08:24:04Z</time>
      </trkpt>
      <trkpt lat="42.88357" lon="1.83047">
        <ele>895.12475585938</ele>
        <time>2011-04-24T08:24:10Z</time>
      </trkpt>
      <trkpt lat="42.88353" lon="1.83045">
        <ele>894.64404296875</ele>
        <time>2011-04-24T08:24:13Z</time>
      </trkpt>
      <trkpt lat="42.88347" lon="1.83046">
        <ele>895.60546875</ele>
        <time>2011-04-24T08:24:16Z</time>
      </trkpt>
      <trkpt lat="42.88335" lon="1.83046">
        <ele>897.04736328125</ele>
        <time>2011-04-24T08:24:22Z</time>
      </trkpt>
      <trkpt lat="42.88329" lon="1.83043">
        <ele>897.04736328125</ele>
        <time>2011-04-24T08:24:25Z</time>
      </trkpt>
      <trkpt lat="42.88319" lon="1.83028">
        <ele>894.16357421875</ele>
        <time>2011-04-24T08:24:32Z</time>
      </trkpt>
      <trkpt lat="42.88311" lon="1.83016">
        <ele>891.279296875</ele>
        <time>2011-04-24T08:24:37Z</time>
      </trkpt>
      <trkpt lat="42.8831" lon="1.83013">
        <ele>890.31811523438</ele>
        <time>2011-04-24T08:24:38Z</time>
      </trkpt>
      <trkpt lat="42.88307" lon="1.82997">
        <ele>885.51147460938</ele>
        <time>2011-04-24T08:24:44Z</time>
      </trkpt>
      <trkpt lat="42.88306" lon="1.82985">
        <ele>882.62768554688</ele>
        <time>2011-04-24T08:24:49Z</time>
      </trkpt>
      <trkpt lat="42.88302" lon="1.82971">
        <ele>881.18579101562</ele>
        <time>2011-04-24T08:24:54Z</time>
      </trkpt>
      <trkpt lat="42.88302" lon="1.82958">
        <ele>878.3017578125</ele>
        <time>2011-04-24T08:24:59Z</time>
      </trkpt>
      <trkpt lat="42.883" lon="1.82952">
        <ele>878.3017578125</ele>
        <time>2011-04-24T08:25:03Z</time>
      </trkpt>
      <trkpt lat="42.88299" lon="1.82946">
        <ele>875.89819335938</ele>
        <time>2011-04-24T08:25:07Z</time>
      </trkpt>
      <trkpt lat="42.88296" lon="1.82933">
        <ele>873.9755859375</ele>
        <time>2011-04-24T08:25:16Z</time>
      </trkpt>
      <trkpt lat="42.88292" lon="1.82928">
        <ele>874.45629882812</ele>
        <time>2011-04-24T08:25:20Z</time>
      </trkpt>
      <trkpt lat="42.88284" lon="1.82919">
        <ele>884.06958007812</ele>
        <time>2011-04-24T08:25:27Z</time>
      </trkpt>
      <trkpt lat="42.88278" lon="1.82911">
        <ele>889.35668945312</ele>
        <time>2011-04-24T08:25:34Z</time>
      </trkpt>
      <trkpt lat="42.88277" lon="1.82911">
        <ele>890.31811523438</ele>
        <time>2011-04-24T08:25:35Z</time>
      </trkpt>
      <trkpt lat="42.88272" lon="1.82903">
        <ele>894.64404296875</ele>
        <time>2011-04-24T08:25:42Z</time>
      </trkpt>
      <trkpt lat="42.88272" lon="1.82899">
        <ele>896.08618164062</ele>
        <time>2011-04-24T08:25:44Z</time>
      </trkpt>
      <trkpt lat="42.88266" lon="1.8289">
        <ele>901.37329101562</ele>
        <time>2011-04-24T08:25:50Z</time>
      </trkpt>
      <trkpt lat="42.88263" lon="1.82887">
        <ele>902.33447265625</ele>
        <time>2011-04-24T08:25:53Z</time>
      </trkpt>
      <trkpt lat="42.88252" lon="1.82876">
        <ele>910.98657226562</ele>
        <time>2011-04-24T08:26:00Z</time>
      </trkpt>
      <trkpt lat="42.88246" lon="1.82876">
        <ele>917.23510742188</ele>
        <time>2011-04-24T08:26:03Z</time>
      </trkpt>
      <trkpt lat="42.88236" lon="1.82873">
        <ele>927.3291015625</ele>
        <time>2011-04-24T08:26:09Z</time>
      </trkpt>
      <trkpt lat="42.88229" lon="1.82873">
        <ele>931.65478515625</ele>
        <time>2011-04-24T08:26:14Z</time>
      </trkpt>
      <trkpt lat="42.88223" lon="1.8287">
        <ele>933.57739257812</ele>
        <time>2011-04-24T08:26:17Z</time>
      </trkpt>
      <trkpt lat="42.8822" lon="1.82869">
        <ele>935.98071289062</ele>
        <time>2011-04-24T08:26:21Z</time>
      </trkpt>
      <trkpt lat="42.88216" lon="1.82866">
        <ele>934.05810546875</ele>
        <time>2011-04-24T08:26:25Z</time>
      </trkpt>
      <trkpt lat="42.88212" lon="1.82862">
        <ele>932.13549804688</ele>
        <time>2011-04-24T08:26:31Z</time>
      </trkpt>
      <trkpt lat="42.88206" lon="1.82858">
        <ele>930.69360351562</ele>
        <time>2011-04-24T08:26:38Z</time>
      </trkpt>
      <trkpt lat="42.88202" lon="1.82857">
        <ele>928.77099609375</ele>
        <time>2011-04-24T08:26:44Z</time>
      </trkpt>
      <trkpt lat="42.882" lon="1.82857">
        <ele>928.77099609375</ele>
        <time>2011-04-24T08:26:46Z</time>
      </trkpt>
      <trkpt lat="42.88191" lon="1.82854">
        <ele>930.212890625</ele>
        <time>2011-04-24T08:26:54Z</time>
      </trkpt>
      <trkpt lat="42.88185" lon="1.82853">
        <ele>931.65478515625</ele>
        <time>2011-04-24T08:27:01Z</time>
      </trkpt>
      <trkpt lat="42.88181" lon="1.82855">
        <ele>932.6162109375</ele>
        <time>2011-04-24T08:27:05Z</time>
      </trkpt>
      <trkpt lat="42.88175" lon="1.82854">
        <ele>931.17431640625</ele>
        <time>2011-04-24T08:27:11Z</time>
      </trkpt>
      <trkpt lat="42.88174" lon="1.82854">
        <ele>931.17431640625</ele>
        <time>2011-04-24T08:27:12Z</time>
      </trkpt>
      <trkpt lat="42.88172" lon="1.82854">
        <ele>929.25146484375</ele>
        <time>2011-04-24T08:27:14Z</time>
      </trkpt>
      <trkpt lat="42.88166" lon="1.82851">
        <ele>931.17431640625</ele>
        <time>2011-04-24T08:27:20Z</time>
      </trkpt>
      <trkpt lat="42.88157" lon="1.82849">
        <ele>934.05810546875</ele>
        <time>2011-04-24T08:27:25Z</time>
      </trkpt>
      <trkpt lat="42.88145" lon="1.82845">
        <ele>938.86474609375</ele>
        <time>2011-04-24T08:27:31Z</time>
      </trkpt>
      <trkpt lat="42.88131" lon="1.8284">
        <ele>945.59399414062</ele>
        <time>2011-04-24T08:27:36Z</time>
      </trkpt>
      <trkpt lat="42.88123" lon="1.82837">
        <ele>945.59399414062</ele>
        <time>2011-04-24T08:27:41Z</time>
      </trkpt>
      <trkpt lat="42.88121" lon="1.82835">
        <ele>947.03588867188</ele>
        <time>2011-04-24T08:27:43Z</time>
      </trkpt>
      <trkpt lat="42.88111" lon="1.82834">
        <ele>949.43920898438</ele>
        <time>2011-04-24T08:27:48Z</time>
      </trkpt>
      <trkpt lat="42.88101" lon="1.82832">
        <ele>950.40063476562</ele>
        <time>2011-04-24T08:27:52Z</time>
      </trkpt>
      <trkpt lat="42.88091" lon="1.82829">
        <ele>949.43920898438</ele>
        <time>2011-04-24T08:27:57Z</time>
      </trkpt>
      <trkpt lat="42.88089" lon="1.82829">
        <ele>949.43920898438</ele>
        <time>2011-04-24T08:27:58Z</time>
      </trkpt>
      <trkpt lat="42.8808" lon="1.82829">
        <ele>948.47778320312</ele>
        <time>2011-04-24T08:28:02Z</time>
      </trkpt>
      <trkpt lat="42.88072" lon="1.82828">
        <ele>945.59399414062</ele>
        <time>2011-04-24T08:28:08Z</time>
      </trkpt>
      <trkpt lat="42.88068" lon="1.82826">
        <ele>944.15209960938</ele>
        <time>2011-04-24T08:28:12Z</time>
      </trkpt>
      <trkpt lat="42.8806" lon="1.82826">
        <ele>944.63256835938</ele>
        <time>2011-04-24T08:28:18Z</time>
      </trkpt>
      <trkpt lat="42.88054" lon="1.82825">
        <ele>944.63256835938</ele>
        <time>2011-04-24T08:28:23Z</time>
      </trkpt>
      <trkpt lat="42.88047" lon="1.82823">
        <ele>943.67138671875</ele>
        <time>2011-04-24T08:28:30Z</time>
      </trkpt>
      <trkpt lat="42.88042" lon="1.82824">
        <ele>944.63256835938</ele>
        <time>2011-04-24T08:28:34Z</time>
      </trkpt>
      <trkpt lat="42.88039" lon="1.82821">
        <ele>943.67138671875</ele>
        <time>2011-04-24T08:28:37Z</time>
      </trkpt>
      <trkpt lat="42.88034" lon="1.82815">
        <ele>941.26806640625</ele>
        <time>2011-04-24T08:28:43Z</time>
      </trkpt>
      <trkpt lat="42.88031" lon="1.82813">
        <ele>942.71020507812</ele>
        <time>2011-04-24T08:28:46Z</time>
      </trkpt>
      <trkpt lat="42.88026" lon="1.82806">
        <ele>942.2294921875</ele>
        <time>2011-04-24T08:28:52Z</time>
      </trkpt>
      <trkpt lat="42.88024" lon="1.82804">
        <ele>941.26806640625</ele>
        <time>2011-04-24T08:28:54Z</time>
      </trkpt>
      <trkpt lat="42.88012" lon="1.82793">
        <ele>939.82592773438</ele>
        <time>2011-04-24T08:29:00Z</time>
      </trkpt>
      <trkpt lat="42.88007" lon="1.82783">
        <ele>941.26806640625</ele>
        <time>2011-04-24T08:29:04Z</time>
      </trkpt>
      <trkpt lat="42.88001" lon="1.82772">
        <ele>941.74877929688</ele>
        <time>2011-04-24T08:29:08Z</time>
      </trkpt>
      <trkpt lat="42.87998" lon="1.82769">
        <ele>942.2294921875</ele>
        <time>2011-04-24T08:29:10Z</time>
      </trkpt>
      <trkpt lat="42.87993" lon="1.82759">
        <ele>941.26806640625</ele>
        <time>2011-04-24T08:29:15Z</time>
      </trkpt>
      <trkpt lat="42.87984" lon="1.82746">
        <ele>940.78735351562</ele>
        <time>2011-04-24T08:29:21Z</time>
      </trkpt>
      <trkpt lat="42.87982" lon="1.82741">
        <ele>940.30688476562</ele>
        <time>2011-04-24T08:29:23Z</time>
      </trkpt>
      <trkpt lat="42.87976" lon="1.8273">
        <ele>938.38403320312</ele>
        <time>2011-04-24T08:29:27Z</time>
      </trkpt>
      <trkpt lat="42.87966" lon="1.82715">
        <ele>937.9033203125</ele>
        <time>2011-04-24T08:29:33Z</time>
      </trkpt>
      <trkpt lat="42.8796" lon="1.82703">
        <ele>934.53881835938</ele>
        <time>2011-04-24T08:29:37Z</time>
      </trkpt>
      <trkpt lat="42.87953" lon="1.82688">
        <ele>933.57739257812</ele>
        <time>2011-04-24T08:29:41Z</time>
      </trkpt>
      <trkpt lat="42.8795" lon="1.82671">
        <ele>929.73217773438</ele>
        <time>2011-04-24T08:29:46Z</time>
      </trkpt>
      <trkpt lat="42.87947" lon="1.82665">
        <ele>928.29028320312</ele>
        <time>2011-04-24T08:29:49Z</time>
      </trkpt>
      <trkpt lat="42.87943" lon="1.82659">
        <ele>926.36767578125</ele>
        <time>2011-04-24T08:29:54Z</time>
      </trkpt>
      <trkpt lat="42.87941" lon="1.8265">
        <ele>923.48364257812</ele>
        <time>2011-04-24T08:29:58Z</time>
      </trkpt>
      <trkpt lat="42.87935" lon="1.82641">
        <ele>922.52221679688</ele>
        <time>2011-04-24T08:30:02Z</time>
      </trkpt>
      <trkpt lat="42.87926" lon="1.82621">
        <ele>922.52221679688</ele>
        <time>2011-04-24T08:30:08Z</time>
      </trkpt>
      <trkpt lat="42.87922" lon="1.8261">
        <ele>922.04150390625</ele>
        <time>2011-04-24T08:30:12Z</time>
      </trkpt>
      <trkpt lat="42.87912" lon="1.82598">
        <ele>923.48364257812</ele>
        <time>2011-04-24T08:30:17Z</time>
      </trkpt>
      <trkpt lat="42.87904" lon="1.82586">
        <ele>926.36767578125</ele>
        <time>2011-04-24T08:30:21Z</time>
      </trkpt>
      <trkpt lat="42.87903" lon="1.82584">
        <ele>926.84838867188</ele>
        <time>2011-04-24T08:30:22Z</time>
      </trkpt>
      <trkpt lat="42.87892" lon="1.82573">
        <ele>932.13549804688</ele>
        <time>2011-04-24T08:30:27Z</time>
      </trkpt>
      <trkpt lat="42.8788" lon="1.82573">
        <ele>940.78735351562</ele>
        <time>2011-04-24T08:30:33Z</time>
      </trkpt>
      <trkpt lat="42.87872" lon="1.82573">
        <ele>945.59399414062</ele>
        <time>2011-04-24T08:30:36Z</time>
      </trkpt>
      <trkpt lat="42.87864" lon="1.82572">
        <ele>948.95849609375</ele>
        <time>2011-04-24T08:30:40Z</time>
      </trkpt>
      <trkpt lat="42.8786" lon="1.82572">
        <ele>949.43920898438</ele>
        <time>2011-04-24T08:30:42Z</time>
      </trkpt>
      <trkpt lat="42.87856" lon="1.82576">
        <ele>951.36181640625</ele>
        <time>2011-04-24T08:30:47Z</time>
      </trkpt>
      <trkpt lat="42.87852" lon="1.82579">
        <ele>953.76513671875</ele>
        <time>2011-04-24T08:30:52Z</time>
      </trkpt>
      <trkpt lat="42.87848" lon="1.82583">
        <ele>954.24584960938</ele>
        <time>2011-04-24T08:30:56Z</time>
      </trkpt>
      <trkpt lat="42.87844" lon="1.82588">
        <ele>953.76513671875</ele>
        <time>2011-04-24T08:31:02Z</time>
      </trkpt>
      <trkpt lat="42.8784" lon="1.82596">
        <ele>953.76513671875</ele>
        <time>2011-04-24T08:31:09Z</time>
      </trkpt>
      <trkpt lat="42.87838" lon="1.82597">
        <ele>953.76513671875</ele>
        <time>2011-04-24T08:31:11Z</time>
      </trkpt>
      <trkpt lat="42.87834" lon="1.82601">
        <ele>953.28442382812</ele>
        <time>2011-04-24T08:31:15Z</time>
      </trkpt>
      <trkpt lat="42.87828" lon="1.82603">
        <ele>953.28442382812</ele>
        <time>2011-04-24T08:31:23Z</time>
      </trkpt>
      <trkpt lat="42.87826" lon="1.82603">
        <ele>954.72631835938</ele>
        <time>2011-04-24T08:31:28Z</time>
      </trkpt>
      <trkpt lat="42.87823" lon="1.82605">
        <ele>955.20703125</ele>
        <time>2011-04-24T08:31:33Z</time>
      </trkpt>
      <trkpt lat="42.87818" lon="1.82607">
        <ele>955.20703125</ele>
        <time>2011-04-24T08:31:38Z</time>
      </trkpt>
      <trkpt lat="42.87816" lon="1.82609">
        <ele>955.68774414062</ele>
        <time>2011-04-24T08:31:47Z</time>
      </trkpt>
      <trkpt lat="42.87813" lon="1.82612">
        <ele>955.68774414062</ele>
        <time>2011-04-24T08:31:50Z</time>
      </trkpt>
      <trkpt lat="42.87807" lon="1.82623">
        <ele>955.20703125</ele>
        <time>2011-04-24T08:31:55Z</time>
      </trkpt>
      <trkpt lat="42.87805" lon="1.82627">
        <ele>955.68774414062</ele>
        <time>2011-04-24T08:31:57Z</time>
      </trkpt>
      <trkpt lat="42.87797" lon="1.82641">
        <ele>957.61059570312</ele>
        <time>2011-04-24T08:32:03Z</time>
      </trkpt>
      <trkpt lat="42.87789" lon="1.8265">
        <ele>957.61059570312</ele>
        <time>2011-04-24T08:32:07Z</time>
      </trkpt>
      <trkpt lat="42.87779" lon="1.82657">
        <ele>956.64916992188</ele>
        <time>2011-04-24T08:32:12Z</time>
      </trkpt>
      <trkpt lat="42.87769" lon="1.82669">
        <ele>956.64916992188</ele>
        <time>2011-04-24T08:32:18Z</time>
      </trkpt>
      <trkpt lat="42.8776" lon="1.82679">
        <ele>955.68774414062</ele>
        <time>2011-04-24T08:32:22Z</time>
      </trkpt>
      <trkpt lat="42.87759" lon="1.82682">
        <ele>955.68774414062</ele>
        <time>2011-04-24T08:32:23Z</time>
      </trkpt>
      <trkpt lat="42.87755" lon="1.82689">
        <ele>956.64916992188</ele>
        <time>2011-04-24T08:32:27Z</time>
      </trkpt>
      <trkpt lat="42.87748" lon="1.82699">
        <ele>957.1298828125</ele>
        <time>2011-04-24T08:32:32Z</time>
      </trkpt>
      <trkpt lat="42.87748" lon="1.82707">
        <ele>958.57177734375</ele>
        <time>2011-04-24T08:32:35Z</time>
      </trkpt>
      <trkpt lat="42.87747" lon="1.82709">
        <ele>960.013671875</ele>
        <time>2011-04-24T08:32:37Z</time>
      </trkpt>
      <trkpt lat="42.87741" lon="1.82723">
        <ele>964.33959960938</ele>
        <time>2011-04-24T08:32:42Z</time>
      </trkpt>
      <trkpt lat="42.87735" lon="1.82741">
        <ele>972.0302734375</ele>
        <time>2011-04-24T08:32:47Z</time>
      </trkpt>
      <trkpt lat="42.87728" lon="1.82744">
        <ele>973.95288085938</ele>
        <time>2011-04-24T08:32:51Z</time>
      </trkpt>
      <trkpt lat="42.8772" lon="1.82744">
        <ele>973.47241210938</ele>
        <time>2011-04-24T08:32:58Z</time>
      </trkpt>
      <trkpt lat="42.87712" lon="1.82742">
        <ele>974.91430664062</ele>
        <time>2011-04-24T08:33:04Z</time>
      </trkpt>
      <trkpt lat="42.87709" lon="1.82744">
        <ele>976.35620117188</ele>
        <time>2011-04-24T08:33:06Z</time>
      </trkpt>
      <trkpt lat="42.87703" lon="1.82754">
        <ele>977.31762695312</ele>
        <time>2011-04-24T08:33:12Z</time>
      </trkpt>
      <trkpt lat="42.877" lon="1.82757">
        <ele>975.39477539062</ele>
        <time>2011-04-24T08:33:17Z</time>
      </trkpt>
      <trkpt lat="42.877" lon="1.82767">
        <ele>974.91430664062</ele>
        <time>2011-04-24T08:33:25Z</time>
      </trkpt>
      <trkpt lat="42.87698" lon="1.82788">
        <ele>975.39477539062</ele>
        <time>2011-04-24T08:33:31Z</time>
      </trkpt>
      <trkpt lat="42.87702" lon="1.82791">
        <ele>973.47241210938</ele>
        <time>2011-04-24T08:33:35Z</time>
      </trkpt>
      <trkpt lat="42.87706" lon="1.82801">
        <ele>975.39477539062</ele>
        <time>2011-04-24T08:33:42Z</time>
      </trkpt>
      <trkpt lat="42.87707" lon="1.82806">
        <ele>976.8369140625</ele>
        <time>2011-04-24T08:33:46Z</time>
      </trkpt>
      <trkpt lat="42.87709" lon="1.82811">
        <ele>978.27880859375</ele>
        <time>2011-04-24T08:33:52Z</time>
      </trkpt>
      <trkpt lat="42.8771" lon="1.82818">
        <ele>980.20141601562</ele>
        <time>2011-04-24T08:33:58Z</time>
      </trkpt>
      <trkpt lat="42.87714" lon="1.82827">
        <ele>983.08520507812</ele>
        <time>2011-04-24T08:34:06Z</time>
      </trkpt>
      <trkpt lat="42.87712" lon="1.82829">
        <ele>982.60473632812</ele>
        <time>2011-04-24T08:34:10Z</time>
      </trkpt>
      <trkpt lat="42.87708" lon="1.82826">
        <ele>979.720703125</ele>
        <time>2011-04-24T08:34:17Z</time>
      </trkpt>
      <trkpt lat="42.87702" lon="1.82823">
        <ele>978.27880859375</ele>
        <time>2011-04-24T08:34:25Z</time>
      </trkpt>
      <trkpt lat="42.87695" lon="1.8282">
        <ele>977.79809570312</ele>
        <time>2011-04-24T08:34:32Z</time>
      </trkpt>
      <trkpt lat="42.87691" lon="1.82816">
        <ele>975.39477539062</ele>
        <time>2011-04-24T08:34:37Z</time>
      </trkpt>
      <trkpt lat="42.87688" lon="1.82811">
        <ele>973.47241210938</ele>
        <time>2011-04-24T08:34:43Z</time>
      </trkpt>
      <trkpt lat="42.87685" lon="1.82807">
        <ele>972.51098632812</ele>
        <time>2011-04-24T08:34:47Z</time>
      </trkpt>
      <trkpt lat="42.87683" lon="1.82802">
        <ele>971.06884765625</ele>
        <time>2011-04-24T08:34:52Z</time>
      </trkpt>
      <trkpt lat="42.87679" lon="1.82799">
        <ele>970.58813476562</ele>
        <time>2011-04-24T08:34:57Z</time>
      </trkpt>
      <trkpt lat="42.87672" lon="1.82797">
        <ele>971.54931640625</ele>
        <time>2011-04-24T08:35:03Z</time>
      </trkpt>
      <trkpt lat="42.87665" lon="1.82791">
        <ele>972.0302734375</ele>
        <time>2011-04-24T08:35:09Z</time>
      </trkpt>
      <trkpt lat="42.87659" lon="1.82789">
        <ele>970.58813476562</ele>
        <time>2011-04-24T08:35:12Z</time>
      </trkpt>
      <trkpt lat="42.87652" lon="1.82787">
        <ele>970.107421875</ele>
        <time>2011-04-24T08:35:16Z</time>
      </trkpt>
      <trkpt lat="42.8765" lon="1.82786">
        <ele>971.54931640625</ele>
        <time>2011-04-24T08:35:18Z</time>
      </trkpt>
      <trkpt lat="42.87646" lon="1.82782">
        <ele>978.75952148438</ele>
        <time>2011-04-24T08:35:23Z</time>
      </trkpt>
      <trkpt lat="42.87644" lon="1.8278">
        <ele>988.37280273438</ele>
        <time>2011-04-24T08:35:29Z</time>
      </trkpt>
      <trkpt lat="42.87648" lon="1.82782">
        <ele>997.50512695312</ele>
        <time>2011-04-24T08:35:32Z</time>
      </trkpt>
      <trkpt lat="42.87652" lon="1.82785">
        <ele>1002.7922363281</ele>
        <time>2011-04-24T08:35:37Z</time>
      </trkpt>
      <trkpt lat="42.87654" lon="1.8279">
        <ele>1010.4829101562</ele>
        <time>2011-04-24T08:35:44Z</time>
      </trkpt>
      <trkpt lat="42.87658" lon="1.82798">
        <ele>1012.8862304688</ele>
        <time>2011-04-24T08:35:49Z</time>
      </trkpt>
      <trkpt lat="42.87659" lon="1.82805">
        <ele>1012.4055175781</ele>
        <time>2011-04-24T08:35:55Z</time>
      </trkpt>
      <trkpt lat="42.8766" lon="1.82808">
        <ele>1012.8862304688</ele>
        <time>2011-04-24T08:35:58Z</time>
      </trkpt>
      <trkpt lat="42.87663" lon="1.82815">
        <ele>1012.8862304688</ele>
        <time>2011-04-24T08:36:04Z</time>
      </trkpt>
      <trkpt lat="42.8766" lon="1.82819">
        <ele>1012.4055175781</ele>
        <time>2011-04-24T08:36:08Z</time>
      </trkpt>
      <trkpt lat="42.87654" lon="1.82819">
        <ele>1012.8862304688</ele>
        <time>2011-04-24T08:36:13Z</time>
      </trkpt>
      <trkpt lat="42.8765" lon="1.82818">
        <ele>1014.328125</ele>
        <time>2011-04-24T08:36:18Z</time>
      </trkpt>
      <trkpt lat="42.87647" lon="1.82818">
        <ele>1014.328125</ele>
        <time>2011-04-24T08:36:22Z</time>
      </trkpt>
      <trkpt lat="42.87644" lon="1.82813">
        <ele>1014.8088378906</ele>
        <time>2011-04-24T08:36:27Z</time>
      </trkpt>
      <trkpt lat="42.87641" lon="1.82812">
        <ele>1013.3669433594</ele>
        <time>2011-04-24T08:36:29Z</time>
      </trkpt>
      <trkpt lat="42.87633" lon="1.82812">
        <ele>1010.0021972656</ele>
        <time>2011-04-24T08:36:37Z</time>
      </trkpt>
      <trkpt lat="42.87629" lon="1.82809">
        <ele>1010.4829101562</ele>
        <time>2011-04-24T08:36:42Z</time>
      </trkpt>
      <trkpt lat="42.87623" lon="1.82806">
        <ele>1010.0021972656</ele>
        <time>2011-04-24T08:36:49Z</time>
      </trkpt>
      <trkpt lat="42.87618" lon="1.82805">
        <ele>1009.5217285156</ele>
        <time>2011-04-24T08:36:55Z</time>
      </trkpt>
      <trkpt lat="42.87616" lon="1.82803">
        <ele>1010.0021972656</ele>
        <time>2011-04-24T08:36:57Z</time>
      </trkpt>
      <trkpt lat="42.87609" lon="1.82799">
        <ele>1010.9636230469</ele>
        <time>2011-04-24T08:37:03Z</time>
      </trkpt>
      <trkpt lat="42.87604" lon="1.82798">
        <ele>1010.9636230469</ele>
        <time>2011-04-24T08:37:08Z</time>
      </trkpt>
      <trkpt lat="42.87603" lon="1.82798">
        <ele>1011.4443359375</ele>
        <time>2011-04-24T08:37:10Z</time>
      </trkpt>
      <trkpt lat="42.87595" lon="1.82794">
        <ele>1010.0021972656</ele>
        <time>2011-04-24T08:37:17Z</time>
      </trkpt>
      <trkpt lat="42.87593" lon="1.82793">
        <ele>1010.9636230469</ele>
        <time>2011-04-24T08:37:20Z</time>
      </trkpt>
      <trkpt lat="42.87585" lon="1.82791">
        <ele>1013.3669433594</ele>
        <time>2011-04-24T08:37:27Z</time>
      </trkpt>
      <trkpt lat="42.8758" lon="1.82789">
        <ele>1013.3669433594</ele>
        <time>2011-04-24T08:37:32Z</time>
      </trkpt>
      <trkpt lat="42.87576" lon="1.82787">
        <ele>1014.328125</ele>
        <time>2011-04-24T08:37:35Z</time>
      </trkpt>
      <trkpt lat="42.87574" lon="1.82786">
        <ele>1014.8088378906</ele>
        <time>2011-04-24T08:37:38Z</time>
      </trkpt>
      <trkpt lat="42.87568" lon="1.82788">
        <ele>1015.7702636719</ele>
        <time>2011-04-24T08:37:44Z</time>
      </trkpt>
      <trkpt lat="42.87561" lon="1.82788">
        <ele>1017.6926269531</ele>
        <time>2011-04-24T08:37:51Z</time>
      </trkpt>
      <trkpt lat="42.87558" lon="1.82789">
        <ele>1017.2121582031</ele>
        <time>2011-04-24T08:37:54Z</time>
      </trkpt>
      <trkpt lat="42.87554" lon="1.82787">
        <ele>1019.134765625</ele>
        <time>2011-04-24T08:37:57Z</time>
      </trkpt>
      <trkpt lat="42.87548" lon="1.82786">
        <ele>1020.5769042969</ele>
        <time>2011-04-24T08:38:02Z</time>
      </trkpt>
      <trkpt lat="42.87538" lon="1.82787">
        <ele>1022.9802246094</ele>
        <time>2011-04-24T08:38:11Z</time>
      </trkpt>
      <trkpt lat="42.87535" lon="1.82788">
        <ele>1023.94140625</ele>
        <time>2011-04-24T08:38:13Z</time>
      </trkpt>
      <trkpt lat="42.87527" lon="1.82788">
        <ele>1028.2673339844</ele>
        <time>2011-04-24T08:38:20Z</time>
      </trkpt>
      <trkpt lat="42.87521" lon="1.82787">
        <ele>1029.228515625</ele>
        <time>2011-04-24T08:38:27Z</time>
      </trkpt>
      <trkpt lat="42.87517" lon="1.82787">
        <ele>1030.1899414062</ele>
        <time>2011-04-24T08:38:32Z</time>
      </trkpt>
      <trkpt lat="42.87509" lon="1.82786">
        <ele>1034.5158691406</ele>
        <time>2011-04-24T08:38:39Z</time>
      </trkpt>
      <trkpt lat="42.87508" lon="1.82786">
        <ele>1034.5158691406</ele>
        <time>2011-04-24T08:38:40Z</time>
      </trkpt>
      <trkpt lat="42.875" lon="1.82787">
        <ele>1034.5158691406</ele>
        <time>2011-04-24T08:38:47Z</time>
      </trkpt>
      <trkpt lat="42.87488" lon="1.82791">
        <ele>1037.3999023438</ele>
        <time>2011-04-24T08:38:58Z</time>
      </trkpt>
      <trkpt lat="42.87486" lon="1.82794">
        <ele>1039.3225097656</ele>
        <time>2011-04-24T08:39:04Z</time>
      </trkpt>
      <trkpt lat="42.87485" lon="1.82796">
        <ele>1039.3225097656</ele>
        <time>2011-04-24T08:39:06Z</time>
      </trkpt>
      <trkpt lat="42.87487" lon="1.8281">
        <ele>1038.8420410156</ele>
        <time>2011-04-24T08:39:10Z</time>
      </trkpt>
      <trkpt lat="42.87489" lon="1.82827">
        <ele>1038.8420410156</ele>
        <time>2011-04-24T08:39:15Z</time>
      </trkpt>
      <trkpt lat="42.8749" lon="1.82841">
        <ele>1038.361328125</ele>
        <time>2011-04-24T08:39:19Z</time>
      </trkpt>
      <trkpt lat="42.8749" lon="1.82846">
        <ele>1038.361328125</ele>
        <time>2011-04-24T08:39:21Z</time>
      </trkpt>
      <trkpt lat="42.8749" lon="1.82856">
        <ele>1039.3225097656</ele>
        <time>2011-04-24T08:39:26Z</time>
      </trkpt>
      <trkpt lat="42.87489" lon="1.82862">
        <ele>1040.7644042969</ele>
        <time>2011-04-24T08:39:30Z</time>
      </trkpt>
      <trkpt lat="42.8749" lon="1.82873">
        <ele>1041.7258300781</ele>
        <time>2011-04-24T08:39:38Z</time>
      </trkpt>
      <trkpt lat="42.87492" lon="1.82884">
        <ele>1044.6096191406</ele>
        <time>2011-04-24T08:39:47Z</time>
      </trkpt>
      <trkpt lat="42.87495" lon="1.82892">
        <ele>1046.5324707031</ele>
        <time>2011-04-24T08:39:54Z</time>
      </trkpt>
      <trkpt lat="42.87495" lon="1.82897">
        <ele>1049.4162597656</ele>
        <time>2011-04-24T08:39:59Z</time>
      </trkpt>
      <trkpt lat="42.87498" lon="1.82905">
        <ele>1051.3388671875</ele>
        <time>2011-04-24T08:40:05Z</time>
      </trkpt>
      <trkpt lat="42.87501" lon="1.82913">
        <ele>1053.26171875</ele>
        <time>2011-04-24T08:40:12Z</time>
      </trkpt>
      <trkpt lat="42.87504" lon="1.82916">
        <ele>1054.2231445312</ele>
        <time>2011-04-24T08:40:18Z</time>
      </trkpt>
      <trkpt lat="42.87507" lon="1.82921">
        <ele>1055.6650390625</ele>
        <time>2011-04-24T08:40:23Z</time>
      </trkpt>
      <trkpt lat="42.8751" lon="1.82926">
        <ele>1056.6262207031</ele>
        <time>2011-04-24T08:40:29Z</time>
      </trkpt>
      <trkpt lat="42.87514" lon="1.82929">
        <ele>1059.0295410156</ele>
        <time>2011-04-24T08:40:36Z</time>
      </trkpt>
      <trkpt lat="42.87521" lon="1.82932">
        <ele>1060.4714355469</ele>
        <time>2011-04-24T08:40:44Z</time>
      </trkpt>
      <trkpt lat="42.87526" lon="1.82937">
        <ele>1060.4714355469</ele>
        <time>2011-04-24T08:40:50Z</time>
      </trkpt>
      <trkpt lat="42.87527" lon="1.8294">
        <ele>1063.8359375</ele>
        <time>2011-04-24T08:40:55Z</time>
      </trkpt>
      <trkpt lat="42.87526" lon="1.82943">
        <ele>1064.7973632812</ele>
        <time>2011-04-24T08:40:59Z</time>
      </trkpt>
      <trkpt lat="42.87529" lon="1.82943">
        <ele>1065.2780761719</ele>
        <time>2011-04-24T08:41:04Z</time>
      </trkpt>
      <trkpt lat="42.87535" lon="1.82944">
        <ele>1066.7199707031</ele>
        <time>2011-04-24T08:41:10Z</time>
      </trkpt>
      <trkpt lat="42.87541" lon="1.82945">
        <ele>1070.0847167969</ele>
        <time>2011-04-24T08:41:16Z</time>
      </trkpt>
      <trkpt lat="42.87546" lon="1.82947">
        <ele>1076.3332519531</ele>
        <time>2011-04-24T08:41:22Z</time>
      </trkpt>
      <trkpt lat="42.87554" lon="1.82955">
        <ele>1077.7751464844</ele>
        <time>2011-04-24T08:41:33Z</time>
      </trkpt>
      <trkpt lat="42.87561" lon="1.82959">
        <ele>1077.7751464844</ele>
        <time>2011-04-24T08:41:38Z</time>
      </trkpt>
      <trkpt lat="42.8756" lon="1.82963">
        <ele>1078.255859375</ele>
        <time>2011-04-24T08:41:43Z</time>
      </trkpt>
      <trkpt lat="42.87552" lon="1.82968">
        <ele>1078.255859375</ele>
        <time>2011-04-24T08:41:50Z</time>
      </trkpt>
      <trkpt lat="42.87547" lon="1.8297">
        <ele>1083.54296875</ele>
        <time>2011-04-24T08:41:56Z</time>
      </trkpt>
      <trkpt lat="42.87543" lon="1.82977">
        <ele>1084.9853515625</ele>
        <time>2011-04-24T08:42:03Z</time>
      </trkpt>
      <trkpt lat="42.87536" lon="1.82984">
        <ele>1092.1950683594</ele>
        <time>2011-04-24T08:42:13Z</time>
      </trkpt>
      <trkpt lat="42.87531" lon="1.82988">
        <ele>1094.5981445312</ele>
        <time>2011-04-24T08:42:20Z</time>
      </trkpt>
      <trkpt lat="42.87528" lon="1.82997">
        <ele>1093.15625</ele>
        <time>2011-04-24T08:42:28Z</time>
      </trkpt>
      <trkpt lat="42.87523" lon="1.83003">
        <ele>1095.5595703125</ele>
        <time>2011-04-24T08:42:35Z</time>
      </trkpt>
      <trkpt lat="42.87521" lon="1.8301">
        <ele>1097.4821777344</ele>
        <time>2011-04-24T08:42:43Z</time>
      </trkpt>
      <trkpt lat="42.87521" lon="1.83023">
        <ele>1101.8083496094</ele>
        <time>2011-04-24T08:43:04Z</time>
      </trkpt>
      <trkpt lat="42.87516" lon="1.83027">
        <ele>1101.3276367188</ele>
        <time>2011-04-24T08:43:11Z</time>
      </trkpt>
      <trkpt lat="42.87515" lon="1.83031">
        <ele>1101.8083496094</ele>
        <time>2011-04-24T08:43:15Z</time>
      </trkpt>
      <trkpt lat="42.87511" lon="1.83033">
        <ele>1103.7309570312</ele>
        <time>2011-04-24T08:43:18Z</time>
      </trkpt>
      <trkpt lat="42.87508" lon="1.83042">
        <ele>1104.2116699219</ele>
        <time>2011-04-24T08:43:25Z</time>
      </trkpt>
      <trkpt lat="42.87502" lon="1.83054">
        <ele>1106.6147460938</ele>
        <time>2011-04-24T08:43:40Z</time>
      </trkpt>
      <trkpt lat="42.87498" lon="1.83062">
        <ele>1113.8244628906</ele>
        <time>2011-04-24T08:43:52Z</time>
      </trkpt>
      <trkpt lat="42.87497" lon="1.83065">
        <ele>1114.7858886719</ele>
        <time>2011-04-24T08:43:57Z</time>
      </trkpt>
      <trkpt lat="42.87495" lon="1.83069">
        <ele>1115.2666015625</ele>
        <time>2011-04-24T08:44:01Z</time>
      </trkpt>
      <trkpt lat="42.87493" lon="1.8307">
        <ele>1117.189453125</ele>
        <time>2011-04-24T08:44:03Z</time>
      </trkpt>
      <trkpt lat="42.87491" lon="1.83077">
        <ele>1115.2666015625</ele>
        <time>2011-04-24T08:44:08Z</time>
      </trkpt>
      <trkpt lat="42.87491" lon="1.8308">
        <ele>1112.86328125</ele>
        <time>2011-04-24T08:44:11Z</time>
      </trkpt>
      <trkpt lat="42.87489" lon="1.83084">
        <ele>1112.86328125</ele>
        <time>2011-04-24T08:44:14Z</time>
      </trkpt>
      <trkpt lat="42.87486" lon="1.83086">
        <ele>1113.8244628906</ele>
        <time>2011-04-24T08:44:17Z</time>
      </trkpt>
      <trkpt lat="42.87483" lon="1.83092">
        <ele>1116.7087402344</ele>
        <time>2011-04-24T08:44:24Z</time>
      </trkpt>
      <trkpt lat="42.87482" lon="1.83096">
        <ele>1117.189453125</ele>
        <time>2011-04-24T08:44:30Z</time>
      </trkpt>
      <trkpt lat="42.87481" lon="1.831">
        <ele>1117.669921875</ele>
        <time>2011-04-24T08:44:35Z</time>
      </trkpt>
      <trkpt lat="42.8748" lon="1.83106">
        <ele>1117.669921875</ele>
        <time>2011-04-24T08:44:41Z</time>
      </trkpt>
      <trkpt lat="42.87478" lon="1.83112">
        <ele>1118.1506347656</ele>
        <time>2011-04-24T08:44:47Z</time>
      </trkpt>
      <trkpt lat="42.87475" lon="1.83119">
        <ele>1118.6313476562</ele>
        <time>2011-04-24T08:44:53Z</time>
      </trkpt>
      <trkpt lat="42.87473" lon="1.83127">
        <ele>1120.5539550781</ele>
        <time>2011-04-24T08:44:59Z</time>
      </trkpt>
      <trkpt lat="42.87473" lon="1.83128">
        <ele>1121.0346679688</ele>
        <time>2011-04-24T08:45:00Z</time>
      </trkpt>
      <trkpt lat="42.87473" lon="1.83132">
        <ele>1123.9184570312</ele>
        <time>2011-04-24T08:45:06Z</time>
      </trkpt>
      <trkpt lat="42.87475" lon="1.83132">
        <ele>1125.8410644531</ele>
        <time>2011-04-24T08:45:10Z</time>
      </trkpt>
      <trkpt lat="42.8748" lon="1.83131">
        <ele>1126.3217773438</ele>
        <time>2011-04-24T08:45:16Z</time>
      </trkpt>
      <trkpt lat="42.87483" lon="1.83132">
        <ele>1127.283203125</ele>
        <time>2011-04-24T08:45:21Z</time>
      </trkpt>
      <trkpt lat="42.87486" lon="1.83132">
        <ele>1127.283203125</ele>
        <time>2011-04-24T08:45:27Z</time>
      </trkpt>
      <trkpt lat="42.8749" lon="1.8313">
        <ele>1127.283203125</ele>
        <time>2011-04-24T08:45:32Z</time>
      </trkpt>
      <trkpt lat="42.87493" lon="1.83132">
        <ele>1129.6862792969</ele>
        <time>2011-04-24T08:45:39Z</time>
      </trkpt>
      <trkpt lat="42.87494" lon="1.83134">
        <ele>1130.6477050781</ele>
        <time>2011-04-24T08:45:45Z</time>
      </trkpt>
      <trkpt lat="42.87492" lon="1.8314">
        <ele>1133.5317382812</ele>
        <time>2011-04-24T08:45:54Z</time>
      </trkpt>
      <trkpt lat="42.87494" lon="1.83141">
        <ele>1134.4931640625</ele>
        <time>2011-04-24T08:45:59Z</time>
      </trkpt>
      <trkpt lat="42.87498" lon="1.83139">
        <ele>1134.9738769531</ele>
        <time>2011-04-24T08:46:05Z</time>
      </trkpt>
      <trkpt lat="42.875" lon="1.8314">
        <ele>1137.376953125</ele>
        <time>2011-04-24T08:46:10Z</time>
      </trkpt>
      <trkpt lat="42.87503" lon="1.83139">
        <ele>1139.2995605469</ele>
        <time>2011-04-24T08:46:15Z</time>
      </trkpt>
      <trkpt lat="42.87505" lon="1.8314">
        <ele>1139.7802734375</ele>
        <time>2011-04-24T08:46:19Z</time>
      </trkpt>
      <trkpt lat="42.87506" lon="1.83142">
        <ele>1140.2609863281</ele>
        <time>2011-04-24T08:46:24Z</time>
      </trkpt>
      <trkpt lat="42.87506" lon="1.83147">
        <ele>1141.7028808594</ele>
        <time>2011-04-24T08:46:30Z</time>
      </trkpt>
      <trkpt lat="42.87507" lon="1.8315">
        <ele>1142.18359375</ele>
        <time>2011-04-24T08:46:34Z</time>
      </trkpt>
      <trkpt lat="42.87506" lon="1.83154">
        <ele>1143.6254882812</ele>
        <time>2011-04-24T08:46:39Z</time>
      </trkpt>
      <trkpt lat="42.87505" lon="1.83157">
        <ele>1144.5866699219</ele>
        <time>2011-04-24T08:46:45Z</time>
      </trkpt>
      <trkpt lat="42.87504" lon="1.83163">
        <ele>1146.0288085938</ele>
        <time>2011-04-24T08:46:51Z</time>
      </trkpt>
      <trkpt lat="42.87503" lon="1.83168">
        <ele>1146.9899902344</ele>
        <time>2011-04-24T08:46:58Z</time>
      </trkpt>
      <trkpt lat="42.87501" lon="1.8317">
        <ele>1146.9899902344</ele>
        <time>2011-04-24T08:47:01Z</time>
      </trkpt>
      <trkpt lat="42.87502" lon="1.8318">
        <ele>1146.5095214844</ele>
        <time>2011-04-24T08:47:07Z</time>
      </trkpt>
      <trkpt lat="42.87503" lon="1.83183">
        <ele>1146.9899902344</ele>
        <time>2011-04-24T08:47:09Z</time>
      </trkpt>
      <trkpt lat="42.87504" lon="1.83187">
        <ele>1148.9128417969</ele>
        <time>2011-04-24T08:47:14Z</time>
      </trkpt>
      <trkpt lat="42.87505" lon="1.83192">
        <ele>1150.8354492188</ele>
        <time>2011-04-24T08:47:20Z</time>
      </trkpt>
      <trkpt lat="42.87506" lon="1.83197">
        <ele>1153.2387695312</ele>
        <time>2011-04-24T08:47:26Z</time>
      </trkpt>
      <trkpt lat="42.87508" lon="1.83198">
        <ele>1155.1613769531</ele>
        <time>2011-04-24T08:47:31Z</time>
      </trkpt>
      <trkpt lat="42.8751" lon="1.83198">
        <ele>1155.6420898438</ele>
        <time>2011-04-24T08:47:37Z</time>
      </trkpt>
      <trkpt lat="42.87512" lon="1.83196">
        <ele>1157.083984375</ele>
        <time>2011-04-24T08:47:44Z</time>
      </trkpt>
      <trkpt lat="42.87514" lon="1.83196">
        <ele>1158.0454101562</ele>
        <time>2011-04-24T08:47:48Z</time>
      </trkpt>
      <trkpt lat="42.87516" lon="1.83197">
        <ele>1159.4873046875</ele>
        <time>2011-04-24T08:47:53Z</time>
      </trkpt>
      <trkpt lat="42.87519" lon="1.83196">
        <ele>1159.4873046875</ele>
        <time>2011-04-24T08:47:58Z</time>
      </trkpt>
      <trkpt lat="42.87521" lon="1.8319">
        <ele>1159.0065917969</ele>
        <time>2011-04-24T08:48:04Z</time>
      </trkpt>
      <trkpt lat="42.87523" lon="1.83188">
        <ele>1158.5258789062</ele>
        <time>2011-04-24T08:48:09Z</time>
      </trkpt>
      <trkpt lat="42.87525" lon="1.83186">
        <ele>1159.4873046875</ele>
        <time>2011-04-24T08:48:15Z</time>
      </trkpt>
      <trkpt lat="42.87528" lon="1.83184">
        <ele>1160.4484863281</ele>
        <time>2011-04-24T08:48:20Z</time>
      </trkpt>
      <trkpt lat="42.87532" lon="1.83181">
        <ele>1161.890625</ele>
        <time>2011-04-24T08:48:25Z</time>
      </trkpt>
      <trkpt lat="42.87535" lon="1.83177">
        <ele>1162.37109375</ele>
        <time>2011-04-24T08:48:29Z</time>
      </trkpt>
      <trkpt lat="42.87538" lon="1.83175">
        <ele>1163.3325195312</ele>
        <time>2011-04-24T08:48:32Z</time>
      </trkpt>
      <trkpt lat="42.87541" lon="1.83172">
        <ele>1163.8129882812</ele>
        <time>2011-04-24T08:48:37Z</time>
      </trkpt>
      <trkpt lat="42.87543" lon="1.83168">
        <ele>1164.2939453125</ele>
        <time>2011-04-24T08:48:43Z</time>
      </trkpt>
      <trkpt lat="42.87545" lon="1.83168">
        <ele>1165.7360839844</ele>
        <time>2011-04-24T08:48:48Z</time>
      </trkpt>
      <trkpt lat="42.87546" lon="1.8317">
        <ele>1168.1391601562</ele>
        <time>2011-04-24T08:48:53Z</time>
      </trkpt>
      <trkpt lat="42.87545" lon="1.83173">
        <ele>1170.5424804688</ele>
        <time>2011-04-24T08:48:58Z</time>
      </trkpt>
      <trkpt lat="42.87544" lon="1.83177">
        <ele>1171.984375</ele>
        <time>2011-04-24T08:49:04Z</time>
      </trkpt>
      <trkpt lat="42.87543" lon="1.83181">
        <ele>1172.4650878906</ele>
        <time>2011-04-24T08:49:09Z</time>
      </trkpt>
      <trkpt lat="42.87543" lon="1.83185">
        <ele>1173.9069824219</ele>
        <time>2011-04-24T08:49:18Z</time>
      </trkpt>
      <trkpt lat="42.87544" lon="1.83188">
        <ele>1173.4265136719</ele>
        <time>2011-04-24T08:49:24Z</time>
      </trkpt>
      <trkpt lat="42.87545" lon="1.83189">
        <ele>1176.3103027344</ele>
        <time>2011-04-24T08:49:30Z</time>
      </trkpt>
      <trkpt lat="42.87547" lon="1.83186">
        <ele>1176.791015625</ele>
        <time>2011-04-24T08:49:34Z</time>
      </trkpt>
      <trkpt lat="42.8755" lon="1.83181">
        <ele>1178.2329101562</ele>
        <time>2011-04-24T08:49:40Z</time>
      </trkpt>
      <trkpt lat="42.87553" lon="1.83181">
        <ele>1179.1940917969</ele>
        <time>2011-04-24T08:49:45Z</time>
      </trkpt>
      <trkpt lat="42.87554" lon="1.83183">
        <ele>1179.6748046875</ele>
        <time>2011-04-24T08:49:49Z</time>
      </trkpt>
      <trkpt lat="42.87552" lon="1.83187">
        <ele>1182.5590820312</ele>
        <time>2011-04-24T08:49:55Z</time>
      </trkpt>
      <trkpt lat="42.87552" lon="1.83189">
        <ele>1183.5202636719</ele>
        <time>2011-04-24T08:49:59Z</time>
      </trkpt>
      <trkpt lat="42.87552" lon="1.83191">
        <ele>1185.4428710938</ele>
        <time>2011-04-24T08:50:04Z</time>
      </trkpt>
      <trkpt lat="42.87553" lon="1.83194">
        <ele>1186.884765625</ele>
        <time>2011-04-24T08:50:10Z</time>
      </trkpt>
      <trkpt lat="42.87553" lon="1.83196">
        <ele>1187.3654785156</ele>
        <time>2011-04-24T08:50:16Z</time>
      </trkpt>
      <trkpt lat="42.87554" lon="1.83201">
        <ele>1187.8461914062</ele>
        <time>2011-04-24T08:50:26Z</time>
      </trkpt>
      <trkpt lat="42.87554" lon="1.83204">
        <ele>1187.8461914062</ele>
        <time>2011-04-24T08:50:30Z</time>
      </trkpt>
      <trkpt lat="42.87553" lon="1.83208">
        <ele>1189.2880859375</ele>
        <time>2011-04-24T08:50:36Z</time>
      </trkpt>
      <trkpt lat="42.87552" lon="1.83212">
        <ele>1191.69140625</ele>
        <time>2011-04-24T08:50:41Z</time>
      </trkpt>
      <trkpt lat="42.87553" lon="1.83216">
        <ele>1192.6528320312</ele>
        <time>2011-04-24T08:50:45Z</time>
      </trkpt>
      <trkpt lat="42.87553" lon="1.8322">
        <ele>1193.6140136719</ele>
        <time>2011-04-24T08:50:50Z</time>
      </trkpt>
      <trkpt lat="42.87552" lon="1.83223">
        <ele>1194.5751953125</ele>
        <time>2011-04-24T08:50:56Z</time>
      </trkpt>
      <trkpt lat="42.87551" lon="1.83227">
        <ele>1196.9787597656</ele>
        <time>2011-04-24T08:51:02Z</time>
      </trkpt>
      <trkpt lat="42.87551" lon="1.83231">
        <ele>1198.9013671875</ele>
        <time>2011-04-24T08:51:07Z</time>
      </trkpt>
      <trkpt lat="42.8755" lon="1.83233">
        <ele>1199.3820800781</ele>
        <time>2011-04-24T08:51:11Z</time>
      </trkpt>
      <trkpt lat="42.8755" lon="1.83239">
        <ele>1200.3435058594</ele>
        <time>2011-04-24T08:51:23Z</time>
      </trkpt>
      <trkpt lat="42.87551" lon="1.83241">
        <ele>1201.3046875</ele>
        <time>2011-04-24T08:51:28Z</time>
      </trkpt>
      <trkpt lat="42.87554" lon="1.83243">
        <ele>1203.2272949219</ele>
        <time>2011-04-24T08:51:32Z</time>
      </trkpt>
      <trkpt lat="42.87556" lon="1.83244">
        <ele>1204.6691894531</ele>
        <time>2011-04-24T08:51:37Z</time>
      </trkpt>
      <trkpt lat="42.87561" lon="1.8324">
        <ele>1204.1887207031</ele>
        <time>2011-04-24T08:51:42Z</time>
      </trkpt>
      <trkpt lat="42.87564" lon="1.83238">
        <ele>1204.1887207031</ele>
        <time>2011-04-24T08:51:47Z</time>
      </trkpt>
      <trkpt lat="42.87563" lon="1.83241">
        <ele>1205.1499023438</ele>
        <time>2011-04-24T08:51:53Z</time>
      </trkpt>
      <trkpt lat="42.87561" lon="1.83245">
        <ele>1206.1110839844</ele>
        <time>2011-04-24T08:51:59Z</time>
      </trkpt>
      <trkpt lat="42.87567" lon="1.83252">
        <ele>1205.6306152344</ele>
        <time>2011-04-24T08:52:03Z</time>
      </trkpt>
      <trkpt lat="42.87569" lon="1.83261">
        <ele>1207.0725097656</ele>
        <time>2011-04-24T08:52:07Z</time>
      </trkpt>
      <trkpt lat="42.8757" lon="1.83263">
        <ele>1207.0725097656</ele>
        <time>2011-04-24T08:52:08Z</time>
      </trkpt>
      <trkpt lat="42.87571" lon="1.83269">
        <ele>1208.9951171875</ele>
        <time>2011-04-24T08:52:13Z</time>
      </trkpt>
      <trkpt lat="42.87572" lon="1.8327">
        <ele>1206.1110839844</ele>
        <time>2011-04-24T08:52:15Z</time>
      </trkpt>
      <trkpt lat="42.87579" lon="1.83258">
        <ele>1203.2272949219</ele>
        <time>2011-04-24T08:52:21Z</time>
      </trkpt>
      <trkpt lat="42.87578" lon="1.83251">
        <ele>1202.2658691406</ele>
        <time>2011-04-24T08:52:25Z</time>
      </trkpt>
      <trkpt lat="42.87581" lon="1.83246">
        <ele>1202.2658691406</ele>
        <time>2011-04-24T08:52:32Z</time>
      </trkpt>
      <trkpt lat="42.87584" lon="1.83242">
        <ele>1204.1887207031</ele>
        <time>2011-04-24T08:52:35Z</time>
      </trkpt>
      <trkpt lat="42.87584" lon="1.83239">
        <ele>1206.591796875</ele>
        <time>2011-04-24T08:52:40Z</time>
      </trkpt>
      <trkpt lat="42.87582" lon="1.83237">
        <ele>1207.0725097656</ele>
        <time>2011-04-24T08:52:41Z</time>
      </trkpt>
      <trkpt lat="42.87584" lon="1.83235">
        <ele>1207.5532226562</ele>
        <time>2011-04-24T08:52:43Z</time>
      </trkpt>
      <trkpt lat="42.87593" lon="1.83225">
        <ele>1208.5144042969</ele>
        <time>2011-04-24T08:52:49Z</time>
      </trkpt>
      <trkpt lat="42.87595" lon="1.83221">
        <ele>1209.4758300781</ele>
        <time>2011-04-24T08:52:52Z</time>
      </trkpt>
      <trkpt lat="42.8759" lon="1.83216">
        <ele>1210.4370117188</ele>
        <time>2011-04-24T08:52:56Z</time>
      </trkpt>
      <trkpt lat="42.87583" lon="1.83218">
        <ele>1209.9562988281</ele>
        <time>2011-04-24T08:53:00Z</time>
      </trkpt>
      <trkpt lat="42.87582" lon="1.8322">
        <ele>1209.4758300781</ele>
        <time>2011-04-24T08:53:06Z</time>
      </trkpt>
      <trkpt lat="42.87579" lon="1.83222">
        <ele>1209.4758300781</ele>
        <time>2011-04-24T08:53:10Z</time>
      </trkpt>
      <trkpt lat="42.87576" lon="1.83222">
        <ele>1209.4758300781</ele>
        <time>2011-04-24T08:53:16Z</time>
      </trkpt>
      <trkpt lat="42.87577" lon="1.83219">
        <ele>1208.5144042969</ele>
        <time>2011-04-24T08:53:24Z</time>
      </trkpt>
      <trkpt lat="42.87576" lon="1.83219">
        <ele>1207.5532226562</ele>
        <time>2011-04-24T08:53:29Z</time>
      </trkpt>
      <trkpt lat="42.87572" lon="1.83216">
        <ele>1206.591796875</ele>
        <time>2011-04-24T08:53:33Z</time>
      </trkpt>
      <trkpt lat="42.87571" lon="1.83215">
        <ele>1206.591796875</ele>
        <time>2011-04-24T08:53:34Z</time>
      </trkpt>
      <trkpt lat="42.87566" lon="1.83227">
        <ele>1204.1887207031</ele>
        <time>2011-04-24T08:53:38Z</time>
      </trkpt>
      <trkpt lat="42.87564" lon="1.83235">
        <ele>1202.7465820312</ele>
        <time>2011-04-24T08:53:42Z</time>
      </trkpt>
      <trkpt lat="42.8756" lon="1.83245">
        <ele>1199.3820800781</ele>
        <time>2011-04-24T08:53:47Z</time>
      </trkpt>
      <trkpt lat="42.8756" lon="1.83248">
        <ele>1198.4206542969</ele>
        <time>2011-04-24T08:53:48Z</time>
      </trkpt>
      <trkpt lat="42.87554" lon="1.83249">
        <ele>1196.9787597656</ele>
        <time>2011-04-24T08:53:52Z</time>
      </trkpt>
      <trkpt lat="42.87552" lon="1.83246">
        <ele>1196.017578125</ele>
        <time>2011-04-24T08:53:54Z</time>
      </trkpt>
      <trkpt lat="42.8755" lon="1.83242">
        <ele>1193.1333007812</ele>
        <time>2011-04-24T08:53:59Z</time>
      </trkpt>
      <trkpt lat="42.87551" lon="1.83242">
        <ele>1192.1721191406</ele>
        <time>2011-04-24T08:54:01Z</time>
      </trkpt>
      <trkpt lat="42.87551" lon="1.83237">
        <ele>1189.7687988281</ele>
        <time>2011-04-24T08:54:06Z</time>
      </trkpt>
      <trkpt lat="42.87551" lon="1.83231">
        <ele>1190.2495117188</ele>
        <time>2011-04-24T08:54:11Z</time>
      </trkpt>
      <trkpt lat="42.87551" lon="1.83224">
        <ele>1189.7687988281</ele>
        <time>2011-04-24T08:54:16Z</time>
      </trkpt>
      <trkpt lat="42.87552" lon="1.8322">
        <ele>1188.3269042969</ele>
        <time>2011-04-24T08:54:21Z</time>
      </trkpt>
      <trkpt lat="42.87552" lon="1.83215">
        <ele>1187.8461914062</ele>
        <time>2011-04-24T08:54:25Z</time>
      </trkpt>
      <trkpt lat="42.87553" lon="1.83208">
        <ele>1185.9235839844</ele>
        <time>2011-04-24T08:54:32Z</time>
      </trkpt>
      <trkpt lat="42.87552" lon="1.83205">
        <ele>1184.9624023438</ele>
        <time>2011-04-24T08:54:37Z</time>
      </trkpt>
      <trkpt lat="42.87553" lon="1.83201">
        <ele>1183.5202636719</ele>
        <time>2011-04-24T08:54:43Z</time>
      </trkpt>
      <trkpt lat="42.87553" lon="1.83197">
        <ele>1184.0009765625</ele>
        <time>2011-04-24T08:54:48Z</time>
      </trkpt>
      <trkpt lat="42.87553" lon="1.83193">
        <ele>1181.59765625</ele>
        <time>2011-04-24T08:54:55Z</time>
      </trkpt>
      <trkpt lat="42.87553" lon="1.83188">
        <ele>1180.6364746094</ele>
        <time>2011-04-24T08:55:00Z</time>
      </trkpt>
      <trkpt lat="42.87553" lon="1.83184">
        <ele>1179.6748046875</ele>
        <time>2011-04-24T08:55:04Z</time>
      </trkpt>
      <trkpt lat="42.87551" lon="1.83182">
        <ele>1180.1557617188</ele>
        <time>2011-04-24T08:55:09Z</time>
      </trkpt>
      <trkpt lat="42.87548" lon="1.83187">
        <ele>1179.6748046875</ele>
        <time>2011-04-24T08:55:15Z</time>
      </trkpt>
      <trkpt lat="42.87545" lon="1.83191">
        <ele>1179.1940917969</ele>
        <time>2011-04-24T08:55:19Z</time>
      </trkpt>
      <trkpt lat="42.87543" lon="1.83192">
        <ele>1177.7521972656</ele>
        <time>2011-04-24T08:55:23Z</time>
      </trkpt>
      <trkpt lat="42.87543" lon="1.8319">
        <ele>1174.3876953125</ele>
        <time>2011-04-24T08:55:28Z</time>
      </trkpt>
      <trkpt lat="42.87544" lon="1.83186">
        <ele>1171.5036621094</ele>
        <time>2011-04-24T08:55:33Z</time>
      </trkpt>
      <trkpt lat="42.87545" lon="1.8318">
        <ele>1170.0617675781</ele>
        <time>2011-04-24T08:55:38Z</time>
      </trkpt>
      <trkpt lat="42.87545" lon="1.83174">
        <ele>1168.6198730469</ele>
        <time>2011-04-24T08:55:44Z</time>
      </trkpt>
      <trkpt lat="42.87547" lon="1.83169">
        <ele>1166.697265625</ele>
        <time>2011-04-24T08:55:49Z</time>
      </trkpt>
      <trkpt lat="42.87544" lon="1.83166">
        <ele>1166.2165527344</ele>
        <time>2011-04-24T08:55:54Z</time>
      </trkpt>
      <trkpt lat="42.87543" lon="1.83167">
        <ele>1166.697265625</ele>
        <time>2011-04-24T08:56:00Z</time>
      </trkpt>
      <trkpt lat="42.87542" lon="1.83168">
        <ele>1166.697265625</ele>
        <time>2011-04-24T08:56:01Z</time>
      </trkpt>
      <trkpt lat="42.87535" lon="1.83177">
        <ele>1163.8129882812</ele>
        <time>2011-04-24T08:56:07Z</time>
      </trkpt>
      <trkpt lat="42.87534" lon="1.83178">
        <ele>1163.8129882812</ele>
        <time>2011-04-24T08:56:08Z</time>
      </trkpt>
      <trkpt lat="42.87531" lon="1.8318">
        <ele>1162.37109375</ele>
        <time>2011-04-24T08:56:13Z</time>
      </trkpt>
      <trkpt lat="42.87528" lon="1.83181">
        <ele>1160.9291992188</ele>
        <time>2011-04-24T08:56:19Z</time>
      </trkpt>
      <trkpt lat="42.87525" lon="1.83185">
        <ele>1159.0065917969</ele>
        <time>2011-04-24T08:56:24Z</time>
      </trkpt>
      <trkpt lat="42.87523" lon="1.83191">
        <ele>1156.6032714844</ele>
        <time>2011-04-24T08:56:30Z</time>
      </trkpt>
      <trkpt lat="42.87519" lon="1.83194">
        <ele>1155.1613769531</ele>
        <time>2011-04-24T08:56:37Z</time>
      </trkpt>
      <trkpt lat="42.87516" lon="1.83196">
        <ele>1154.6806640625</ele>
        <time>2011-04-24T08:56:42Z</time>
      </trkpt>
      <trkpt lat="42.87514" lon="1.83197">
        <ele>1152.7580566406</ele>
        <time>2011-04-24T08:56:49Z</time>
      </trkpt>
      <trkpt lat="42.8751" lon="1.83198">
        <ele>1150.3549804688</ele>
        <time>2011-04-24T08:56:56Z</time>
      </trkpt>
      <trkpt lat="42.87508" lon="1.83197">
        <ele>1149.8742675781</ele>
        <time>2011-04-24T08:56:57Z</time>
      </trkpt>
      <trkpt lat="42.87506" lon="1.83191">
        <ele>1149.3935546875</ele>
        <time>2011-04-24T08:57:02Z</time>
      </trkpt>
      <trkpt lat="42.87505" lon="1.83191">
        <ele>1149.3935546875</ele>
        <time>2011-04-24T08:57:04Z</time>
      </trkpt>
      <trkpt lat="42.87503" lon="1.83188">
        <ele>1148.9128417969</ele>
        <time>2011-04-24T08:57:09Z</time>
      </trkpt>
      <trkpt lat="42.87502" lon="1.83184">
        <ele>1148.4321289062</ele>
        <time>2011-04-24T08:57:12Z</time>
      </trkpt>
      <trkpt lat="42.87502" lon="1.83182">
        <ele>1147.9514160156</ele>
        <time>2011-04-24T08:57:14Z</time>
      </trkpt>
      <trkpt lat="42.87503" lon="1.83172">
        <ele>1146.5095214844</ele>
        <time>2011-04-24T08:57:18Z</time>
      </trkpt>
      <trkpt lat="42.87505" lon="1.83165">
        <ele>1145.0673828125</ele>
        <time>2011-04-24T08:57:22Z</time>
      </trkpt>
      <trkpt lat="42.87506" lon="1.83161">
        <ele>1143.6254882812</ele>
        <time>2011-04-24T08:57:27Z</time>
      </trkpt>
      <trkpt lat="42.87508" lon="1.83158">
        <ele>1141.7028808594</ele>
        <time>2011-04-24T08:57:31Z</time>
      </trkpt>
      <trkpt lat="42.87507" lon="1.83154">
        <ele>1139.7802734375</ele>
        <time>2011-04-24T08:57:35Z</time>
      </trkpt>
      <trkpt lat="42.87508" lon="1.83147">
        <ele>1138.3383789062</ele>
        <time>2011-04-24T08:57:41Z</time>
      </trkpt>
      <trkpt lat="42.87506" lon="1.83142">
        <ele>1137.376953125</ele>
        <time>2011-04-24T08:57:47Z</time>
      </trkpt>
      <trkpt lat="42.87503" lon="1.83142">
        <ele>1136.4157714844</ele>
        <time>2011-04-24T08:57:54Z</time>
      </trkpt>
      <trkpt lat="42.87501" lon="1.83142">
        <ele>1134.4931640625</ele>
        <time>2011-04-24T08:58:01Z</time>
      </trkpt>
      <trkpt lat="42.87497" lon="1.83142">
        <ele>1134.4931640625</ele>
        <time>2011-04-24T08:58:07Z</time>
      </trkpt>
      <trkpt lat="42.87494" lon="1.8314">
        <ele>1133.5317382812</ele>
        <time>2011-04-24T08:58:11Z</time>
      </trkpt>
      <trkpt lat="42.87496" lon="1.83135">
        <ele>1132.08984375</ele>
        <time>2011-04-24T08:58:16Z</time>
      </trkpt>
      <trkpt lat="42.87492" lon="1.8313">
        <ele>1129.6862792969</ele>
        <time>2011-04-24T08:58:23Z</time>
      </trkpt>
      <trkpt lat="42.87487" lon="1.83132">
        <ele>1126.8024902344</ele>
        <time>2011-04-24T08:58:28Z</time>
      </trkpt>
      <trkpt lat="42.87485" lon="1.83132">
        <ele>1126.3217773438</ele>
        <time>2011-04-24T08:58:30Z</time>
      </trkpt>
      <trkpt lat="42.87482" lon="1.83131">
        <ele>1124.8798828125</ele>
        <time>2011-04-24T08:58:35Z</time>
      </trkpt>
      <trkpt lat="42.87478" lon="1.83133">
        <ele>1121.9958496094</ele>
        <time>2011-04-24T08:58:42Z</time>
      </trkpt>
      <trkpt lat="42.87476" lon="1.83133">
        <ele>1121.0346679688</ele>
        <time>2011-04-24T08:58:44Z</time>
      </trkpt>
      <trkpt lat="42.87473" lon="1.83132">
        <ele>1120.0732421875</ele>
        <time>2011-04-24T08:58:46Z</time>
      </trkpt>
      <trkpt lat="42.87474" lon="1.83124">
        <ele>1116.7087402344</ele>
        <time>2011-04-24T08:58:50Z</time>
      </trkpt>
      <trkpt lat="42.87479" lon="1.83116">
        <ele>1113.8244628906</ele>
        <time>2011-04-24T08:58:55Z</time>
      </trkpt>
      <trkpt lat="42.8748" lon="1.83112">
        <ele>1110.9406738281</ele>
        <time>2011-04-24T08:58:59Z</time>
      </trkpt>
      <trkpt lat="42.87481" lon="1.83106">
        <ele>1108.0568847656</ele>
        <time>2011-04-24T08:59:03Z</time>
      </trkpt>
      <trkpt lat="42.87483" lon="1.831">
        <ele>1104.6921386719</ele>
        <time>2011-04-24T08:59:08Z</time>
      </trkpt>
      <trkpt lat="42.87486" lon="1.83093">
        <ele>1102.2888183594</ele>
        <time>2011-04-24T08:59:13Z</time>
      </trkpt>
      <trkpt lat="42.87488" lon="1.83091">
        <ele>1101.8083496094</ele>
        <time>2011-04-24T08:59:18Z</time>
      </trkpt>
      <trkpt lat="42.87489" lon="1.83087">
        <ele>1099.8854980469</ele>
        <time>2011-04-24T08:59:23Z</time>
      </trkpt>
      <trkpt lat="42.8749" lon="1.83083">
        <ele>1098.443359375</ele>
        <time>2011-04-24T08:59:28Z</time>
      </trkpt>
      <trkpt lat="42.87493" lon="1.8308">
        <ele>1096.0402832031</ele>
        <time>2011-04-24T08:59:33Z</time>
      </trkpt>
      <trkpt lat="42.87495" lon="1.83075">
        <ele>1093.15625</ele>
        <time>2011-04-24T08:59:41Z</time>
      </trkpt>
      <trkpt lat="42.87498" lon="1.83071">
        <ele>1091.2336425781</ele>
        <time>2011-04-24T08:59:45Z</time>
      </trkpt>
      <trkpt lat="42.875" lon="1.83062">
        <ele>1089.3110351562</ele>
        <time>2011-04-24T08:59:51Z</time>
      </trkpt>
      <trkpt lat="42.87505" lon="1.83051">
        <ele>1084.0239257812</ele>
        <time>2011-04-24T08:59:58Z</time>
      </trkpt>
      <trkpt lat="42.87508" lon="1.83049">
        <ele>1083.0622558594</ele>
        <time>2011-04-24T09:00:00Z</time>
      </trkpt>
      <trkpt lat="42.87516" lon="1.8304">
        <ele>1081.1398925781</ele>
        <time>2011-04-24T09:00:06Z</time>
      </trkpt>
      <trkpt lat="42.87516" lon="1.83037">
        <ele>1081.1398925781</ele>
        <time>2011-04-24T09:00:08Z</time>
      </trkpt>
      <trkpt lat="42.87514" lon="1.83034">
        <ele>1079.2170410156</ele>
        <time>2011-04-24T09:00:12Z</time>
      </trkpt>
      <trkpt lat="42.87516" lon="1.83027">
        <ele>1077.7751464844</ele>
        <time>2011-04-24T09:00:17Z</time>
      </trkpt>
      <trkpt lat="42.87517" lon="1.8302">
        <ele>1077.2946777344</ele>
        <time>2011-04-24T09:00:22Z</time>
      </trkpt>
      <trkpt lat="42.87522" lon="1.83013">
        <ele>1075.3718261719</ele>
        <time>2011-04-24T09:00:28Z</time>
      </trkpt>
      <trkpt lat="42.87524" lon="1.83008">
        <ele>1075.8525390625</ele>
        <time>2011-04-24T09:00:33Z</time>
      </trkpt>
      <trkpt lat="42.87524" lon="1.83007">
        <ele>1076.3332519531</ele>
        <time>2011-04-24T09:00:34Z</time>
      </trkpt>
      <trkpt lat="42.87525" lon="1.83004">
        <ele>1076.3332519531</ele>
        <time>2011-04-24T09:00:36Z</time>
      </trkpt>
      <trkpt lat="42.87534" lon="1.82997">
        <ele>1075.3718261719</ele>
        <time>2011-04-24T09:00:41Z</time>
      </trkpt>
      <trkpt lat="42.87539" lon="1.82989">
        <ele>1072.96875</ele>
        <time>2011-04-24T09:00:46Z</time>
      </trkpt>
      <trkpt lat="42.8754" lon="1.82983">
        <ele>1072.0073242188</ele>
        <time>2011-04-24T09:00:49Z</time>
      </trkpt>
      <trkpt lat="42.87548" lon="1.82973">
        <ele>1070.0847167969</ele>
        <time>2011-04-24T09:00:55Z</time>
      </trkpt>
      <trkpt lat="42.8755" lon="1.82971">
        <ele>1070.0847167969</ele>
        <time>2011-04-24T09:00:56Z</time>
      </trkpt>
      <trkpt lat="42.87558" lon="1.82965">
        <ele>1069.6042480469</ele>
        <time>2011-04-24T09:01:01Z</time>
      </trkpt>
      <trkpt lat="42.87553" lon="1.82956">
        <ele>1067.2006835938</ele>
        <time>2011-04-24T09:01:07Z</time>
      </trkpt>
      <trkpt lat="42.87548" lon="1.82952">
        <ele>1065.2780761719</ele>
        <time>2011-04-24T09:01:13Z</time>
      </trkpt>
      <trkpt lat="42.87547" lon="1.82951">
        <ele>1064.7973632812</ele>
        <time>2011-04-24T09:01:15Z</time>
      </trkpt>
      <trkpt lat="42.87542" lon="1.82946">
        <ele>1067.6811523438</ele>
        <time>2011-04-24T09:01:21Z</time>
      </trkpt>
      <trkpt lat="42.87535" lon="1.82942">
        <ele>1066.2392578125</ele>
        <time>2011-04-24T09:01:25Z</time>
      </trkpt>
      <trkpt lat="42.87532" lon="1.82943">
        <ele>1064.7973632812</ele>
        <time>2011-04-24T09:01:27Z</time>
      </trkpt>
      <trkpt lat="42.87529" lon="1.82941">
        <ele>1063.8359375</ele>
        <time>2011-04-24T09:01:30Z</time>
      </trkpt>
      <trkpt lat="42.87527" lon="1.8294">
        <ele>1061.9135742188</ele>
        <time>2011-04-24T09:01:33Z</time>
      </trkpt>
      <trkpt lat="42.8752" lon="1.82934">
        <ele>1058.548828125</ele>
        <time>2011-04-24T09:01:40Z</time>
      </trkpt>
      <trkpt lat="42.87516" lon="1.8293">
        <ele>1057.1069335938</ele>
        <time>2011-04-24T09:01:43Z</time>
      </trkpt>
      <trkpt lat="42.87507" lon="1.82925">
        <ele>1054.2231445312</ele>
        <time>2011-04-24T09:01:48Z</time>
      </trkpt>
      <trkpt lat="42.87506" lon="1.82922">
        <ele>1053.26171875</ele>
        <time>2011-04-24T09:01:49Z</time>
      </trkpt>
      <trkpt lat="42.87496" lon="1.82898">
        <ele>1048.4548339844</ele>
        <time>2011-04-24T09:01:56Z</time>
      </trkpt>
      <trkpt lat="42.87487" lon="1.82873">
        <ele>1044.1291503906</ele>
        <time>2011-04-24T09:02:02Z</time>
      </trkpt>
      <trkpt lat="42.87486" lon="1.82856">
        <ele>1041.2451171875</ele>
        <time>2011-04-24T09:02:06Z</time>
      </trkpt>
      <trkpt lat="42.87483" lon="1.82835">
        <ele>1038.361328125</ele>
        <time>2011-04-24T09:02:11Z</time>
      </trkpt>
      <trkpt lat="42.87482" lon="1.82821">
        <ele>1037.3999023438</ele>
        <time>2011-04-24T09:02:15Z</time>
      </trkpt>
      <trkpt lat="42.8748" lon="1.82807">
        <ele>1036.9191894531</ele>
        <time>2011-04-24T09:02:19Z</time>
      </trkpt>
      <trkpt lat="42.87482" lon="1.82794">
        <ele>1036.4387207031</ele>
        <time>2011-04-24T09:02:23Z</time>
      </trkpt>
      <trkpt lat="42.87483" lon="1.8279">
        <ele>1036.4387207031</ele>
        <time>2011-04-24T09:02:24Z</time>
      </trkpt>
      <trkpt lat="42.87487" lon="1.82781">
        <ele>1036.4387207031</ele>
        <time>2011-04-24T09:02:28Z</time>
      </trkpt>
      <trkpt lat="42.87495" lon="1.82765">
        <ele>1035.9577636719</ele>
        <time>2011-04-24T09:02:34Z</time>
      </trkpt>
      <trkpt lat="42.875" lon="1.82757">
        <ele>1036.9191894531</ele>
        <time>2011-04-24T09:02:38Z</time>
      </trkpt>
      <trkpt lat="42.87506" lon="1.82746">
        <ele>1038.361328125</ele>
        <time>2011-04-24T09:02:43Z</time>
      </trkpt>
      <trkpt lat="42.87516" lon="1.82732">
        <ele>1038.8420410156</ele>
        <time>2011-04-24T09:02:49Z</time>
      </trkpt>
      <trkpt lat="42.87521" lon="1.82727">
        <ele>1039.3225097656</ele>
        <time>2011-04-24T09:02:51Z</time>
      </trkpt>
      <trkpt lat="42.87529" lon="1.82708">
        <ele>1041.2451171875</ele>
        <time>2011-04-24T09:02:57Z</time>
      </trkpt>
      <trkpt lat="42.87532" lon="1.82697">
        <ele>1042.6872558594</ele>
        <time>2011-04-24T09:03:00Z</time>
      </trkpt>
      <trkpt lat="42.87537" lon="1.82675">
        <ele>1046.0517578125</ele>
        <time>2011-04-24T09:03:07Z</time>
      </trkpt>
      <trkpt lat="42.8754" lon="1.82658">
        <ele>1045.0903320312</ele>
        <time>2011-04-24T09:03:12Z</time>
      </trkpt>
      <trkpt lat="42.8754" lon="1.82644">
        <ele>1044.1291503906</ele>
        <time>2011-04-24T09:03:16Z</time>
      </trkpt>
      <trkpt lat="42.87543" lon="1.8262">
        <ele>1044.6096191406</ele>
        <time>2011-04-24T09:03:22Z</time>
      </trkpt>
      <trkpt lat="42.87544" lon="1.82617">
        <ele>1045.0903320312</ele>
        <time>2011-04-24T09:03:23Z</time>
      </trkpt>
      <trkpt lat="42.87547" lon="1.82599">
        <ele>1045.5710449219</ele>
        <time>2011-04-24T09:03:28Z</time>
      </trkpt>
      <trkpt lat="42.87549" lon="1.82592">
        <ele>1045.0903320312</ele>
        <time>2011-04-24T09:03:31Z</time>
      </trkpt>
      <trkpt lat="42.8755" lon="1.82589">
        <ele>1045.0903320312</ele>
        <time>2011-04-24T09:03:33Z</time>
      </trkpt>
      <trkpt lat="42.87553" lon="1.82585">
        <ele>1042.6872558594</ele>
        <time>2011-04-24T09:03:36Z</time>
      </trkpt>
      <trkpt lat="42.87559" lon="1.8257">
        <ele>1038.8420410156</ele>
        <time>2011-04-24T09:03:42Z</time>
      </trkpt>
      <trkpt lat="42.8756" lon="1.82567">
        <ele>1039.3225097656</ele>
        <time>2011-04-24T09:03:43Z</time>
      </trkpt>
      <trkpt lat="42.87564" lon="1.82559">
        <ele>1038.8420410156</ele>
        <time>2011-04-24T09:03:46Z</time>
      </trkpt>
      <trkpt lat="42.87574" lon="1.82555">
        <ele>1040.2839355469</ele>
        <time>2011-04-24T09:03:51Z</time>
      </trkpt>
      <trkpt lat="42.87581" lon="1.82555">
        <ele>1041.7258300781</ele>
        <time>2011-04-24T09:03:54Z</time>
      </trkpt>
      <trkpt lat="42.87597" lon="1.82549">
        <ele>1044.1291503906</ele>
        <time>2011-04-24T09:04:00Z</time>
      </trkpt>
      <trkpt lat="42.87609" lon="1.82542">
        <ele>1044.6096191406</ele>
        <time>2011-04-24T09:04:05Z</time>
      </trkpt>
      <trkpt lat="42.8762" lon="1.82532">
        <ele>1047.9743652344</ele>
        <time>2011-04-24T09:04:10Z</time>
      </trkpt>
      <trkpt lat="42.87629" lon="1.82527">
        <ele>1048.4548339844</ele>
        <time>2011-04-24T09:04:13Z</time>
      </trkpt>
      <trkpt lat="42.87636" lon="1.82509">
        <ele>1048.4548339844</ele>
        <time>2011-04-24T09:04:19Z</time>
      </trkpt>
      <trkpt lat="42.87641" lon="1.82495">
        <ele>1047.0129394531</ele>
        <time>2011-04-24T09:04:24Z</time>
      </trkpt>
      <trkpt lat="42.87646" lon="1.82482">
        <ele>1047.4936523438</ele>
        <time>2011-04-24T09:04:28Z</time>
      </trkpt>
      <trkpt lat="42.8765" lon="1.82472">
        <ele>1047.0129394531</ele>
        <time>2011-04-24T09:04:32Z</time>
      </trkpt>
      <trkpt lat="42.87651" lon="1.82464">
        <ele>1047.4936523438</ele>
        <time>2011-04-24T09:04:35Z</time>
      </trkpt>
      <trkpt lat="42.87661" lon="1.82451">
        <ele>1048.4548339844</ele>
        <time>2011-04-24T09:04:40Z</time>
      </trkpt>
      <trkpt lat="42.87664" lon="1.82446">
        <ele>1048.4548339844</ele>
        <time>2011-04-24T09:04:42Z</time>
      </trkpt>
      <trkpt lat="42.87676" lon="1.82431">
        <ele>1051.8195800781</ele>
        <time>2011-04-24T09:04:48Z</time>
      </trkpt>
      <trkpt lat="42.87685" lon="1.82422">
        <ele>1054.2231445312</ele>
        <time>2011-04-24T09:04:52Z</time>
      </trkpt>
      <trkpt lat="42.87694" lon="1.8241">
        <ele>1057.1069335938</ele>
        <time>2011-04-24T09:04:58Z</time>
      </trkpt>
      <trkpt lat="42.87703" lon="1.82401">
        <ele>1056.1455078125</ele>
        <time>2011-04-24T09:05:04Z</time>
      </trkpt>
      <trkpt lat="42.87705" lon="1.824">
        <ele>1055.1843261719</ele>
        <time>2011-04-24T09:05:06Z</time>
      </trkpt>
      <trkpt lat="42.87713" lon="1.82393">
        <ele>1050.3776855469</ele>
        <time>2011-04-24T09:05:12Z</time>
      </trkpt>
      <trkpt lat="42.87714" lon="1.82388">
        <ele>1049.8969726562</ele>
        <time>2011-04-24T09:05:14Z</time>
      </trkpt>
      <trkpt lat="42.8772" lon="1.82377">
        <ele>1046.5324707031</ele>
        <time>2011-04-24T09:05:19Z</time>
      </trkpt>
      <trkpt lat="42.87725" lon="1.82362">
        <ele>1041.2451171875</ele>
        <time>2011-04-24T09:05:24Z</time>
      </trkpt>
      <trkpt lat="42.87727" lon="1.82354">
        <ele>1038.361328125</ele>
        <time>2011-04-24T09:05:27Z</time>
      </trkpt>
      <trkpt lat="42.87739" lon="1.82334">
        <ele>1034.5158691406</ele>
        <time>2011-04-24T09:05:34Z</time>
      </trkpt>
      <trkpt lat="42.87747" lon="1.82319">
        <ele>1031.1513671875</ele>
        <time>2011-04-24T09:05:39Z</time>
      </trkpt>
      <trkpt lat="42.87758" lon="1.82299">
        <ele>1030.6706542969</ele>
        <time>2011-04-24T09:05:45Z</time>
      </trkpt>
      <trkpt lat="42.87759" lon="1.82297">
        <ele>1030.6706542969</ele>
        <time>2011-04-24T09:05:46Z</time>
      </trkpt>
      <trkpt lat="42.87769" lon="1.8229">
        <ele>1030.6706542969</ele>
        <time>2011-04-24T09:05:50Z</time>
      </trkpt>
      <trkpt lat="42.87774" lon="1.82284">
        <ele>1028.2673339844</ele>
        <time>2011-04-24T09:05:52Z</time>
      </trkpt>
      <trkpt lat="42.87778" lon="1.82262">
        <ele>1024.4221191406</ele>
        <time>2011-04-24T09:05:58Z</time>
      </trkpt>
      <trkpt lat="42.87781" lon="1.82244">
        <ele>1020.5769042969</ele>
        <time>2011-04-24T09:06:03Z</time>
      </trkpt>
      <trkpt lat="42.87783" lon="1.82239">
        <ele>1018.6540527344</ele>
        <time>2011-04-24T09:06:05Z</time>
      </trkpt>
      <trkpt lat="42.87789" lon="1.82223">
        <ele>1016.7314453125</ele>
        <time>2011-04-24T09:06:10Z</time>
      </trkpt>
      <trkpt lat="42.87793" lon="1.82213">
        <ele>1012.8862304688</ele>
        <time>2011-04-24T09:06:14Z</time>
      </trkpt>
      <trkpt lat="42.87794" lon="1.82209">
        <ele>1010.0021972656</ele>
        <time>2011-04-24T09:06:16Z</time>
      </trkpt>
      <trkpt lat="42.87798" lon="1.82198">
        <ele>1006.1569824219</ele>
        <time>2011-04-24T09:06:20Z</time>
      </trkpt>
      <trkpt lat="42.87804" lon="1.82189">
        <ele>1002.3115234375</ele>
        <time>2011-04-24T09:06:25Z</time>
      </trkpt>
      <trkpt lat="42.8781" lon="1.82173">
        <ele>998.94702148438</ele>
        <time>2011-04-24T09:06:30Z</time>
      </trkpt>
      <trkpt lat="42.87817" lon="1.82151">
        <ele>998.94702148438</ele>
        <time>2011-04-24T09:06:35Z</time>
      </trkpt>
      <trkpt lat="42.8782" lon="1.82138">
        <ele>997.50512695312</ele>
        <time>2011-04-24T09:06:40Z</time>
      </trkpt>
      <trkpt lat="42.87815" lon="1.82119">
        <ele>997.98583984375</ele>
        <time>2011-04-24T09:06:46Z</time>
      </trkpt>
      <trkpt lat="42.87809" lon="1.82108">
        <ele>998.94702148438</ele>
        <time>2011-04-24T09:06:50Z</time>
      </trkpt>
      <trkpt lat="42.87804" lon="1.82095">
        <ele>999.90844726562</ele>
        <time>2011-04-24T09:06:55Z</time>
      </trkpt>
      <trkpt lat="42.87804" lon="1.82088">
        <ele>1000.3891601562</ele>
        <time>2011-04-24T09:06:57Z</time>
      </trkpt>
      <trkpt lat="42.87799" lon="1.82069">
        <ele>1002.3115234375</ele>
        <time>2011-04-24T09:07:02Z</time>
      </trkpt>
      <trkpt lat="42.87799" lon="1.82058">
        <ele>1002.7922363281</ele>
        <time>2011-04-24T09:07:05Z</time>
      </trkpt>
      <trkpt lat="42.87812" lon="1.82065">
        <ele>1000.8696289062</ele>
        <time>2011-04-24T09:07:09Z</time>
      </trkpt>
      <trkpt lat="42.87815" lon="1.82068">
        <ele>999.90844726562</ele>
        <time>2011-04-24T09:07:10Z</time>
      </trkpt>
      <trkpt lat="42.87832" lon="1.82087">
        <ele>996.5439453125</ele>
        <time>2011-04-24T09:07:17Z</time>
      </trkpt>
      <trkpt lat="42.87834" lon="1.8209">
        <ele>995.58251953125</ele>
        <time>2011-04-24T09:07:18Z</time>
      </trkpt>
      <trkpt lat="42.87846" lon="1.82109">
        <ele>993.65991210938</ele>
        <time>2011-04-24T09:07:24Z</time>
      </trkpt>
      <trkpt lat="42.87853" lon="1.82123">
        <ele>992.21801757812</ele>
        <time>2011-04-24T09:07:28Z</time>
      </trkpt>
      <trkpt lat="42.87866" lon="1.82128">
        <ele>992.21801757812</ele>
        <time>2011-04-24T09:07:32Z</time>
      </trkpt>
      <trkpt lat="42.87878" lon="1.82119">
        <ele>993.17919921875</ele>
        <time>2011-04-24T09:07:36Z</time>
      </trkpt>
      <trkpt lat="42.87883" lon="1.82112">
        <ele>993.17919921875</ele>
        <time>2011-04-24T09:07:38Z</time>
      </trkpt>
      <trkpt lat="42.87891" lon="1.82092">
        <ele>993.17919921875</ele>
        <time>2011-04-24T09:07:43Z</time>
      </trkpt>
      <trkpt lat="42.879" lon="1.82074">
        <ele>991.7373046875</ele>
        <time>2011-04-24T09:07:48Z</time>
      </trkpt>
      <trkpt lat="42.87908" lon="1.82055">
        <ele>990.77587890625</ele>
        <time>2011-04-24T09:07:53Z</time>
      </trkpt>
      <trkpt lat="42.87914" lon="1.8204">
        <ele>989.81469726562</ele>
        <time>2011-04-24T09:07:57Z</time>
      </trkpt>
      <trkpt lat="42.8792" lon="1.82024">
        <ele>988.37280273438</ele>
        <time>2011-04-24T09:08:01Z</time>
      </trkpt>
      <trkpt lat="42.87923" lon="1.82008">
        <ele>986.93041992188</ele>
        <time>2011-04-24T09:08:05Z</time>
      </trkpt>
      <trkpt lat="42.87927" lon="1.81993">
        <ele>984.04663085938</ele>
        <time>2011-04-24T09:08:09Z</time>
      </trkpt>
      <trkpt lat="42.87931" lon="1.81978">
        <ele>981.64331054688</ele>
        <time>2011-04-24T09:08:13Z</time>
      </trkpt>
      <trkpt lat="42.87939" lon="1.81975">
        <ele>979.720703125</ele>
        <time>2011-04-24T09:08:17Z</time>
      </trkpt>
      <trkpt lat="42.87943" lon="1.81976">
        <ele>979.720703125</ele>
        <time>2011-04-24T09:08:20Z</time>
      </trkpt>
      <trkpt lat="42.87945" lon="1.81977">
        <ele>980.20141601562</ele>
        <time>2011-04-24T09:08:22Z</time>
      </trkpt>
      <trkpt lat="42.87951" lon="1.81979">
        <ele>981.64331054688</ele>
        <time>2011-04-24T09:08:27Z</time>
      </trkpt>
      <trkpt lat="42.87956" lon="1.81976">
        <ele>983.08520507812</ele>
        <time>2011-04-24T09:08:33Z</time>
      </trkpt>
      <trkpt lat="42.87958" lon="1.81972">
        <ele>983.08520507812</ele>
        <time>2011-04-24T09:08:35Z</time>
      </trkpt>
      <trkpt lat="42.87967" lon="1.81965">
        <ele>984.52734375</ele>
        <time>2011-04-24T09:08:40Z</time>
      </trkpt>
      <trkpt lat="42.8797" lon="1.81963">
        <ele>984.52734375</ele>
        <time>2011-04-24T09:08:42Z</time>
      </trkpt>
      <trkpt lat="42.87978" lon="1.81955">
        <ele>984.52734375</ele>
        <time>2011-04-24T09:08:50Z</time>
      </trkpt>
      <trkpt lat="42.87985" lon="1.81949">
        <ele>985.00805664062</ele>
        <time>2011-04-24T09:08:56Z</time>
      </trkpt>
      <trkpt lat="42.8799" lon="1.81943">
        <ele>985.00805664062</ele>
        <time>2011-04-24T09:09:02Z</time>
      </trkpt>
      <trkpt lat="42.87994" lon="1.81941">
        <ele>985.48852539062</ele>
        <time>2011-04-24T09:09:05Z</time>
      </trkpt>
      <trkpt lat="42.88004" lon="1.8193">
        <ele>986.93041992188</ele>
        <time>2011-04-24T09:09:15Z</time>
      </trkpt>
      <trkpt lat="42.88015" lon="1.81919">
        <ele>989.333984375</ele>
        <time>2011-04-24T09:09:25Z</time>
      </trkpt>
      <trkpt lat="42.88021" lon="1.81913">
        <ele>990.29541015625</ele>
        <time>2011-04-24T09:09:31Z</time>
      </trkpt>
      <trkpt lat="42.88027" lon="1.81908">
        <ele>990.77587890625</ele>
        <time>2011-04-24T09:09:36Z</time>
      </trkpt>
      <trkpt lat="42.88036" lon="1.81901">
        <ele>991.25659179688</ele>
        <time>2011-04-24T09:09:44Z</time>
      </trkpt>
      <trkpt lat="42.88045" lon="1.81893">
        <ele>993.17919921875</ele>
        <time>2011-04-24T09:09:52Z</time>
      </trkpt>
      <trkpt lat="42.88051" lon="1.81888">
        <ele>994.140625</ele>
        <time>2011-04-24T09:09:58Z</time>
      </trkpt>
      <trkpt lat="42.88058" lon="1.81881">
        <ele>995.58251953125</ele>
        <time>2011-04-24T09:10:05Z</time>
      </trkpt>
      <trkpt lat="42.88066" lon="1.81874">
        <ele>997.50512695312</ele>
        <time>2011-04-24T09:10:12Z</time>
      </trkpt>
      <trkpt lat="42.88078" lon="1.81861">
        <ele>1000.3891601562</ele>
        <time>2011-04-24T09:10:23Z</time>
      </trkpt>
      <trkpt lat="42.88088" lon="1.81849">
        <ele>1001.3503417969</ele>
        <time>2011-04-24T09:10:33Z</time>
      </trkpt>
      <trkpt lat="42.88094" lon="1.81842">
        <ele>1002.7922363281</ele>
        <time>2011-04-24T09:10:39Z</time>
      </trkpt>
      <trkpt lat="42.88102" lon="1.81832">
        <ele>1004.7150878906</ele>
        <time>2011-04-24T09:10:46Z</time>
      </trkpt>
      <trkpt lat="42.88104" lon="1.81829">
        <ele>1005.1958007812</ele>
        <time>2011-04-24T09:10:48Z</time>
      </trkpt>
      <trkpt lat="42.8811" lon="1.81824">
        <ele>1006.1569824219</ele>
        <time>2011-04-24T09:10:53Z</time>
      </trkpt>
      <trkpt lat="42.88112" lon="1.81822">
        <ele>1006.6376953125</ele>
        <time>2011-04-24T09:10:55Z</time>
      </trkpt>
      <trkpt lat="42.8812" lon="1.81813">
        <ele>1008.5603027344</ele>
        <time>2011-04-24T09:11:02Z</time>
      </trkpt>
      <trkpt lat="42.88132" lon="1.81804">
        <ele>1009.041015625</ele>
        <time>2011-04-24T09:11:12Z</time>
      </trkpt>
      <trkpt lat="42.88141" lon="1.81796">
        <ele>1009.5217285156</ele>
        <time>2011-04-24T09:11:20Z</time>
      </trkpt>
      <trkpt lat="42.88148" lon="1.81788">
        <ele>1009.5217285156</ele>
        <time>2011-04-24T09:11:27Z</time>
      </trkpt>
      <trkpt lat="42.88157" lon="1.8178">
        <ele>1010.9636230469</ele>
        <time>2011-04-24T09:11:34Z</time>
      </trkpt>
      <trkpt lat="42.88165" lon="1.8177">
        <ele>1012.4055175781</ele>
        <time>2011-04-24T09:11:42Z</time>
      </trkpt>
      <trkpt lat="42.88175" lon="1.8176">
        <ele>1014.328125</ele>
        <time>2011-04-24T09:11:52Z</time>
      </trkpt>
      <trkpt lat="42.88176" lon="1.81759">
        <ele>1014.328125</ele>
        <time>2011-04-24T09:11:53Z</time>
      </trkpt>
      <trkpt lat="42.88182" lon="1.81751">
        <ele>1017.2121582031</ele>
        <time>2011-04-24T09:12:01Z</time>
      </trkpt>
      <trkpt lat="42.88189" lon="1.81744">
        <ele>1019.134765625</ele>
        <time>2011-04-24T09:12:08Z</time>
      </trkpt>
      <trkpt lat="42.88196" lon="1.81738">
        <ele>1020.5769042969</ele>
        <time>2011-04-24T09:12:14Z</time>
      </trkpt>
      <trkpt lat="42.88205" lon="1.8173">
        <ele>1022.4995117188</ele>
        <time>2011-04-24T09:12:23Z</time>
      </trkpt>
      <trkpt lat="42.88215" lon="1.81722">
        <ele>1024.4221191406</ele>
        <time>2011-04-24T09:12:32Z</time>
      </trkpt>
      <trkpt lat="42.8822" lon="1.81717">
        <ele>1025.3833007812</ele>
        <time>2011-04-24T09:12:37Z</time>
      </trkpt>
      <trkpt lat="42.88226" lon="1.81714">
        <ele>1025.3833007812</ele>
        <time>2011-04-24T09:12:42Z</time>
      </trkpt>
      <trkpt lat="42.88233" lon="1.81715">
        <ele>1026.8254394531</ele>
        <time>2011-04-24T09:12:48Z</time>
      </trkpt>
      <trkpt lat="42.88235" lon="1.81712">
        <ele>1027.3061523438</ele>
        <time>2011-04-24T09:12:53Z</time>
      </trkpt>
      <trkpt lat="42.88239" lon="1.81715">
        <ele>1028.2673339844</ele>
        <time>2011-04-24T09:12:58Z</time>
      </trkpt>
      <trkpt lat="42.88241" lon="1.81715">
        <ele>1029.228515625</ele>
        <time>2011-04-24T09:13:04Z</time>
      </trkpt>
      <trkpt lat="42.88242" lon="1.81715">
        <ele>1029.7092285156</ele>
        <time>2011-04-24T09:13:09Z</time>
      </trkpt>
      <trkpt lat="42.88242" lon="1.81715">
        <ele>1030.6706542969</ele>
        <time>2011-04-24T09:13:15Z</time>
      </trkpt>
      <trkpt lat="42.88243" lon="1.81716">
        <ele>1031.6318359375</ele>
        <time>2011-04-24T09:13:23Z</time>
      </trkpt>
      <trkpt lat="42.88243" lon="1.81716">
        <ele>1032.1125488281</ele>
        <time>2011-04-24T09:13:33Z</time>
      </trkpt>
      <trkpt lat="42.88242" lon="1.81714">
        <ele>1033.0737304688</ele>
        <time>2011-04-24T09:13:48Z</time>
      </trkpt>
      <trkpt lat="42.88243" lon="1.81713">
        <ele>1033.5544433594</ele>
        <time>2011-04-24T09:13:56Z</time>
      </trkpt>
      <trkpt lat="42.88243" lon="1.81714">
        <ele>1033.5544433594</ele>
        <time>2011-04-24T09:14:07Z</time>
      </trkpt>
      <trkpt lat="42.88244" lon="1.81714">
        <ele>1033.0737304688</ele>
        <time>2011-04-24T09:14:14Z</time>
      </trkpt>
      <trkpt lat="42.88244" lon="1.81715">
        <ele>1033.5544433594</ele>
        <time>2011-04-24T09:14:23Z</time>
      </trkpt>
      <trkpt lat="42.88244" lon="1.81714">
        <ele>1033.5544433594</ele>
        <time>2011-04-24T09:14:34Z</time>
      </trkpt>
      <trkpt lat="42.88247" lon="1.81715">
        <ele>1033.5544433594</ele>
        <time>2011-04-24T09:14:40Z</time>
      </trkpt>
      <trkpt lat="42.8825" lon="1.81715">
        <ele>1033.5544433594</ele>
        <time>2011-04-24T09:14:44Z</time>
      </trkpt>
      <trkpt lat="42.88253" lon="1.81716">
        <ele>1034.5158691406</ele>
        <time>2011-04-24T09:14:47Z</time>
      </trkpt>
      <trkpt lat="42.88263" lon="1.81709">
        <ele>1033.0737304688</ele>
        <time>2011-04-24T09:14:52Z</time>
      </trkpt>
      <trkpt lat="42.88266" lon="1.81694">
        <ele>1032.1125488281</ele>
        <time>2011-04-24T09:14:56Z</time>
      </trkpt>
      <trkpt lat="42.88267" lon="1.81681">
        <ele>1029.7092285156</ele>
        <time>2011-04-24T09:15:00Z</time>
      </trkpt>
      <trkpt lat="42.88272" lon="1.81675">
        <ele>1024.9028320312</ele>
        <time>2011-04-24T09:15:03Z</time>
      </trkpt>
      <trkpt lat="42.88279" lon="1.81661">
        <ele>1017.2121582031</ele>
        <time>2011-04-24T09:15:08Z</time>
      </trkpt>
      <trkpt lat="42.88289" lon="1.81648">
        <ele>1011.4443359375</ele>
        <time>2011-04-24T09:15:12Z</time>
      </trkpt>
      <trkpt lat="42.88301" lon="1.81633">
        <ele>1004.2346191406</ele>
        <time>2011-04-24T09:15:17Z</time>
      </trkpt>
      <trkpt lat="42.88304" lon="1.81631">
        <ele>1003.2729492188</ele>
        <time>2011-04-24T09:15:18Z</time>
      </trkpt>
      <trkpt lat="42.88311" lon="1.81627">
        <ele>1000.3891601562</ele>
        <time>2011-04-24T09:15:21Z</time>
      </trkpt>
      <trkpt lat="42.8832" lon="1.81615">
        <ele>996.5439453125</ele>
        <time>2011-04-24T09:15:26Z</time>
      </trkpt>
      <trkpt lat="42.88325" lon="1.81609">
        <ele>994.140625</ele>
        <time>2011-04-24T09:15:28Z</time>
      </trkpt>
      <trkpt lat="42.88329" lon="1.81604">
        <ele>988.853515625</ele>
        <time>2011-04-24T09:15:30Z</time>
      </trkpt>
      <trkpt lat="42.88339" lon="1.81598">
        <ele>979.720703125</ele>
        <time>2011-04-24T09:15:35Z</time>
      </trkpt>
      <trkpt lat="42.88345" lon="1.81597">
        <ele>977.79809570312</ele>
        <time>2011-04-24T09:15:37Z</time>
      </trkpt>
      <trkpt lat="42.88352" lon="1.81595">
        <ele>975.87548828125</ele>
        <time>2011-04-24T09:15:40Z</time>
      </trkpt>
      <trkpt lat="42.88365" lon="1.81604">
        <ele>976.8369140625</ele>
        <time>2011-04-24T09:15:45Z</time>
      </trkpt>
      <trkpt lat="42.88365" lon="1.81606">
        <ele>976.35620117188</ele>
        <time>2011-04-24T09:15:46Z</time>
      </trkpt>
      <trkpt lat="42.88366" lon="1.81616">
        <ele>976.8369140625</ele>
        <time>2011-04-24T09:15:50Z</time>
      </trkpt>
      <trkpt lat="42.88367" lon="1.81629">
        <ele>979.23999023438</ele>
        <time>2011-04-24T09:15:55Z</time>
      </trkpt>
      <trkpt lat="42.88369" lon="1.81636">
        <ele>979.720703125</ele>
        <time>2011-04-24T09:15:57Z</time>
      </trkpt>
      <trkpt lat="42.88367" lon="1.8165">
        <ele>980.68212890625</ele>
        <time>2011-04-24T09:16:01Z</time>
      </trkpt>
      <trkpt lat="42.88379" lon="1.81655">
        <ele>980.20141601562</ele>
        <time>2011-04-24T09:16:06Z</time>
      </trkpt>
      <trkpt lat="42.8839" lon="1.81646">
        <ele>980.20141601562</ele>
        <time>2011-04-24T09:16:10Z</time>
      </trkpt>
      <trkpt lat="42.88394" lon="1.81645">
        <ele>980.68212890625</ele>
        <time>2011-04-24T09:16:11Z</time>
      </trkpt>
      <trkpt lat="42.88408" lon="1.81638">
        <ele>981.64331054688</ele>
        <time>2011-04-24T09:16:16Z</time>
      </trkpt>
      <trkpt lat="42.88417" lon="1.81628">
        <ele>977.31762695312</ele>
        <time>2011-04-24T09:16:22Z</time>
      </trkpt>
      <trkpt lat="42.88418" lon="1.81626">
        <ele>975.87548828125</ele>
        <time>2011-04-24T09:16:23Z</time>
      </trkpt>
      <trkpt lat="42.88425" lon="1.81613">
        <ele>973.95288085938</ele>
        <time>2011-04-24T09:16:28Z</time>
      </trkpt>
      <trkpt lat="42.88427" lon="1.81605">
        <ele>974.91430664062</ele>
        <time>2011-04-24T09:16:31Z</time>
      </trkpt>
      <trkpt lat="42.8844" lon="1.81596">
        <ele>972.99169921875</ele>
        <time>2011-04-24T09:16:38Z</time>
      </trkpt>
      <trkpt lat="42.88452" lon="1.81589">
        <ele>968.66552734375</ele>
        <time>2011-04-24T09:16:43Z</time>
      </trkpt>
      <trkpt lat="42.88457" lon="1.81585">
        <ele>967.2236328125</ele>
        <time>2011-04-24T09:16:46Z</time>
      </trkpt>
      <trkpt lat="42.88465" lon="1.81581">
        <ele>963.85888671875</ele>
        <time>2011-04-24T09:16:51Z</time>
      </trkpt>
      <trkpt lat="42.88475" lon="1.81583">
        <ele>961.45581054688</ele>
        <time>2011-04-24T09:16:56Z</time>
      </trkpt>
      <trkpt lat="42.88493" lon="1.81577">
        <ele>955.68774414062</ele>
        <time>2011-04-24T09:17:01Z</time>
      </trkpt>
      <trkpt lat="42.88499" lon="1.81574">
        <ele>953.28442382812</ele>
        <time>2011-04-24T09:17:03Z</time>
      </trkpt>
      <trkpt lat="42.88514" lon="1.81559">
        <ele>946.07470703125</ele>
        <time>2011-04-24T09:17:09Z</time>
      </trkpt>
      <trkpt lat="42.88524" lon="1.81548">
        <ele>942.71020507812</ele>
        <time>2011-04-24T09:17:14Z</time>
      </trkpt>
      <trkpt lat="42.88528" lon="1.81545">
        <ele>943.67138671875</ele>
        <time>2011-04-24T09:17:16Z</time>
      </trkpt>
      <trkpt lat="42.88532" lon="1.8154">
        <ele>942.2294921875</ele>
        <time>2011-04-24T09:17:18Z</time>
      </trkpt>
      <trkpt lat="42.88545" lon="1.81535">
        <ele>939.82592773438</ele>
        <time>2011-04-24T09:17:22Z</time>
      </trkpt>
      <trkpt lat="42.88564" lon="1.81526">
        <ele>934.05810546875</ele>
        <time>2011-04-24T09:17:27Z</time>
      </trkpt>
      <trkpt lat="42.88582" lon="1.81514">
        <ele>933.0966796875</ele>
        <time>2011-04-24T09:17:33Z</time>
      </trkpt>
      <trkpt lat="42.88593" lon="1.81504">
        <ele>934.05810546875</ele>
        <time>2011-04-24T09:17:37Z</time>
      </trkpt>
      <trkpt lat="42.88602" lon="1.81487">
        <ele>935.01953125</ele>
        <time>2011-04-24T09:17:44Z</time>
      </trkpt>
      <trkpt lat="42.88607" lon="1.81487">
        <ele>933.57739257812</ele>
        <time>2011-04-24T09:17:47Z</time>
      </trkpt>
      <trkpt lat="42.88614" lon="1.81486">
        <ele>931.65478515625</ele>
        <time>2011-04-24T09:17:50Z</time>
      </trkpt>
      <trkpt lat="42.88627" lon="1.81483">
        <ele>929.25146484375</ele>
        <time>2011-04-24T09:17:54Z</time>
      </trkpt>
      <trkpt lat="42.88646" lon="1.81483">
        <ele>924.92578125</ele>
        <time>2011-04-24T09:18:00Z</time>
      </trkpt>
      <trkpt lat="42.88664" lon="1.81486">
        <ele>919.15771484375</ele>
        <time>2011-04-24T09:18:05Z</time>
      </trkpt>
      <trkpt lat="42.88678" lon="1.81484">
        <ele>916.27368164062</ele>
        <time>2011-04-24T09:18:09Z</time>
      </trkpt>
      <trkpt lat="42.88692" lon="1.81484">
        <ele>909.06396484375</ele>
        <time>2011-04-24T09:18:14Z</time>
      </trkpt>
      <trkpt lat="42.88695" lon="1.81484">
        <ele>908.10278320312</ele>
        <time>2011-04-24T09:18:15Z</time>
      </trkpt>
      <trkpt lat="42.8871" lon="1.81481">
        <ele>898.4892578125</ele>
        <time>2011-04-24T09:18:21Z</time>
      </trkpt>
      <trkpt lat="42.88723" lon="1.81479">
        <ele>894.64404296875</ele>
        <time>2011-04-24T09:18:26Z</time>
      </trkpt>
      <trkpt lat="42.88726" lon="1.8148">
        <ele>893.68286132812</ele>
        <time>2011-04-24T09:18:27Z</time>
      </trkpt>
      <trkpt lat="42.8874" lon="1.81471">
        <ele>887.43408203125</ele>
        <time>2011-04-24T09:18:33Z</time>
      </trkpt>
      <trkpt lat="42.88741" lon="1.81469">
        <ele>886.47290039062</ele>
        <time>2011-04-24T09:18:34Z</time>
      </trkpt>
      <trkpt lat="42.88745" lon="1.81462">
        <ele>884.06958007812</ele>
        <time>2011-04-24T09:18:37Z</time>
      </trkpt>
      <trkpt lat="42.88748" lon="1.81452">
        <ele>881.66625976562</ele>
        <time>2011-04-24T09:18:40Z</time>
      </trkpt>
      <trkpt lat="42.88753" lon="1.81449">
        <ele>881.18579101562</ele>
        <time>2011-04-24T09:18:42Z</time>
      </trkpt>
      <trkpt lat="42.8876" lon="1.81434">
        <ele>879.26293945312</ele>
        <time>2011-04-24T09:18:47Z</time>
      </trkpt>
      <trkpt lat="42.88763" lon="1.81422">
        <ele>875.89819335938</ele>
        <time>2011-04-24T09:18:52Z</time>
      </trkpt>
      <trkpt lat="42.88765" lon="1.8142">
        <ele>875.89819335938</ele>
        <time>2011-04-24T09:18:53Z</time>
      </trkpt>
      <trkpt lat="42.88771" lon="1.8141">
        <ele>870.61108398438</ele>
        <time>2011-04-24T09:18:59Z</time>
      </trkpt>
      <trkpt lat="42.88777" lon="1.81396">
        <ele>859.0751953125</ele>
        <time>2011-04-24T09:19:05Z</time>
      </trkpt>
      <trkpt lat="42.88781" lon="1.81391">
        <ele>853.30737304688</ele>
        <time>2011-04-24T09:19:08Z</time>
      </trkpt>
      <trkpt lat="42.88786" lon="1.81374">
        <ele>842.73291015625</ele>
        <time>2011-04-24T09:19:14Z</time>
      </trkpt>
      <trkpt lat="42.88785" lon="1.81365">
        <ele>838.40698242188</ele>
        <time>2011-04-24T09:19:19Z</time>
      </trkpt>
      <trkpt lat="42.88785" lon="1.81363">
        <ele>838.40698242188</ele>
        <time>2011-04-24T09:19:20Z</time>
      </trkpt>
      <trkpt lat="42.8878" lon="1.81355">
        <ele>835.04248046875</ele>
        <time>2011-04-24T09:19:26Z</time>
      </trkpt>
      <trkpt lat="42.88779" lon="1.81337">
        <ele>837.92626953125</ele>
        <time>2011-04-24T09:19:39Z</time>
      </trkpt>
      <trkpt lat="42.88778" lon="1.81329">
        <ele>837.44555664062</ele>
        <time>2011-04-24T09:19:44Z</time>
      </trkpt>
      <trkpt lat="42.88779" lon="1.81323">
        <ele>836.96484375</ele>
        <time>2011-04-24T09:19:50Z</time>
      </trkpt>
      <trkpt lat="42.88782" lon="1.81319">
        <ele>835.52294921875</ele>
        <time>2011-04-24T09:19:53Z</time>
      </trkpt>
      <trkpt lat="42.88789" lon="1.81309">
        <ele>830.23583984375</ele>
        <time>2011-04-24T09:19:58Z</time>
      </trkpt>
      <trkpt lat="42.88795" lon="1.81307">
        <ele>827.83227539062</ele>
        <time>2011-04-24T09:20:01Z</time>
      </trkpt>
      <trkpt lat="42.88811" lon="1.81302">
        <ele>826.39038085938</ele>
        <time>2011-04-24T09:20:06Z</time>
      </trkpt>
      <trkpt lat="42.88818" lon="1.81299">
        <ele>823.98706054688</ele>
        <time>2011-04-24T09:20:09Z</time>
      </trkpt>
      <trkpt lat="42.88826" lon="1.81295">
        <ele>818.69995117188</ele>
        <time>2011-04-24T09:20:13Z</time>
      </trkpt>
      <trkpt lat="42.88831" lon="1.81292">
        <ele>814.3740234375</ele>
        <time>2011-04-24T09:20:16Z</time>
      </trkpt>
      <trkpt lat="42.8885" lon="1.81293">
        <ele>809.5673828125</ele>
        <time>2011-04-24T09:20:22Z</time>
      </trkpt>
      <trkpt lat="42.88857" lon="1.81295">
        <ele>809.08666992188</ele>
        <time>2011-04-24T09:20:24Z</time>
      </trkpt>
      <trkpt lat="42.88879" lon="1.81299">
        <ele>803.79956054688</ele>
        <time>2011-04-24T09:20:30Z</time>
      </trkpt>
      <trkpt lat="42.88898" lon="1.81302">
        <ele>803.31884765625</ele>
        <time>2011-04-24T09:20:34Z</time>
      </trkpt>
      <trkpt lat="42.88918" lon="1.81301">
        <ele>811.970703125</ele>
        <time>2011-04-24T09:20:37Z</time>
      </trkpt>
      <trkpt lat="42.88945" lon="1.81295">
        <ele>840.32958984375</ele>
        <time>2011-04-24T09:20:41Z</time>
      </trkpt>
      <trkpt lat="42.88953" lon="1.81293">
        <ele>847.53955078125</ele>
        <time>2011-04-24T09:20:43Z</time>
      </trkpt>
      <trkpt lat="42.88966" lon="1.8129">
        <ele>857.63330078125</ele>
        <time>2011-04-24T09:20:48Z</time>
      </trkpt>
      <trkpt lat="42.88983" lon="1.81283">
        <ele>862.92065429688</ele>
        <time>2011-04-24T09:20:53Z</time>
      </trkpt>
      <trkpt lat="42.89" lon="1.81273">
        <ele>862.92065429688</ele>
        <time>2011-04-24T09:21:00Z</time>
      </trkpt>
      <trkpt lat="42.89003" lon="1.81272">
        <ele>863.8818359375</ele>
        <time>2011-04-24T09:21:01Z</time>
      </trkpt>
      <trkpt lat="42.89019" lon="1.81261">
        <ele>860.03662109375</ele>
        <time>2011-04-24T09:21:07Z</time>
      </trkpt>
      <trkpt lat="42.89034" lon="1.81251">
        <ele>857.63330078125</ele>
        <time>2011-04-24T09:21:12Z</time>
      </trkpt>
      <trkpt lat="42.8905" lon="1.81242">
        <ele>857.15258789062</ele>
        <time>2011-04-24T09:21:17Z</time>
      </trkpt>
      <trkpt lat="42.89054" lon="1.81241">
        <ele>858.11401367188</ele>
        <time>2011-04-24T09:21:18Z</time>
      </trkpt>
      <trkpt lat="42.89081" lon="1.81227">
        <ele>865.8046875</ele>
        <time>2011-04-24T09:21:25Z</time>
      </trkpt>
      <trkpt lat="42.89089" lon="1.81216">
        <ele>868.20776367188</ele>
        <time>2011-04-24T09:21:29Z</time>
      </trkpt>
      <trkpt lat="42.89096" lon="1.81195">
        <ele>868.6884765625</ele>
        <time>2011-04-24T09:21:34Z</time>
      </trkpt>
      <trkpt lat="42.891" lon="1.81177">
        <ele>867.72705078125</ele>
        <time>2011-04-24T09:21:39Z</time>
      </trkpt>
      <trkpt lat="42.89105" lon="1.81161">
        <ele>865.8046875</ele>
        <time>2011-04-24T09:21:43Z</time>
      </trkpt>
      <trkpt lat="42.89114" lon="1.81142">
        <ele>862.92065429688</ele>
        <time>2011-04-24T09:21:48Z</time>
      </trkpt>
      <trkpt lat="42.8912" lon="1.8113">
        <ele>860.998046875</ele>
        <time>2011-04-24T09:21:51Z</time>
      </trkpt>
      <trkpt lat="42.89127" lon="1.81123">
        <ele>860.51733398438</ele>
        <time>2011-04-24T09:21:54Z</time>
      </trkpt>
      <trkpt lat="42.89139" lon="1.8111">
        <ele>858.59448242188</ele>
        <time>2011-04-24T09:21:59Z</time>
      </trkpt>
      <trkpt lat="42.89141" lon="1.81105">
        <ele>858.59448242188</ele>
        <time>2011-04-24T09:22:00Z</time>
      </trkpt>
      <trkpt lat="42.8915" lon="1.81092">
        <ele>856.671875</ele>
        <time>2011-04-24T09:22:05Z</time>
      </trkpt>
      <trkpt lat="42.89158" lon="1.81078">
        <ele>854.74926757812</ele>
        <time>2011-04-24T09:22:09Z</time>
      </trkpt>
      <trkpt lat="42.89166" lon="1.81065">
        <ele>853.30737304688</ele>
        <time>2011-04-24T09:22:13Z</time>
      </trkpt>
      <trkpt lat="42.89169" lon="1.8106">
        <ele>853.30737304688</ele>
        <time>2011-04-24T09:22:15Z</time>
      </trkpt>
      <trkpt lat="42.89174" lon="1.81051">
        <ele>853.30737304688</ele>
        <time>2011-04-24T09:22:18Z</time>
      </trkpt>
      <trkpt lat="42.89182" lon="1.81035">
        <ele>852.82666015625</ele>
        <time>2011-04-24T09:22:23Z</time>
      </trkpt>
      <trkpt lat="42.89186" lon="1.81018">
        <ele>853.30737304688</ele>
        <time>2011-04-24T09:22:27Z</time>
      </trkpt>
      <trkpt lat="42.89192" lon="1.80995">
        <ele>852.82666015625</ele>
        <time>2011-04-24T09:22:32Z</time>
      </trkpt>
      <trkpt lat="42.89196" lon="1.80985">
        <ele>852.34594726562</ele>
        <time>2011-04-24T09:22:35Z</time>
      </trkpt>
      <trkpt lat="42.89203" lon="1.8097">
        <ele>849.94287109375</ele>
        <time>2011-04-24T09:22:39Z</time>
      </trkpt>
      <trkpt lat="42.89209" lon="1.80956">
        <ele>848.50073242188</ele>
        <time>2011-04-24T09:22:43Z</time>
      </trkpt>
      <trkpt lat="42.89214" lon="1.80944">
        <ele>847.53955078125</ele>
        <time>2011-04-24T09:22:47Z</time>
      </trkpt>
      <trkpt lat="42.89226" lon="1.80933">
        <ele>847.53955078125</ele>
        <time>2011-04-24T09:22:52Z</time>
      </trkpt>
      <trkpt lat="42.89242" lon="1.80926">
        <ele>847.05883789062</ele>
        <time>2011-04-24T09:22:58Z</time>
      </trkpt>
      <trkpt lat="42.89257" lon="1.80928">
        <ele>845.61694335938</ele>
        <time>2011-04-24T09:23:03Z</time>
      </trkpt>
      <trkpt lat="42.89267" lon="1.80932">
        <ele>844.17504882812</ele>
        <time>2011-04-24T09:23:07Z</time>
      </trkpt>
      <trkpt lat="42.89285" lon="1.80934">
        <ele>842.73291015625</ele>
        <time>2011-04-24T09:23:13Z</time>
      </trkpt>
      <trkpt lat="42.89299" lon="1.80939">
        <ele>841.771484375</ele>
        <time>2011-04-24T09:23:18Z</time>
      </trkpt>
      <trkpt lat="42.8931" lon="1.80946">
        <ele>839.84887695312</ele>
        <time>2011-04-24T09:23:22Z</time>
      </trkpt>
      <trkpt lat="42.89322" lon="1.80948">
        <ele>836.96484375</ele>
        <time>2011-04-24T09:23:25Z</time>
      </trkpt>
      <trkpt lat="42.89338" lon="1.8095">
        <ele>835.04248046875</ele>
        <time>2011-04-24T09:23:30Z</time>
      </trkpt>
      <trkpt lat="42.8935" lon="1.80956">
        <ele>833.60034179688</ele>
        <time>2011-04-24T09:23:35Z</time>
      </trkpt>
      <trkpt lat="42.89356" lon="1.80957">
        <ele>832.15844726562</ele>
        <time>2011-04-24T09:23:39Z</time>
      </trkpt>
      <trkpt lat="42.89365" lon="1.80959">
        <ele>831.677734375</ele>
        <time>2011-04-24T09:23:43Z</time>
      </trkpt>
      <trkpt lat="42.89368" lon="1.80961">
        <ele>829.75512695312</ele>
        <time>2011-04-24T09:23:45Z</time>
      </trkpt>
      <trkpt lat="42.8938" lon="1.80974">
        <ele>824.4677734375</ele>
        <time>2011-04-24T09:23:51Z</time>
      </trkpt>
      <trkpt lat="42.89386" lon="1.80981">
        <ele>822.54516601562</ele>
        <time>2011-04-24T09:23:53Z</time>
      </trkpt>
      <trkpt lat="42.89389" lon="1.80998">
        <ele>817.25805664062</ele>
        <time>2011-04-24T09:23:58Z</time>
      </trkpt>
      <trkpt lat="42.8939" lon="1.81001">
        <ele>815.81616210938</ele>
        <time>2011-04-24T09:23:59Z</time>
      </trkpt>
      <trkpt lat="42.89398" lon="1.81011">
        <ele>812.93212890625</ele>
        <time>2011-04-24T09:24:05Z</time>
      </trkpt>
      <trkpt lat="42.89402" lon="1.81018">
        <ele>809.5673828125</ele>
        <time>2011-04-24T09:24:08Z</time>
      </trkpt>
      <trkpt lat="42.8941" lon="1.81042">
        <ele>802.357421875</ele>
        <time>2011-04-24T09:24:14Z</time>
      </trkpt>
      <trkpt lat="42.89408" lon="1.81054">
        <ele>800.91552734375</ele>
        <time>2011-04-24T09:24:17Z</time>
      </trkpt>
      <trkpt lat="42.89411" lon="1.81065">
        <ele>802.357421875</ele>
        <time>2011-04-24T09:24:21Z</time>
      </trkpt>
      <trkpt lat="42.89416" lon="1.81071">
        <ele>807.64477539062</ele>
        <time>2011-04-24T09:24:25Z</time>
      </trkpt>
      <trkpt lat="42.89426" lon="1.8108">
        <ele>813.89331054688</ele>
        <time>2011-04-24T09:24:30Z</time>
      </trkpt>
      <trkpt lat="42.89428" lon="1.81083">
        <ele>813.41284179688</ele>
        <time>2011-04-24T09:24:31Z</time>
      </trkpt>
      <trkpt lat="42.89429" lon="1.8109">
        <ele>812.45141601562</ele>
        <time>2011-04-24T09:24:33Z</time>
      </trkpt>
      <trkpt lat="42.89435" lon="1.81105">
        <ele>811.970703125</ele>
        <time>2011-04-24T09:24:38Z</time>
      </trkpt>
      <trkpt lat="42.89436" lon="1.81124">
        <ele>809.5673828125</ele>
        <time>2011-04-24T09:24:44Z</time>
      </trkpt>
      <trkpt lat="42.8944" lon="1.81132">
        <ele>808.60595703125</ele>
        <time>2011-04-24T09:24:47Z</time>
      </trkpt>
      <trkpt lat="42.89449" lon="1.81144">
        <ele>806.68334960938</ele>
        <time>2011-04-24T09:24:51Z</time>
      </trkpt>
      <trkpt lat="42.89459" lon="1.81154">
        <ele>806.68334960938</ele>
        <time>2011-04-24T09:24:57Z</time>
      </trkpt>
      <trkpt lat="42.89466" lon="1.81158">
        <ele>805.72216796875</ele>
        <time>2011-04-24T09:25:01Z</time>
      </trkpt>
      <trkpt lat="42.89474" lon="1.81167">
        <ele>803.31884765625</ele>
        <time>2011-04-24T09:25:06Z</time>
      </trkpt>
      <trkpt lat="42.8948" lon="1.81178">
        <ele>796.58984375</ele>
        <time>2011-04-24T09:25:11Z</time>
      </trkpt>
      <trkpt lat="42.89486" lon="1.81188">
        <ele>791.78295898438</ele>
        <time>2011-04-24T09:25:15Z</time>
      </trkpt>
      <trkpt lat="42.89489" lon="1.81197">
        <ele>787.45703125</ele>
        <time>2011-04-24T09:25:18Z</time>
      </trkpt>
      <trkpt lat="42.89495" lon="1.81203">
        <ele>786.49584960938</ele>
        <time>2011-04-24T09:25:21Z</time>
      </trkpt>
      <trkpt lat="42.89503" lon="1.81195">
        <ele>780.72802734375</ele>
        <time>2011-04-24T09:25:25Z</time>
      </trkpt>
      <trkpt lat="42.89509" lon="1.8117">
        <ele>774.47924804688</ele>
        <time>2011-04-24T09:25:31Z</time>
      </trkpt>
      <trkpt lat="42.89509" lon="1.81163">
        <ele>770.63403320312</ele>
        <time>2011-04-24T09:25:33Z</time>
      </trkpt>
      <trkpt lat="42.89507" lon="1.81145">
        <ele>764.8662109375</ele>
        <time>2011-04-24T09:25:38Z</time>
      </trkpt>
      <trkpt lat="42.89502" lon="1.81131">
        <ele>758.13696289062</ele>
        <time>2011-04-24T09:25:43Z</time>
      </trkpt>
      <trkpt lat="42.89496" lon="1.81121">
        <ele>749.48510742188</ele>
        <time>2011-04-24T09:25:47Z</time>
      </trkpt>
      <trkpt lat="42.89495" lon="1.81114">
        <ele>740.8330078125</ele>
        <time>2011-04-24T09:25:50Z</time>
      </trkpt>
      <trkpt lat="42.89494" lon="1.81104">
        <ele>728.81665039062</ele>
        <time>2011-04-24T09:25:54Z</time>
      </trkpt>
      <trkpt lat="42.89481" lon="1.81084">
        <ele>714.39672851562</ele>
        <time>2011-04-24T09:25:59Z</time>
      </trkpt>
      <trkpt lat="42.8946" lon="1.81064">
        <ele>699.97705078125</ele>
        <time>2011-04-24T09:26:03Z</time>
      </trkpt>
      <trkpt lat="42.89449" lon="1.81051">
        <ele>692.28662109375</ele>
        <time>2011-04-24T09:26:07Z</time>
      </trkpt>
      <trkpt lat="42.89458" lon="1.81053">
        <ele>697.09301757812</ele>
        <time>2011-04-24T09:26:10Z</time>
      </trkpt>
      <trkpt lat="42.89477" lon="1.81063">
        <ele>700.9384765625</ele>
        <time>2011-04-24T09:26:14Z</time>
      </trkpt>
      <trkpt lat="42.89484" lon="1.81068">
        <ele>701.41918945312</ele>
        <time>2011-04-24T09:26:16Z</time>
      </trkpt>
      <trkpt lat="42.89508" lon="1.81077">
        <ele>718.72290039062</ele>
        <time>2011-04-24T09:26:21Z</time>
      </trkpt>
      <trkpt lat="42.89531" lon="1.81081">
        <ele>730.7392578125</ele>
        <time>2011-04-24T09:26:25Z</time>
      </trkpt>
      <trkpt lat="42.89539" lon="1.81084">
        <ele>733.142578125</ele>
        <time>2011-04-24T09:26:27Z</time>
      </trkpt>
      <trkpt lat="42.89552" lon="1.8109">
        <ele>735.0654296875</ele>
        <time>2011-04-24T09:26:32Z</time>
      </trkpt>
      <trkpt lat="42.89566" lon="1.81093">
        <ele>734.58471679688</ele>
        <time>2011-04-24T09:26:38Z</time>
      </trkpt>
      <trkpt lat="42.89573" lon="1.81096">
        <ele>734.58471679688</ele>
        <time>2011-04-24T09:26:42Z</time>
      </trkpt>
      <trkpt lat="42.89582" lon="1.81102">
        <ele>732.18139648438</ele>
        <time>2011-04-24T09:26:46Z</time>
      </trkpt>
      <trkpt lat="42.89592" lon="1.81112">
        <ele>726.89404296875</ele>
        <time>2011-04-24T09:26:51Z</time>
      </trkpt>
      <trkpt lat="42.896" lon="1.81125">
        <ele>719.20361328125</ele>
        <time>2011-04-24T09:26:57Z</time>
      </trkpt>
      <trkpt lat="42.89609" lon="1.81135">
        <ele>713.916015625</ele>
        <time>2011-04-24T09:27:02Z</time>
      </trkpt>
      <trkpt lat="42.89622" lon="1.8114">
        <ele>711.99365234375</ele>
        <time>2011-04-24T09:27:08Z</time>
      </trkpt>
      <trkpt lat="42.89631" lon="1.81142">
        <ele>715.8388671875</ele>
        <time>2011-04-24T09:27:12Z</time>
      </trkpt>
      <trkpt lat="42.89638" lon="1.81148">
        <ele>712.47412109375</ele>
        <time>2011-04-24T09:27:16Z</time>
      </trkpt>
      <trkpt lat="42.89638" lon="1.8115">
        <ele>711.0322265625</ele>
        <time>2011-04-24T09:27:17Z</time>
      </trkpt>
      <trkpt lat="42.89644" lon="1.81162">
        <ele>703.82250976562</ele>
        <time>2011-04-24T09:27:22Z</time>
      </trkpt>
      <trkpt lat="42.89654" lon="1.81174">
        <ele>699.015625</ele>
        <time>2011-04-24T09:27:27Z</time>
      </trkpt>
      <trkpt lat="42.89664" lon="1.8119">
        <ele>693.24780273438</ele>
        <time>2011-04-24T09:27:33Z</time>
      </trkpt>
      <trkpt lat="42.89672" lon="1.81204">
        <ele>686.99926757812</ele>
        <time>2011-04-24T09:27:39Z</time>
      </trkpt>
      <trkpt lat="42.89681" lon="1.81214">
        <ele>683.15380859375</ele>
        <time>2011-04-24T09:27:44Z</time>
      </trkpt>
      <trkpt lat="42.89686" lon="1.81223">
        <ele>678.34741210938</ele>
        <time>2011-04-24T09:27:47Z</time>
      </trkpt>
      <trkpt lat="42.89687" lon="1.81235">
        <ele>674.50219726562</ele>
        <time>2011-04-24T09:27:51Z</time>
      </trkpt>
      <trkpt lat="42.89682" lon="1.81253">
        <ele>670.65698242188</ele>
        <time>2011-04-24T09:27:56Z</time>
      </trkpt>
      <trkpt lat="42.89673" lon="1.81275">
        <ele>670.17626953125</ele>
        <time>2011-04-24T09:28:01Z</time>
      </trkpt>
      <trkpt lat="42.89669" lon="1.81285">
        <ele>671.1376953125</ele>
        <time>2011-04-24T09:28:03Z</time>
      </trkpt>
      <trkpt lat="42.89666" lon="1.81307">
        <ele>666.8115234375</ele>
        <time>2011-04-24T09:28:08Z</time>
      </trkpt>
      <trkpt lat="42.89668" lon="1.8133">
        <ele>662.48559570312</ele>
        <time>2011-04-24T09:28:14Z</time>
      </trkpt>
      <trkpt lat="42.8967" lon="1.81336">
        <ele>660.08227539062</ele>
        <time>2011-04-24T09:28:17Z</time>
      </trkpt>
      <trkpt lat="42.8967" lon="1.81347">
        <ele>659.12109375</ele>
        <time>2011-04-24T09:28:23Z</time>
      </trkpt>
      <trkpt lat="42.89671" lon="1.81348">
        <ele>658.64038085938</ele>
        <time>2011-04-24T09:28:24Z</time>
      </trkpt>
      <trkpt lat="42.89682" lon="1.81346">
        <ele>658.64038085938</ele>
        <time>2011-04-24T09:28:29Z</time>
      </trkpt>
      <trkpt lat="42.89687" lon="1.81331">
        <ele>655.75659179688</ele>
        <time>2011-04-24T09:28:34Z</time>
      </trkpt>
      <trkpt lat="42.89696" lon="1.8131">
        <ele>663.92749023438</ele>
        <time>2011-04-24T09:28:41Z</time>
      </trkpt>
      <trkpt lat="42.89701" lon="1.81301">
        <ele>667.29223632812</ele>
        <time>2011-04-24T09:28:45Z</time>
      </trkpt>
      <trkpt lat="42.89704" lon="1.81298">
        <ele>669.21508789062</ele>
        <time>2011-04-24T09:28:47Z</time>
      </trkpt>
      <trkpt lat="42.89712" lon="1.81294">
        <ele>672.57958984375</ele>
        <time>2011-04-24T09:28:51Z</time>
      </trkpt>
      <trkpt lat="42.89717" lon="1.81288">
        <ele>671.1376953125</ele>
        <time>2011-04-24T09:28:54Z</time>
      </trkpt>
      <trkpt lat="42.89725" lon="1.81279">
        <ele>667.77270507812</ele>
        <time>2011-04-24T09:28:58Z</time>
      </trkpt>
      <trkpt lat="42.89729" lon="1.81275">
        <ele>665.36962890625</ele>
        <time>2011-04-24T09:29:00Z</time>
      </trkpt>
      <trkpt lat="42.89732" lon="1.81269">
        <ele>662.48559570312</ele>
        <time>2011-04-24T09:29:03Z</time>
      </trkpt>
      <trkpt lat="42.89742" lon="1.81258">
        <ele>655.27587890625</ele>
        <time>2011-04-24T09:29:08Z</time>
      </trkpt>
      <trkpt lat="42.89751" lon="1.81249">
        <ele>644.701171875</ele>
        <time>2011-04-24T09:29:13Z</time>
      </trkpt>
      <trkpt lat="42.89752" lon="1.81248">
        <ele>642.77880859375</ele>
        <time>2011-04-24T09:29:14Z</time>
      </trkpt>
      <trkpt lat="42.89758" lon="1.81246">
        <ele>637.49145507812</ele>
        <time>2011-04-24T09:29:17Z</time>
      </trkpt>
      <trkpt lat="42.89767" lon="1.81242">
        <ele>623.55249023438</ele>
        <time>2011-04-24T09:29:22Z</time>
      </trkpt>
      <trkpt lat="42.89775" lon="1.81237">
        <ele>605.76806640625</ele>
        <time>2011-04-24T09:29:29Z</time>
      </trkpt>
      <trkpt lat="42.89777" lon="1.81226">
        <ele>595.67407226562</ele>
        <time>2011-04-24T09:29:34Z</time>
      </trkpt>
      <trkpt lat="42.89786" lon="1.81213">
        <ele>581.25439453125</ele>
        <time>2011-04-24T09:29:41Z</time>
      </trkpt>
      <trkpt lat="42.89793" lon="1.8121">
        <ele>575.96704101562</ele>
        <time>2011-04-24T09:29:45Z</time>
      </trkpt>
      <trkpt lat="42.89797" lon="1.81206">
        <ele>572.12182617188</ele>
        <time>2011-04-24T09:29:48Z</time>
      </trkpt>
      <trkpt lat="42.89806" lon="1.81204">
        <ele>567.79565429688</ele>
        <time>2011-04-24T09:29:53Z</time>
      </trkpt>
      <trkpt lat="42.89808" lon="1.81204">
        <ele>566.83447265625</ele>
        <time>2011-04-24T09:29:54Z</time>
      </trkpt>
      <trkpt lat="42.89816" lon="1.81201">
        <ele>563.46997070312</ele>
        <time>2011-04-24T09:29:58Z</time>
      </trkpt>
      <trkpt lat="42.89826" lon="1.81199">
        <ele>559.62475585938</ele>
        <time>2011-04-24T09:30:03Z</time>
      </trkpt>
      <trkpt lat="42.89835" lon="1.81186">
        <ele>555.779296875</ele>
        <time>2011-04-24T09:30:09Z</time>
      </trkpt>
      <trkpt lat="42.89843" lon="1.81178">
        <ele>551.93408203125</ele>
        <time>2011-04-24T09:30:13Z</time>
      </trkpt>
      <trkpt lat="42.89853" lon="1.81174">
        <ele>553.85668945312</ele>
        <time>2011-04-24T09:30:16Z</time>
      </trkpt>
      <trkpt lat="42.89872" lon="1.81167">
        <ele>560.5859375</ele>
        <time>2011-04-24T09:30:21Z</time>
      </trkpt>
      <trkpt lat="42.89886" lon="1.81162">
        <ele>567.31518554688</ele>
        <time>2011-04-24T09:30:25Z</time>
      </trkpt>
      <trkpt lat="42.89889" lon="1.81161">
        <ele>568.75708007812</ele>
        <time>2011-04-24T09:30:26Z</time>
      </trkpt>
      <trkpt lat="42.89909" lon="1.81157">
        <ele>580.29296875</ele>
        <time>2011-04-24T09:30:32Z</time>
      </trkpt>
      <trkpt lat="42.89916" lon="1.81156">
        <ele>582.21557617188</ele>
        <time>2011-04-24T09:30:34Z</time>
      </trkpt>
      <trkpt lat="42.89923" lon="1.81164">
        <ele>581.73486328125</ele>
        <time>2011-04-24T09:30:37Z</time>
      </trkpt>
      <trkpt lat="42.89935" lon="1.81176">
        <ele>581.73486328125</ele>
        <time>2011-04-24T09:30:42Z</time>
      </trkpt>
      <trkpt lat="42.89938" lon="1.81177">
        <ele>581.73486328125</ele>
        <time>2011-04-24T09:30:43Z</time>
      </trkpt>
      <trkpt lat="42.89953" lon="1.81183">
        <ele>581.73486328125</ele>
        <time>2011-04-24T09:30:48Z</time>
      </trkpt>
      <trkpt lat="42.89968" lon="1.81189">
        <ele>579.81225585938</ele>
        <time>2011-04-24T09:30:54Z</time>
      </trkpt>
      <trkpt lat="42.89979" lon="1.81188">
        <ele>585.099609375</ele>
        <time>2011-04-24T09:30:56Z</time>
      </trkpt>
      <trkpt lat="42.8999" lon="1.81185">
        <ele>582.21557617188</ele>
        <time>2011-04-24T09:31:01Z</time>
      </trkpt>
      <trkpt lat="42.89994" lon="1.81185">
        <ele>580.77368164062</ele>
        <time>2011-04-24T09:31:03Z</time>
      </trkpt>
      <trkpt lat="42.89999" lon="1.81186">
        <ele>578.37036132812</ele>
        <time>2011-04-24T09:31:07Z</time>
      </trkpt>
      <trkpt lat="42.9001" lon="1.81193">
        <ele>573.08325195312</ele>
        <time>2011-04-24T09:31:12Z</time>
      </trkpt>
      <trkpt lat="42.90019" lon="1.81196">
        <ele>567.31518554688</ele>
        <time>2011-04-24T09:31:17Z</time>
      </trkpt>
      <trkpt lat="42.90027" lon="1.81199">
        <ele>561.54736328125</ele>
        <time>2011-04-24T09:31:21Z</time>
      </trkpt>
      <trkpt lat="42.90031" lon="1.81201">
        <ele>558.66333007812</ele>
        <time>2011-04-24T09:31:23Z</time>
      </trkpt>
      <trkpt lat="42.90041" lon="1.81207">
        <ele>551.93408203125</ele>
        <time>2011-04-24T09:31:28Z</time>
      </trkpt>
      <trkpt lat="42.90043" lon="1.81208">
        <ele>550.4921875</ele>
        <time>2011-04-24T09:31:29Z</time>
      </trkpt>
      <trkpt lat="42.90053" lon="1.81214">
        <ele>543.76281738281</ele>
        <time>2011-04-24T09:31:35Z</time>
      </trkpt>
      <trkpt lat="42.90055" lon="1.81214">
        <ele>542.32092285156</ele>
        <time>2011-04-24T09:31:36Z</time>
      </trkpt>
      <trkpt lat="42.90069" lon="1.81218">
        <ele>536.07238769531</ele>
        <time>2011-04-24T09:31:42Z</time>
      </trkpt>
      <trkpt lat="42.90074" lon="1.8122">
        <ele>533.18835449219</ele>
        <time>2011-04-24T09:31:45Z</time>
      </trkpt>
      <trkpt lat="42.90086" lon="1.81224">
        <ele>528.86254882812</ele>
        <time>2011-04-24T09:31:50Z</time>
      </trkpt>
      <trkpt lat="42.901" lon="1.81226">
        <ele>526.45910644531</ele>
        <time>2011-04-24T09:31:55Z</time>
      </trkpt>
      <trkpt lat="42.90115" lon="1.81232">
        <ele>522.61389160156</ele>
        <time>2011-04-24T09:32:01Z</time>
      </trkpt>
      <trkpt lat="42.90129" lon="1.81235">
        <ele>528.86254882812</ele>
        <time>2011-04-24T09:32:04Z</time>
      </trkpt>
      <trkpt lat="42.90155" lon="1.81239">
        <ele>541.35949707031</ele>
        <time>2011-04-24T09:32:10Z</time>
      </trkpt>
      <trkpt lat="42.90164" lon="1.81243">
        <ele>545.685546875</ele>
        <time>2011-04-24T09:32:12Z</time>
      </trkpt>
      <trkpt lat="42.90197" lon="1.81254">
        <ele>585.099609375</ele>
        <time>2011-04-24T09:32:18Z</time>
      </trkpt>
      <trkpt lat="42.9021" lon="1.81258">
        <ele>600.96118164062</ele>
        <time>2011-04-24T09:32:20Z</time>
      </trkpt>
      <trkpt lat="42.9023" lon="1.81272">
        <ele>618.26489257812</ele>
        <time>2011-04-24T09:32:25Z</time>
      </trkpt>
      <trkpt lat="42.90244" lon="1.81297">
        <ele>626.9169921875</ele>
        <time>2011-04-24T09:32:32Z</time>
      </trkpt>
      <trkpt lat="42.9025" lon="1.81312">
        <ele>628.35888671875</ele>
        <time>2011-04-24T09:32:36Z</time>
      </trkpt>
      <trkpt lat="42.90257" lon="1.8133">
        <ele>630.28149414062</ele>
        <time>2011-04-24T09:32:41Z</time>
      </trkpt>
      <trkpt lat="42.90273" lon="1.81346">
        <ele>635.08813476562</ele>
        <time>2011-04-24T09:32:47Z</time>
      </trkpt>
      <trkpt lat="42.90284" lon="1.81355">
        <ele>640.85595703125</ele>
        <time>2011-04-24T09:32:51Z</time>
      </trkpt>
      <trkpt lat="42.903" lon="1.81366">
        <ele>649.98852539062</ele>
        <time>2011-04-24T09:32:56Z</time>
      </trkpt>
      <trkpt lat="42.90312" lon="1.81382">
        <ele>660.08227539062</ele>
        <time>2011-04-24T09:33:01Z</time>
      </trkpt>
      <trkpt lat="42.90313" lon="1.81401">
        <ele>661.04370117188</ele>
        <time>2011-04-24T09:33:06Z</time>
      </trkpt>
      <trkpt lat="42.90316" lon="1.81421">
        <ele>658.64038085938</ele>
        <time>2011-04-24T09:33:11Z</time>
      </trkpt>
      <trkpt lat="42.90318" lon="1.81435">
        <ele>651.43041992188</ele>
        <time>2011-04-24T09:33:15Z</time>
      </trkpt>
      <trkpt lat="42.90322" lon="1.81454">
        <ele>643.73999023438</ele>
        <time>2011-04-24T09:33:20Z</time>
      </trkpt>
      <trkpt lat="42.90324" lon="1.81472">
        <ele>634.607421875</ele>
        <time>2011-04-24T09:33:25Z</time>
      </trkpt>
      <trkpt lat="42.90325" lon="1.81475">
        <ele>633.64599609375</ele>
        <time>2011-04-24T09:33:26Z</time>
      </trkpt>
      <trkpt lat="42.90326" lon="1.81492">
        <ele>625.95556640625</ele>
        <time>2011-04-24T09:33:31Z</time>
      </trkpt>
      <trkpt lat="42.90336" lon="1.81503">
        <ele>622.1103515625</ele>
        <time>2011-04-24T09:33:36Z</time>
      </trkpt>
      <trkpt lat="42.90345" lon="1.8151">
        <ele>619.70703125</ele>
        <time>2011-04-24T09:33:40Z</time>
      </trkpt>
      <trkpt lat="42.90355" lon="1.81519">
        <ele>617.7841796875</ele>
        <time>2011-04-24T09:33:44Z</time>
      </trkpt>
      <trkpt lat="42.90359" lon="1.81531">
        <ele>618.26489257812</ele>
        <time>2011-04-24T09:33:48Z</time>
      </trkpt>
      <trkpt lat="42.90369" lon="1.81539">
        <ele>621.14916992188</ele>
        <time>2011-04-24T09:33:51Z</time>
      </trkpt>
      <trkpt lat="42.90371" lon="1.81542">
        <ele>621.14916992188</ele>
        <time>2011-04-24T09:33:52Z</time>
      </trkpt>
      <trkpt lat="42.9038" lon="1.81561">
        <ele>620.66845703125</ele>
        <time>2011-04-24T09:33:57Z</time>
      </trkpt>
      <trkpt lat="42.90386" lon="1.81583">
        <ele>619.70703125</ele>
        <time>2011-04-24T09:34:03Z</time>
      </trkpt>
      <trkpt lat="42.90388" lon="1.81601">
        <ele>617.7841796875</ele>
        <time>2011-04-24T09:34:08Z</time>
      </trkpt>
      <trkpt lat="42.90388" lon="1.81604">
        <ele>617.7841796875</ele>
        <time>2011-04-24T09:34:09Z</time>
      </trkpt>
      <trkpt lat="42.90392" lon="1.81626">
        <ele>615.38110351562</ele>
        <time>2011-04-24T09:34:15Z</time>
      </trkpt>
      <trkpt lat="42.90397" lon="1.81648">
        <ele>613.45849609375</ele>
        <time>2011-04-24T09:34:21Z</time>
      </trkpt>
      <trkpt lat="42.90403" lon="1.81665">
        <ele>613.45849609375</ele>
        <time>2011-04-24T09:34:26Z</time>
      </trkpt>
      <trkpt lat="42.90412" lon="1.81691">
        <ele>613.93896484375</ele>
        <time>2011-04-24T09:34:33Z</time>
      </trkpt>
      <trkpt lat="42.90418" lon="1.81708">
        <ele>614.900390625</ele>
        <time>2011-04-24T09:34:38Z</time>
      </trkpt>
      <trkpt lat="42.90422" lon="1.81725">
        <ele>616.34228515625</ele>
        <time>2011-04-24T09:34:43Z</time>
      </trkpt>
      <trkpt lat="42.90424" lon="1.81739">
        <ele>616.34228515625</ele>
        <time>2011-04-24T09:34:47Z</time>
      </trkpt>
      <trkpt lat="42.9043" lon="1.81753">
        <ele>616.82299804688</ele>
        <time>2011-04-24T09:34:51Z</time>
      </trkpt>
      <trkpt lat="42.90439" lon="1.81773">
        <ele>615.38110351562</ele>
        <time>2011-04-24T09:34:57Z</time>
      </trkpt>
      <trkpt lat="42.90453" lon="1.81793">
        <ele>614.41967773438</ele>
        <time>2011-04-24T09:35:04Z</time>
      </trkpt>
      <trkpt lat="42.90461" lon="1.81809">
        <ele>613.93896484375</ele>
        <time>2011-04-24T09:35:09Z</time>
      </trkpt>
      <trkpt lat="42.90461" lon="1.8182">
        <ele>613.45849609375</ele>
        <time>2011-04-24T09:35:12Z</time>
      </trkpt>
      <trkpt lat="42.90466" lon="1.8184">
        <ele>613.93896484375</ele>
        <time>2011-04-24T09:35:18Z</time>
      </trkpt>
      <trkpt lat="42.90471" lon="1.81856">
        <ele>612.97778320312</ele>
        <time>2011-04-24T09:35:23Z</time>
      </trkpt>
      <trkpt lat="42.90474" lon="1.81875">
        <ele>613.45849609375</ele>
        <time>2011-04-24T09:35:28Z</time>
      </trkpt>
      <trkpt lat="42.90481" lon="1.81887">
        <ele>614.900390625</ele>
        <time>2011-04-24T09:35:32Z</time>
      </trkpt>
      <trkpt lat="42.9049" lon="1.81905">
        <ele>612.97778320312</ele>
        <time>2011-04-24T09:35:38Z</time>
      </trkpt>
      <trkpt lat="42.90498" lon="1.81917">
        <ele>612.4970703125</ele>
        <time>2011-04-24T09:35:42Z</time>
      </trkpt>
      <trkpt lat="42.90506" lon="1.8193">
        <ele>612.4970703125</ele>
        <time>2011-04-24T09:35:46Z</time>
      </trkpt>
      <trkpt lat="42.90512" lon="1.81948">
        <ele>609.13256835938</ele>
        <time>2011-04-24T09:35:51Z</time>
      </trkpt>
      <trkpt lat="42.90515" lon="1.8197">
        <ele>608.65185546875</ele>
        <time>2011-04-24T09:35:57Z</time>
      </trkpt>
      <trkpt lat="42.90515" lon="1.81986">
        <ele>608.65185546875</ele>
        <time>2011-04-24T09:36:01Z</time>
      </trkpt>
      <trkpt lat="42.90516" lon="1.81992">
        <ele>609.61328125</ele>
        <time>2011-04-24T09:36:03Z</time>
      </trkpt>
      <trkpt lat="42.90517" lon="1.82011">
        <ele>610.57446289062</ele>
        <time>2011-04-24T09:36:09Z</time>
      </trkpt>
      <trkpt lat="42.90518" lon="1.82014">
        <ele>610.57446289062</ele>
        <time>2011-04-24T09:36:10Z</time>
      </trkpt>
      <trkpt lat="42.90524" lon="1.82032">
        <ele>614.41967773438</ele>
        <time>2011-04-24T09:36:16Z</time>
      </trkpt>
      <trkpt lat="42.90531" lon="1.82045">
        <ele>616.82299804688</ele>
        <time>2011-04-24T09:36:21Z</time>
      </trkpt>
      <trkpt lat="42.90541" lon="1.82059">
        <ele>620.18774414062</ele>
        <time>2011-04-24T09:36:26Z</time>
      </trkpt>
      <trkpt lat="42.90549" lon="1.82072">
        <ele>622.59106445312</ele>
        <time>2011-04-24T09:36:30Z</time>
      </trkpt>
      <trkpt lat="42.90557" lon="1.82082">
        <ele>625.95556640625</ele>
        <time>2011-04-24T09:36:33Z</time>
      </trkpt>
      <trkpt lat="42.90568" lon="1.82093">
        <ele>630.28149414062</ele>
        <time>2011-04-24T09:36:37Z</time>
      </trkpt>
      <trkpt lat="42.9057" lon="1.82095">
        <ele>631.24291992188</ele>
        <time>2011-04-24T09:36:38Z</time>
      </trkpt>
      <trkpt lat="42.90571" lon="1.82114">
        <ele>625.47485351562</ele>
        <time>2011-04-24T09:36:44Z</time>
      </trkpt>
      <trkpt lat="42.90573" lon="1.82116">
        <ele>625.95556640625</ele>
        <time>2011-04-24T09:36:45Z</time>
      </trkpt>
      <trkpt lat="42.90583" lon="1.82132">
        <ele>625.47485351562</ele>
        <time>2011-04-24T09:36:51Z</time>
      </trkpt>
      <trkpt lat="42.90589" lon="1.82142">
        <ele>628.35888671875</ele>
        <time>2011-04-24T09:36:55Z</time>
      </trkpt>
      <trkpt lat="42.90592" lon="1.82153">
        <ele>627.87817382812</ele>
        <time>2011-04-24T09:37:00Z</time>
      </trkpt>
      <trkpt lat="42.90589" lon="1.82166">
        <ele>624.03295898438</ele>
        <time>2011-04-24T09:37:04Z</time>
      </trkpt>
      <trkpt lat="42.9059" lon="1.82182">
        <ele>618.26489257812</ele>
        <time>2011-04-24T09:37:09Z</time>
      </trkpt>
      <trkpt lat="42.90594" lon="1.82196">
        <ele>615.38110351562</ele>
        <time>2011-04-24T09:37:13Z</time>
      </trkpt>
      <trkpt lat="42.90595" lon="1.82203">
        <ele>613.45849609375</ele>
        <time>2011-04-24T09:37:15Z</time>
      </trkpt>
      <trkpt lat="42.90598" lon="1.82215">
        <ele>611.53588867188</ele>
        <time>2011-04-24T09:37:19Z</time>
      </trkpt>
      <trkpt lat="42.90606" lon="1.82227">
        <ele>611.05517578125</ele>
        <time>2011-04-24T09:37:24Z</time>
      </trkpt>
      <trkpt lat="42.90619" lon="1.82239">
        <ele>611.53588867188</ele>
        <time>2011-04-24T09:37:30Z</time>
      </trkpt>
      <trkpt lat="42.90638" lon="1.82251">
        <ele>609.13256835938</ele>
        <time>2011-04-24T09:37:37Z</time>
      </trkpt>
      <trkpt lat="42.90651" lon="1.82255">
        <ele>608.17138671875</ele>
        <time>2011-04-24T09:37:41Z</time>
      </trkpt>
      <trkpt lat="42.90671" lon="1.82257">
        <ele>605.28735351562</ele>
        <time>2011-04-24T09:37:47Z</time>
      </trkpt>
      <trkpt lat="42.90679" lon="1.82259">
        <ele>605.28735351562</ele>
        <time>2011-04-24T09:37:50Z</time>
      </trkpt>
      <trkpt lat="42.90685" lon="1.82268">
        <ele>603.36450195312</ele>
        <time>2011-04-24T09:37:54Z</time>
      </trkpt>
      <trkpt lat="42.9069" lon="1.82272">
        <ele>603.84521484375</ele>
        <time>2011-04-24T09:37:57Z</time>
      </trkpt>
      <trkpt lat="42.907" lon="1.82285">
        <ele>607.69067382812</ele>
        <time>2011-04-24T09:38:03Z</time>
      </trkpt>
      <trkpt lat="42.90706" lon="1.82298">
        <ele>609.61328125</ele>
        <time>2011-04-24T09:38:07Z</time>
      </trkpt>
      <trkpt lat="42.90715" lon="1.82315">
        <ele>616.34228515625</ele>
        <time>2011-04-24T09:38:13Z</time>
      </trkpt>
      <trkpt lat="42.90722" lon="1.82324">
        <ele>621.62963867188</ele>
        <time>2011-04-24T09:38:16Z</time>
      </trkpt>
      <trkpt lat="42.9073" lon="1.82344">
        <ele>624.99438476562</ele>
        <time>2011-04-24T09:38:22Z</time>
      </trkpt>
      <trkpt lat="42.90733" lon="1.82358">
        <ele>622.59106445312</ele>
        <time>2011-04-24T09:38:26Z</time>
      </trkpt>
      <trkpt lat="42.90736" lon="1.82369">
        <ele>620.18774414062</ele>
        <time>2011-04-24T09:38:29Z</time>
      </trkpt>
      <trkpt lat="42.9074" lon="1.82385">
        <ele>616.82299804688</ele>
        <time>2011-04-24T09:38:34Z</time>
      </trkpt>
      <trkpt lat="42.90742" lon="1.82399">
        <ele>617.3037109375</ele>
        <time>2011-04-24T09:38:38Z</time>
      </trkpt>
      <trkpt lat="42.90742" lon="1.82402">
        <ele>617.7841796875</ele>
        <time>2011-04-24T09:38:39Z</time>
      </trkpt>
      <trkpt lat="42.90742" lon="1.82409">
        <ele>617.3037109375</ele>
        <time>2011-04-24T09:38:41Z</time>
      </trkpt>
      <trkpt lat="42.90744" lon="1.82426">
        <ele>613.45849609375</ele>
        <time>2011-04-24T09:38:46Z</time>
      </trkpt>
      <trkpt lat="42.9074" lon="1.82445">
        <ele>608.17138671875</ele>
        <time>2011-04-24T09:38:52Z</time>
      </trkpt>
      <trkpt lat="42.90737" lon="1.82462">
        <ele>607.2099609375</ele>
        <time>2011-04-24T09:38:57Z</time>
      </trkpt>
      <trkpt lat="42.90736" lon="1.8248">
        <ele>607.69067382812</ele>
        <time>2011-04-24T09:39:02Z</time>
      </trkpt>
      <trkpt lat="42.90737" lon="1.82499">
        <ele>609.61328125</ele>
        <time>2011-04-24T09:39:07Z</time>
      </trkpt>
      <trkpt lat="42.90741" lon="1.82517">
        <ele>611.53588867188</ele>
        <time>2011-04-24T09:39:12Z</time>
      </trkpt>
      <trkpt lat="42.90742" lon="1.82537">
        <ele>613.93896484375</ele>
        <time>2011-04-24T09:39:18Z</time>
      </trkpt>
      <trkpt lat="42.90745" lon="1.8255">
        <ele>614.41967773438</ele>
        <time>2011-04-24T09:39:22Z</time>
      </trkpt>
      <trkpt lat="42.90746" lon="1.82565">
        <ele>614.41967773438</ele>
        <time>2011-04-24T09:39:26Z</time>
      </trkpt>
      <trkpt lat="42.90746" lon="1.82575">
        <ele>613.93896484375</ele>
        <time>2011-04-24T09:39:29Z</time>
      </trkpt>
      <trkpt lat="42.90746" lon="1.82591">
        <ele>612.0166015625</ele>
        <time>2011-04-24T09:39:34Z</time>
      </trkpt>
      <trkpt lat="42.90742" lon="1.82609">
        <ele>608.17138671875</ele>
        <time>2011-04-24T09:39:40Z</time>
      </trkpt>
      <trkpt lat="42.90733" lon="1.82626">
        <ele>604.806640625</ele>
        <time>2011-04-24T09:39:46Z</time>
      </trkpt>
      <trkpt lat="42.90729" lon="1.82632">
        <ele>604.806640625</ele>
        <time>2011-04-24T09:39:48Z</time>
      </trkpt>
      <trkpt lat="42.90721" lon="1.82641">
        <ele>604.326171875</ele>
        <time>2011-04-24T09:39:52Z</time>
      </trkpt>
      <trkpt lat="42.90715" lon="1.82648">
        <ele>603.36450195312</ele>
        <time>2011-04-24T09:39:55Z</time>
      </trkpt>
      <trkpt lat="42.90712" lon="1.82666">
        <ele>603.36450195312</ele>
        <time>2011-04-24T09:40:01Z</time>
      </trkpt>
      <trkpt lat="42.9072" lon="1.8267">
        <ele>604.806640625</ele>
        <time>2011-04-24T09:40:05Z</time>
      </trkpt>
      <trkpt lat="42.90723" lon="1.82671">
        <ele>604.806640625</ele>
        <time>2011-04-24T09:40:06Z</time>
      </trkpt>
      <trkpt lat="42.9074" lon="1.82676">
        <ele>605.76806640625</ele>
        <time>2011-04-24T09:40:12Z</time>
      </trkpt>
      <trkpt lat="42.90752" lon="1.82678">
        <ele>606.24853515625</ele>
        <time>2011-04-24T09:40:16Z</time>
      </trkpt>
      <trkpt lat="42.90764" lon="1.82679">
        <ele>603.84521484375</ele>
        <time>2011-04-24T09:40:20Z</time>
      </trkpt>
      <trkpt lat="42.9078" lon="1.82679">
        <ele>601.44189453125</ele>
        <time>2011-04-24T09:40:26Z</time>
      </trkpt>
      <trkpt lat="42.90791" lon="1.82683">
        <ele>600.96118164062</ele>
        <time>2011-04-24T09:40:30Z</time>
      </trkpt>
      <trkpt lat="42.90799" lon="1.82694">
        <ele>600</ele>
        <time>2011-04-24T09:40:34Z</time>
      </trkpt>
      <trkpt lat="42.90806" lon="1.82707">
        <ele>598.07739257812</ele>
        <time>2011-04-24T09:40:38Z</time>
      </trkpt>
      <trkpt lat="42.90813" lon="1.82717">
        <ele>597.5966796875</ele>
        <time>2011-04-24T09:40:42Z</time>
      </trkpt>
      <trkpt lat="42.90821" lon="1.82737">
        <ele>598.07739257812</ele>
        <time>2011-04-24T09:40:48Z</time>
      </trkpt>
      <trkpt lat="42.90818" lon="1.82754">
        <ele>597.11596679688</ele>
        <time>2011-04-24T09:40:53Z</time>
      </trkpt>
      <trkpt lat="42.90814" lon="1.82772">
        <ele>597.5966796875</ele>
        <time>2011-04-24T09:40:59Z</time>
      </trkpt>
      <trkpt lat="42.90813" lon="1.82775">
        <ele>597.5966796875</ele>
        <time>2011-04-24T09:41:00Z</time>
      </trkpt>
      <trkpt lat="42.90819" lon="1.8279">
        <ele>597.5966796875</ele>
        <time>2011-04-24T09:41:05Z</time>
      </trkpt>
      <trkpt lat="42.90829" lon="1.82799">
        <ele>597.11596679688</ele>
        <time>2011-04-24T09:41:09Z</time>
      </trkpt>
      <trkpt lat="42.90833" lon="1.82802">
        <ele>597.11596679688</ele>
        <time>2011-04-24T09:41:11Z</time>
      </trkpt>
      <trkpt lat="42.90844" lon="1.82812">
        <ele>597.5966796875</ele>
        <time>2011-04-24T09:41:16Z</time>
      </trkpt>
      <trkpt lat="42.90855" lon="1.82818">
        <ele>598.55786132812</ele>
        <time>2011-04-24T09:41:20Z</time>
      </trkpt>
      <trkpt lat="42.90865" lon="1.82821">
        <ele>597.5966796875</ele>
        <time>2011-04-24T09:41:24Z</time>
      </trkpt>
      <trkpt lat="42.90877" lon="1.82825">
        <ele>598.07739257812</ele>
        <time>2011-04-24T09:41:28Z</time>
      </trkpt>
      <trkpt lat="42.90889" lon="1.82829">
        <ele>598.07739257812</ele>
        <time>2011-04-24T09:41:33Z</time>
      </trkpt>
      <trkpt lat="42.90896" lon="1.82841">
        <ele>596.63549804688</ele>
        <time>2011-04-24T09:41:37Z</time>
      </trkpt>
      <trkpt lat="42.90903" lon="1.82855">
        <ele>594.71264648438</ele>
        <time>2011-04-24T09:41:41Z</time>
      </trkpt>
      <trkpt lat="42.90911" lon="1.82871">
        <ele>593.27075195312</ele>
        <time>2011-04-24T09:41:46Z</time>
      </trkpt>
      <trkpt lat="42.9092" lon="1.82889">
        <ele>593.75146484375</ele>
        <time>2011-04-24T09:41:52Z</time>
      </trkpt>
      <trkpt lat="42.90925" lon="1.82901">
        <ele>593.27075195312</ele>
        <time>2011-04-24T09:41:56Z</time>
      </trkpt>
      <trkpt lat="42.90934" lon="1.8292">
        <ele>591.82885742188</ele>
        <time>2011-04-24T09:42:01Z</time>
      </trkpt>
      <trkpt lat="42.9094" lon="1.82935">
        <ele>590.38696289062</ele>
        <time>2011-04-24T09:42:05Z</time>
      </trkpt>
      <trkpt lat="42.90947" lon="1.82954">
        <ele>589.42553710938</ele>
        <time>2011-04-24T09:42:10Z</time>
      </trkpt>
      <trkpt lat="42.90951" lon="1.82968">
        <ele>588.94506835938</ele>
        <time>2011-04-24T09:42:14Z</time>
      </trkpt>
      <trkpt lat="42.90951" lon="1.82971">
        <ele>588.94506835938</ele>
        <time>2011-04-24T09:42:15Z</time>
      </trkpt>
      <trkpt lat="42.90958" lon="1.82982">
        <ele>588.94506835938</ele>
        <time>2011-04-24T09:42:19Z</time>
      </trkpt>
      <trkpt lat="42.90965" lon="1.82991">
        <ele>588.94506835938</ele>
        <time>2011-04-24T09:42:22Z</time>
      </trkpt>
      <trkpt lat="42.9097" lon="1.83004">
        <ele>587.50268554688</ele>
        <time>2011-04-24T09:42:27Z</time>
      </trkpt>
      <trkpt lat="42.90978" lon="1.83016">
        <ele>588.46435546875</ele>
        <time>2011-04-24T09:42:31Z</time>
      </trkpt>
      <trkpt lat="42.90985" lon="1.83035">
        <ele>587.50268554688</ele>
        <time>2011-04-24T09:42:37Z</time>
      </trkpt>
      <trkpt lat="42.90995" lon="1.83049">
        <ele>591.82885742188</ele>
        <time>2011-04-24T09:42:42Z</time>
      </trkpt>
      <trkpt lat="42.91005" lon="1.8306">
        <ele>597.11596679688</ele>
        <time>2011-04-24T09:42:47Z</time>
      </trkpt>
      <trkpt lat="42.91007" lon="1.83072">
        <ele>595.67407226562</ele>
        <time>2011-04-24T09:42:51Z</time>
      </trkpt>
      <trkpt lat="42.91011" lon="1.83087">
        <ele>595.193359375</ele>
        <time>2011-04-24T09:42:55Z</time>
      </trkpt>
      <trkpt lat="42.91014" lon="1.83107">
        <ele>592.79028320312</ele>
        <time>2011-04-24T09:43:00Z</time>
      </trkpt>
      <trkpt lat="42.91016" lon="1.83122">
        <ele>589.42553710938</ele>
        <time>2011-04-24T09:43:04Z</time>
      </trkpt>
      <trkpt lat="42.91022" lon="1.83141">
        <ele>587.50268554688</ele>
        <time>2011-04-24T09:43:09Z</time>
      </trkpt>
      <trkpt lat="42.91025" lon="1.8316">
        <ele>584.13818359375</ele>
        <time>2011-04-24T09:43:14Z</time>
      </trkpt>
      <trkpt lat="42.91033" lon="1.8318">
        <ele>583.1767578125</ele>
        <time>2011-04-24T09:43:20Z</time>
      </trkpt>
      <trkpt lat="42.91041" lon="1.83195">
        <ele>583.65747070312</ele>
        <time>2011-04-24T09:43:25Z</time>
      </trkpt>
      <trkpt lat="42.91044" lon="1.8321">
        <ele>582.6962890625</ele>
        <time>2011-04-24T09:43:29Z</time>
      </trkpt>
      <trkpt lat="42.91045" lon="1.83224">
        <ele>581.73486328125</ele>
        <time>2011-04-24T09:43:33Z</time>
      </trkpt>
      <trkpt lat="42.91051" lon="1.83242">
        <ele>583.65747070312</ele>
        <time>2011-04-24T09:43:38Z</time>
      </trkpt>
      <trkpt lat="42.91057" lon="1.83257">
        <ele>584.13818359375</ele>
        <time>2011-04-24T09:43:42Z</time>
      </trkpt>
      <trkpt lat="42.91065" lon="1.83275">
        <ele>586.54150390625</ele>
        <time>2011-04-24T09:43:48Z</time>
      </trkpt>
      <trkpt lat="42.91069" lon="1.83288">
        <ele>590.86743164062</ele>
        <time>2011-04-24T09:43:52Z</time>
      </trkpt>
      <trkpt lat="42.91071" lon="1.83291">
        <ele>591.34814453125</ele>
        <time>2011-04-24T09:43:53Z</time>
      </trkpt>
      <trkpt lat="42.91077" lon="1.83312">
        <ele>590.38696289062</ele>
        <time>2011-04-24T09:44:00Z</time>
      </trkpt>
      <trkpt lat="42.91086" lon="1.8333">
        <ele>595.67407226562</ele>
        <time>2011-04-24T09:44:06Z</time>
      </trkpt>
      <trkpt lat="42.91095" lon="1.83345">
        <ele>597.5966796875</ele>
        <time>2011-04-24T09:44:11Z</time>
      </trkpt>
      <trkpt lat="42.91099" lon="1.83357">
        <ele>599.03857421875</ele>
        <time>2011-04-24T09:44:15Z</time>
      </trkpt>
      <trkpt lat="42.91106" lon="1.83368">
        <ele>599.51928710938</ele>
        <time>2011-04-24T09:44:19Z</time>
      </trkpt>
      <trkpt lat="42.91114" lon="1.83384">
        <ele>598.55786132812</ele>
        <time>2011-04-24T09:44:24Z</time>
      </trkpt>
      <trkpt lat="42.9112" lon="1.83399">
        <ele>594.23217773438</ele>
        <time>2011-04-24T09:44:29Z</time>
      </trkpt>
      <trkpt lat="42.91129" lon="1.83419">
        <ele>591.34814453125</ele>
        <time>2011-04-24T09:44:35Z</time>
      </trkpt>
      <trkpt lat="42.91134" lon="1.83432">
        <ele>585.580078125</ele>
        <time>2011-04-24T09:44:40Z</time>
      </trkpt>
      <trkpt lat="42.9114" lon="1.83444">
        <ele>585.580078125</ele>
        <time>2011-04-24T09:44:44Z</time>
      </trkpt>
      <trkpt lat="42.91144" lon="1.83457">
        <ele>584.61889648438</ele>
        <time>2011-04-24T09:44:48Z</time>
      </trkpt>
      <trkpt lat="42.9115" lon="1.83469">
        <ele>583.1767578125</ele>
        <time>2011-04-24T09:44:52Z</time>
      </trkpt>
      <trkpt lat="42.9116" lon="1.83485">
        <ele>581.25439453125</ele>
        <time>2011-04-24T09:44:57Z</time>
      </trkpt>
      <trkpt lat="42.91163" lon="1.83501">
        <ele>579.33154296875</ele>
        <time>2011-04-24T09:45:02Z</time>
      </trkpt>
      <trkpt lat="42.91169" lon="1.83511">
        <ele>578.37036132812</ele>
        <time>2011-04-24T09:45:05Z</time>
      </trkpt>
      <trkpt lat="42.91175" lon="1.83528">
        <ele>577.4091796875</ele>
        <time>2011-04-24T09:45:10Z</time>
      </trkpt>
      <trkpt lat="42.91184" lon="1.83544">
        <ele>578.37036132812</ele>
        <time>2011-04-24T09:45:15Z</time>
      </trkpt>
      <trkpt lat="42.91187" lon="1.83548">
        <ele>579.81225585938</ele>
        <time>2011-04-24T09:45:17Z</time>
      </trkpt>
      <trkpt lat="42.91197" lon="1.83567">
        <ele>580.77368164062</ele>
        <time>2011-04-24T09:45:23Z</time>
      </trkpt>
      <trkpt lat="42.91198" lon="1.83574">
        <ele>580.77368164062</ele>
        <time>2011-04-24T09:45:25Z</time>
      </trkpt>
      <trkpt lat="42.91188" lon="1.83585">
        <ele>578.85107421875</ele>
        <time>2011-04-24T09:45:30Z</time>
      </trkpt>
      <trkpt lat="42.9118" lon="1.83594">
        <ele>578.37036132812</ele>
        <time>2011-04-24T09:45:34Z</time>
      </trkpt>
      <trkpt lat="42.91176" lon="1.83599">
        <ele>579.33154296875</ele>
        <time>2011-04-24T09:45:36Z</time>
      </trkpt>
      <trkpt lat="42.91169" lon="1.8361">
        <ele>580.29296875</ele>
        <time>2011-04-24T09:45:41Z</time>
      </trkpt>
      <trkpt lat="42.91168" lon="1.83628">
        <ele>580.77368164062</ele>
        <time>2011-04-24T09:45:47Z</time>
      </trkpt>
      <trkpt lat="42.91171" lon="1.83639">
        <ele>580.77368164062</ele>
        <time>2011-04-24T09:45:51Z</time>
      </trkpt>
      <trkpt lat="42.91174" lon="1.83654">
        <ele>582.6962890625</ele>
        <time>2011-04-24T09:45:57Z</time>
      </trkpt>
      <trkpt lat="42.91175" lon="1.83657">
        <ele>582.21557617188</ele>
        <time>2011-04-24T09:45:58Z</time>
      </trkpt>
      <trkpt lat="42.91174" lon="1.83666">
        <ele>581.73486328125</ele>
        <time>2011-04-24T09:46:01Z</time>
      </trkpt>
      <trkpt lat="42.9118" lon="1.83684">
        <ele>582.21557617188</ele>
        <time>2011-04-24T09:46:07Z</time>
      </trkpt>
      <trkpt lat="42.91191" lon="1.837">
        <ele>586.06079101562</ele>
        <time>2011-04-24T09:46:13Z</time>
      </trkpt>
      <trkpt lat="42.91201" lon="1.83711">
        <ele>588.94506835938</ele>
        <time>2011-04-24T09:46:18Z</time>
      </trkpt>
      <trkpt lat="42.91212" lon="1.83722">
        <ele>590.86743164062</ele>
        <time>2011-04-24T09:46:23Z</time>
      </trkpt>
      <trkpt lat="42.91228" lon="1.83734">
        <ele>595.67407226562</ele>
        <time>2011-04-24T09:46:28Z</time>
      </trkpt>
      <trkpt lat="42.91232" lon="1.83744">
        <ele>595.193359375</ele>
        <time>2011-04-24T09:46:32Z</time>
      </trkpt>
      <trkpt lat="42.91235" lon="1.83761">
        <ele>597.5966796875</ele>
        <time>2011-04-24T09:46:37Z</time>
      </trkpt>
      <trkpt lat="42.91241" lon="1.83773">
        <ele>595.67407226562</ele>
        <time>2011-04-24T09:46:42Z</time>
      </trkpt>
      <trkpt lat="42.91247" lon="1.83783">
        <ele>595.67407226562</ele>
        <time>2011-04-24T09:46:46Z</time>
      </trkpt>
      <trkpt lat="42.91257" lon="1.83795">
        <ele>596.15478515625</ele>
        <time>2011-04-24T09:46:51Z</time>
      </trkpt>
      <trkpt lat="42.91271" lon="1.83805">
        <ele>600</ele>
        <time>2011-04-24T09:46:56Z</time>
      </trkpt>
      <trkpt lat="42.91281" lon="1.83818">
        <ele>600.48071289062</ele>
        <time>2011-04-24T09:47:01Z</time>
      </trkpt>
      <trkpt lat="42.91294" lon="1.8383">
        <ele>601.92260742188</ele>
        <time>2011-04-24T09:47:06Z</time>
      </trkpt>
      <trkpt lat="42.913" lon="1.83847">
        <ele>595.67407226562</ele>
        <time>2011-04-24T09:47:11Z</time>
      </trkpt>
      <trkpt lat="42.91303" lon="1.83858">
        <ele>594.23217773438</ele>
        <time>2011-04-24T09:47:15Z</time>
      </trkpt>
      <trkpt lat="42.91315" lon="1.83875">
        <ele>594.23217773438</ele>
        <time>2011-04-24T09:47:22Z</time>
      </trkpt>
      <trkpt lat="42.91323" lon="1.83888">
        <ele>594.23217773438</ele>
        <time>2011-04-24T09:47:27Z</time>
      </trkpt>
      <trkpt lat="42.91328" lon="1.83906">
        <ele>591.34814453125</ele>
        <time>2011-04-24T09:47:33Z</time>
      </trkpt>
      <trkpt lat="42.9133" lon="1.83917">
        <ele>587.02197265625</ele>
        <time>2011-04-24T09:47:37Z</time>
      </trkpt>
      <trkpt lat="42.9133" lon="1.83919">
        <ele>586.54150390625</ele>
        <time>2011-04-24T09:47:38Z</time>
      </trkpt>
      <trkpt lat="42.91333" lon="1.83932">
        <ele>581.73486328125</ele>
        <time>2011-04-24T09:47:45Z</time>
      </trkpt>
      <trkpt lat="42.91333" lon="1.83938">
        <ele>583.65747070312</ele>
        <time>2011-04-24T09:47:48Z</time>
      </trkpt>
      <trkpt lat="42.91335" lon="1.83947">
        <ele>583.1767578125</ele>
        <time>2011-04-24T09:47:54Z</time>
      </trkpt>
      <trkpt lat="42.91337" lon="1.83959">
        <ele>583.65747070312</ele>
        <time>2011-04-24T09:48:02Z</time>
      </trkpt>
      <trkpt lat="42.91338" lon="1.83967">
        <ele>584.13818359375</ele>
        <time>2011-04-24T09:48:07Z</time>
      </trkpt>
      <trkpt lat="42.91339" lon="1.83969">
        <ele>584.13818359375</ele>
        <time>2011-04-24T09:48:08Z</time>
      </trkpt>
      <trkpt lat="42.91342" lon="1.83979">
        <ele>587.02197265625</ele>
        <time>2011-04-24T09:48:14Z</time>
      </trkpt>
      <trkpt lat="42.91342" lon="1.83981">
        <ele>587.02197265625</ele>
        <time>2011-04-24T09:48:16Z</time>
      </trkpt>
      <trkpt lat="42.91346" lon="1.83988">
        <ele>588.94506835938</ele>
        <time>2011-04-24T09:48:23Z</time>
      </trkpt>
      <trkpt lat="42.91351" lon="1.83996">
        <ele>591.34814453125</ele>
        <time>2011-04-24T09:48:29Z</time>
      </trkpt>
      <trkpt lat="42.91356" lon="1.84">
        <ele>591.82885742188</ele>
        <time>2011-04-24T09:48:33Z</time>
      </trkpt>
      <trkpt lat="42.91361" lon="1.84006">
        <ele>593.75146484375</ele>
        <time>2011-04-24T09:48:39Z</time>
      </trkpt>
      <trkpt lat="42.91364" lon="1.84011">
        <ele>590.86743164062</ele>
        <time>2011-04-24T09:48:43Z</time>
      </trkpt>
      <trkpt lat="42.91364" lon="1.84013">
        <ele>592.79028320312</ele>
        <time>2011-04-24T09:48:45Z</time>
      </trkpt>
      <trkpt lat="42.91367" lon="1.84017">
        <ele>591.34814453125</ele>
        <time>2011-04-24T09:48:49Z</time>
      </trkpt>
      <trkpt lat="42.91373" lon="1.84022">
        <ele>594.23217773438</ele>
        <time>2011-04-24T09:48:55Z</time>
      </trkpt>
      <trkpt lat="42.91381" lon="1.8403">
        <ele>594.71264648438</ele>
        <time>2011-04-24T09:49:01Z</time>
      </trkpt>
      <trkpt lat="42.91393" lon="1.84041">
        <ele>593.75146484375</ele>
        <time>2011-04-24T09:49:05Z</time>
      </trkpt>
      <trkpt lat="42.91404" lon="1.84058">
        <ele>594.71264648438</ele>
        <time>2011-04-24T09:49:11Z</time>
      </trkpt>
      <trkpt lat="42.9141" lon="1.84071">
        <ele>593.75146484375</ele>
        <time>2011-04-24T09:49:15Z</time>
      </trkpt>
      <trkpt lat="42.91421" lon="1.84086">
        <ele>593.27075195312</ele>
        <time>2011-04-24T09:49:20Z</time>
      </trkpt>
      <trkpt lat="42.91426" lon="1.84099">
        <ele>593.27075195312</ele>
        <time>2011-04-24T09:49:24Z</time>
      </trkpt>
      <trkpt lat="42.91427" lon="1.84102">
        <ele>592.3095703125</ele>
        <time>2011-04-24T09:49:25Z</time>
      </trkpt>
      <trkpt lat="42.91441" lon="1.84119">
        <ele>591.34814453125</ele>
        <time>2011-04-24T09:49:31Z</time>
      </trkpt>
      <trkpt lat="42.91451" lon="1.84131">
        <ele>591.34814453125</ele>
        <time>2011-04-24T09:49:36Z</time>
      </trkpt>
      <trkpt lat="42.9146" lon="1.84145">
        <ele>591.82885742188</ele>
        <time>2011-04-24T09:49:41Z</time>
      </trkpt>
      <trkpt lat="42.91468" lon="1.84157">
        <ele>592.79028320312</ele>
        <time>2011-04-24T09:49:46Z</time>
      </trkpt>
      <trkpt lat="42.91478" lon="1.84168">
        <ele>594.71264648438</ele>
        <time>2011-04-24T09:49:50Z</time>
      </trkpt>
      <trkpt lat="42.91488" lon="1.84175">
        <ele>595.193359375</ele>
        <time>2011-04-24T09:49:54Z</time>
      </trkpt>
      <trkpt lat="42.91502" lon="1.84183">
        <ele>600.96118164062</ele>
        <time>2011-04-24T09:49:58Z</time>
      </trkpt>
      <trkpt lat="42.91513" lon="1.84191">
        <ele>601.44189453125</ele>
        <time>2011-04-24T09:50:02Z</time>
      </trkpt>
      <trkpt lat="42.91523" lon="1.84202">
        <ele>599.03857421875</ele>
        <time>2011-04-24T09:50:07Z</time>
      </trkpt>
      <trkpt lat="42.91531" lon="1.84216">
        <ele>596.15478515625</ele>
        <time>2011-04-24T09:50:12Z</time>
      </trkpt>
      <trkpt lat="42.91532" lon="1.84218">
        <ele>594.71264648438</ele>
        <time>2011-04-24T09:50:13Z</time>
      </trkpt>
      <trkpt lat="42.9154" lon="1.84231">
        <ele>592.3095703125</ele>
        <time>2011-04-24T09:50:19Z</time>
      </trkpt>
      <trkpt lat="42.91552" lon="1.8424">
        <ele>590.86743164062</ele>
        <time>2011-04-24T09:50:24Z</time>
      </trkpt>
      <trkpt lat="42.91562" lon="1.84252">
        <ele>589.42553710938</ele>
        <time>2011-04-24T09:50:29Z</time>
      </trkpt>
      <trkpt lat="42.91573" lon="1.84263">
        <ele>589.90625</ele>
        <time>2011-04-24T09:50:34Z</time>
      </trkpt>
      <trkpt lat="42.91585" lon="1.84272">
        <ele>590.38696289062</ele>
        <time>2011-04-24T09:50:39Z</time>
      </trkpt>
      <trkpt lat="42.91602" lon="1.84284">
        <ele>589.90625</ele>
        <time>2011-04-24T09:50:46Z</time>
      </trkpt>
      <trkpt lat="42.91613" lon="1.84295">
        <ele>589.42553710938</ele>
        <time>2011-04-24T09:50:51Z</time>
      </trkpt>
      <trkpt lat="42.91624" lon="1.84307">
        <ele>589.42553710938</ele>
        <time>2011-04-24T09:50:56Z</time>
      </trkpt>
      <trkpt lat="42.91634" lon="1.84317">
        <ele>588.94506835938</ele>
        <time>2011-04-24T09:51:00Z</time>
      </trkpt>
      <trkpt lat="42.91646" lon="1.84328">
        <ele>588.46435546875</ele>
        <time>2011-04-24T09:51:05Z</time>
      </trkpt>
      <trkpt lat="42.91659" lon="1.84334">
        <ele>588.94506835938</ele>
        <time>2011-04-24T09:51:10Z</time>
      </trkpt>
      <trkpt lat="42.91671" lon="1.84339">
        <ele>588.94506835938</ele>
        <time>2011-04-24T09:51:15Z</time>
      </trkpt>
      <trkpt lat="42.91684" lon="1.84349">
        <ele>588.46435546875</ele>
        <time>2011-04-24T09:51:20Z</time>
      </trkpt>
      <trkpt lat="42.91698" lon="1.84361">
        <ele>587.9833984375</ele>
        <time>2011-04-24T09:51:25Z</time>
      </trkpt>
      <trkpt lat="42.91709" lon="1.84375">
        <ele>587.50268554688</ele>
        <time>2011-04-24T09:51:30Z</time>
      </trkpt>
      <trkpt lat="42.91719" lon="1.84389">
        <ele>587.50268554688</ele>
        <time>2011-04-24T09:51:35Z</time>
      </trkpt>
      <trkpt lat="42.91729" lon="1.84402">
        <ele>586.06079101562</ele>
        <time>2011-04-24T09:51:40Z</time>
      </trkpt>
      <trkpt lat="42.91743" lon="1.84414">
        <ele>585.580078125</ele>
        <time>2011-04-24T09:51:46Z</time>
      </trkpt>
      <trkpt lat="42.91753" lon="1.84421">
        <ele>584.13818359375</ele>
        <time>2011-04-24T09:51:50Z</time>
      </trkpt>
      <trkpt lat="42.91764" lon="1.84431">
        <ele>582.6962890625</ele>
        <time>2011-04-24T09:51:55Z</time>
      </trkpt>
      <trkpt lat="42.91776" lon="1.8444">
        <ele>582.6962890625</ele>
        <time>2011-04-24T09:52:00Z</time>
      </trkpt>
      <trkpt lat="42.9179" lon="1.84451">
        <ele>582.6962890625</ele>
        <time>2011-04-24T09:52:06Z</time>
      </trkpt>
      <trkpt lat="42.91799" lon="1.84458">
        <ele>583.65747070312</ele>
        <time>2011-04-24T09:52:10Z</time>
      </trkpt>
      <trkpt lat="42.91809" lon="1.84465">
        <ele>584.13818359375</ele>
        <time>2011-04-24T09:52:14Z</time>
      </trkpt>
      <trkpt lat="42.91818" lon="1.84473">
        <ele>585.580078125</ele>
        <time>2011-04-24T09:52:18Z</time>
      </trkpt>
      <trkpt lat="42.91827" lon="1.8448">
        <ele>585.580078125</ele>
        <time>2011-04-24T09:52:22Z</time>
      </trkpt>
      <trkpt lat="42.91838" lon="1.84486">
        <ele>587.02197265625</ele>
        <time>2011-04-24T09:52:26Z</time>
      </trkpt>
      <trkpt lat="42.91842" lon="1.8449">
        <ele>586.06079101562</ele>
        <time>2011-04-24T09:52:29Z</time>
      </trkpt>
      <trkpt lat="42.91854" lon="1.84491">
        <ele>585.580078125</ele>
        <time>2011-04-24T09:52:34Z</time>
      </trkpt>
      <trkpt lat="42.91857" lon="1.84491">
        <ele>584.61889648438</ele>
        <time>2011-04-24T09:52:35Z</time>
      </trkpt>
      <trkpt lat="42.91871" lon="1.84492">
        <ele>584.13818359375</ele>
        <time>2011-04-24T09:52:40Z</time>
      </trkpt>
      <trkpt lat="42.91889" lon="1.84493">
        <ele>582.6962890625</ele>
        <time>2011-04-24T09:52:45Z</time>
      </trkpt>
      <trkpt lat="42.91906" lon="1.84492">
        <ele>580.29296875</ele>
        <time>2011-04-24T09:52:50Z</time>
      </trkpt>
      <trkpt lat="42.91921" lon="1.84491">
        <ele>578.37036132812</ele>
        <time>2011-04-24T09:52:55Z</time>
      </trkpt>
      <trkpt lat="42.91936" lon="1.84491">
        <ele>576.92846679688</ele>
        <time>2011-04-24T09:52:59Z</time>
      </trkpt>
      <trkpt lat="42.91954" lon="1.84492">
        <ele>577.4091796875</ele>
        <time>2011-04-24T09:53:04Z</time>
      </trkpt>
      <trkpt lat="42.91969" lon="1.84494">
        <ele>576.44775390625</ele>
        <time>2011-04-24T09:53:09Z</time>
      </trkpt>
      <trkpt lat="42.91982" lon="1.84498">
        <ele>572.12182617188</ele>
        <time>2011-04-24T09:53:13Z</time>
      </trkpt>
      <trkpt lat="42.91991" lon="1.84499">
        <ele>571.64086914062</ele>
        <time>2011-04-24T09:53:16Z</time>
      </trkpt>
      <trkpt lat="42.91999" lon="1.84499">
        <ele>568.75708007812</ele>
        <time>2011-04-24T09:53:19Z</time>
      </trkpt>
      <trkpt lat="42.92007" lon="1.84501">
        <ele>560.5859375</ele>
        <time>2011-04-24T09:53:25Z</time>
      </trkpt>
      <trkpt lat="42.92019" lon="1.84501">
        <ele>558.66333007812</ele>
        <time>2011-04-24T09:53:30Z</time>
      </trkpt>
      <trkpt lat="42.92035" lon="1.84503">
        <ele>554.81787109375</ele>
        <time>2011-04-24T09:53:36Z</time>
      </trkpt>
      <trkpt lat="42.92049" lon="1.84507">
        <ele>554.33740234375</ele>
        <time>2011-04-24T09:53:41Z</time>
      </trkpt>
      <trkpt lat="42.92064" lon="1.84511">
        <ele>554.81787109375</ele>
        <time>2011-04-24T09:53:46Z</time>
      </trkpt>
      <trkpt lat="42.92073" lon="1.84513">
        <ele>555.29858398438</ele>
        <time>2011-04-24T09:53:50Z</time>
      </trkpt>
      <trkpt lat="42.92076" lon="1.84514">
        <ele>555.29858398438</ele>
        <time>2011-04-24T09:53:51Z</time>
      </trkpt>
      <trkpt lat="42.9209" lon="1.84522">
        <ele>553.85668945312</ele>
        <time>2011-04-24T09:53:57Z</time>
      </trkpt>
      <trkpt lat="42.92102" lon="1.84534">
        <ele>556.26000976562</ele>
        <time>2011-04-24T09:54:03Z</time>
      </trkpt>
      <trkpt lat="42.92113" lon="1.84538">
        <ele>556.26000976562</ele>
        <time>2011-04-24T09:54:07Z</time>
      </trkpt>
      <trkpt lat="42.9213" lon="1.84547">
        <ele>557.7021484375</ele>
        <time>2011-04-24T09:54:13Z</time>
      </trkpt>
      <trkpt lat="42.92141" lon="1.8455">
        <ele>560.5859375</ele>
        <time>2011-04-24T09:54:17Z</time>
      </trkpt>
      <trkpt lat="42.92157" lon="1.84556">
        <ele>563.46997070312</ele>
        <time>2011-04-24T09:54:23Z</time>
      </trkpt>
      <trkpt lat="42.92162" lon="1.84555">
        <ele>563.95043945312</ele>
        <time>2011-04-24T09:54:25Z</time>
      </trkpt>
      <trkpt lat="42.92173" lon="1.8456">
        <ele>563.95043945312</ele>
        <time>2011-04-24T09:54:29Z</time>
      </trkpt>
      <trkpt lat="42.92192" lon="1.84569">
        <ele>567.31518554688</ele>
        <time>2011-04-24T09:54:36Z</time>
      </trkpt>
      <trkpt lat="42.92205" lon="1.84574">
        <ele>567.79565429688</ele>
        <time>2011-04-24T09:54:41Z</time>
      </trkpt>
      <trkpt lat="42.92216" lon="1.84579">
        <ele>565.87329101562</ele>
        <time>2011-04-24T09:54:45Z</time>
      </trkpt>
      <trkpt lat="42.92224" lon="1.8458">
        <ele>564.91186523438</ele>
        <time>2011-04-24T09:54:49Z</time>
      </trkpt>
      <trkpt lat="42.92226" lon="1.84581">
        <ele>564.91186523438</ele>
        <time>2011-04-24T09:54:50Z</time>
      </trkpt>
      <trkpt lat="42.92237" lon="1.84581">
        <ele>560.10522460938</ele>
        <time>2011-04-24T09:54:56Z</time>
      </trkpt>
      <trkpt lat="42.92242" lon="1.84581">
        <ele>561.54736328125</ele>
        <time>2011-04-24T09:54:58Z</time>
      </trkpt>
      <trkpt lat="42.92255" lon="1.84581">
        <ele>562.02807617188</ele>
        <time>2011-04-24T09:55:03Z</time>
      </trkpt>
      <trkpt lat="42.92269" lon="1.84579">
        <ele>562.50854492188</ele>
        <time>2011-04-24T09:55:09Z</time>
      </trkpt>
      <trkpt lat="42.92277" lon="1.84577">
        <ele>561.54736328125</ele>
        <time>2011-04-24T09:55:13Z</time>
      </trkpt>
      <trkpt lat="42.92293" lon="1.8458">
        <ele>561.06665039062</ele>
        <time>2011-04-24T09:55:18Z</time>
      </trkpt>
      <trkpt lat="42.92308" lon="1.8458">
        <ele>559.14404296875</ele>
        <time>2011-04-24T09:55:23Z</time>
      </trkpt>
      <trkpt lat="42.92323" lon="1.84581">
        <ele>559.62475585938</ele>
        <time>2011-04-24T09:55:28Z</time>
      </trkpt>
      <trkpt lat="42.92342" lon="1.84585">
        <ele>561.54736328125</ele>
        <time>2011-04-24T09:55:34Z</time>
      </trkpt>
      <trkpt lat="42.92355" lon="1.84588">
        <ele>562.9892578125</ele>
        <time>2011-04-24T09:55:38Z</time>
      </trkpt>
      <trkpt lat="42.92367" lon="1.84593">
        <ele>563.46997070312</ele>
        <time>2011-04-24T09:55:42Z</time>
      </trkpt>
      <trkpt lat="42.92378" lon="1.84598">
        <ele>562.02807617188</ele>
        <time>2011-04-24T09:55:46Z</time>
      </trkpt>
      <trkpt lat="42.92392" lon="1.84604">
        <ele>562.9892578125</ele>
        <time>2011-04-24T09:55:51Z</time>
      </trkpt>
      <trkpt lat="42.92404" lon="1.84612">
        <ele>564.91186523438</ele>
        <time>2011-04-24T09:55:56Z</time>
      </trkpt>
      <trkpt lat="42.92413" lon="1.8462">
        <ele>564.91186523438</ele>
        <time>2011-04-24T09:56:00Z</time>
      </trkpt>
      <trkpt lat="42.92425" lon="1.84626">
        <ele>565.392578125</ele>
        <time>2011-04-24T09:56:05Z</time>
      </trkpt>
      <trkpt lat="42.92433" lon="1.8463">
        <ele>564.91186523438</ele>
        <time>2011-04-24T09:56:09Z</time>
      </trkpt>
      <trkpt lat="42.92445" lon="1.84634">
        <ele>568.2763671875</ele>
        <time>2011-04-24T09:56:13Z</time>
      </trkpt>
      <trkpt lat="42.9246" lon="1.84638">
        <ele>570.6796875</ele>
        <time>2011-04-24T09:56:19Z</time>
      </trkpt>
      <trkpt lat="42.92467" lon="1.84641">
        <ele>568.75708007812</ele>
        <time>2011-04-24T09:56:23Z</time>
      </trkpt>
      <trkpt lat="42.92477" lon="1.84648">
        <ele>565.392578125</ele>
        <time>2011-04-24T09:56:28Z</time>
      </trkpt>
      <trkpt lat="42.92488" lon="1.8465">
        <ele>566.35375976562</ele>
        <time>2011-04-24T09:56:32Z</time>
      </trkpt>
      <trkpt lat="42.92501" lon="1.84652">
        <ele>567.31518554688</ele>
        <time>2011-04-24T09:56:37Z</time>
      </trkpt>
      <trkpt lat="42.92507" lon="1.84653">
        <ele>563.95043945312</ele>
        <time>2011-04-24T09:56:41Z</time>
      </trkpt>
      <trkpt lat="42.92519" lon="1.84655">
        <ele>565.87329101562</ele>
        <time>2011-04-24T09:56:45Z</time>
      </trkpt>
      <trkpt lat="42.9253" lon="1.84658">
        <ele>565.87329101562</ele>
        <time>2011-04-24T09:56:50Z</time>
      </trkpt>
      <trkpt lat="42.92542" lon="1.84659">
        <ele>565.87329101562</ele>
        <time>2011-04-24T09:56:54Z</time>
      </trkpt>
      <trkpt lat="42.92552" lon="1.8466">
        <ele>567.79565429688</ele>
        <time>2011-04-24T09:56:57Z</time>
      </trkpt>
      <trkpt lat="42.92568" lon="1.84661">
        <ele>570.19897460938</ele>
        <time>2011-04-24T09:57:02Z</time>
      </trkpt>
      <trkpt lat="42.92581" lon="1.84664">
        <ele>567.31518554688</ele>
        <time>2011-04-24T09:57:07Z</time>
      </trkpt>
      <trkpt lat="42.92586" lon="1.84664">
        <ele>566.83447265625</ele>
        <time>2011-04-24T09:57:09Z</time>
      </trkpt>
      <trkpt lat="42.92593" lon="1.84667">
        <ele>567.31518554688</ele>
        <time>2011-04-24T09:57:12Z</time>
      </trkpt>
      <trkpt lat="42.92607" lon="1.84669">
        <ele>567.31518554688</ele>
        <time>2011-04-24T09:57:17Z</time>
      </trkpt>
      <trkpt lat="42.92622" lon="1.84668">
        <ele>564.91186523438</ele>
        <time>2011-04-24T09:57:23Z</time>
      </trkpt>
      <trkpt lat="42.92634" lon="1.84666">
        <ele>557.22143554688</ele>
        <time>2011-04-24T09:57:29Z</time>
      </trkpt>
      <trkpt lat="42.92645" lon="1.84664">
        <ele>554.33740234375</ele>
        <time>2011-04-24T09:57:33Z</time>
      </trkpt>
      <trkpt lat="42.92663" lon="1.84659">
        <ele>548.5693359375</ele>
        <time>2011-04-24T09:57:40Z</time>
      </trkpt>
      <trkpt lat="42.92666" lon="1.84658">
        <ele>548.0888671875</ele>
        <time>2011-04-24T09:57:41Z</time>
      </trkpt>
      <trkpt lat="42.92677" lon="1.84649">
        <ele>545.685546875</ele>
        <time>2011-04-24T09:57:46Z</time>
      </trkpt>
      <trkpt lat="42.92691" lon="1.84641">
        <ele>544.72424316406</ele>
        <time>2011-04-24T09:57:51Z</time>
      </trkpt>
      <trkpt lat="42.92702" lon="1.84632">
        <ele>544.72424316406</ele>
        <time>2011-04-24T09:57:55Z</time>
      </trkpt>
      <trkpt lat="42.92715" lon="1.84625">
        <ele>543.28210449219</ele>
        <time>2011-04-24T09:57:59Z</time>
      </trkpt>
      <trkpt lat="42.92729" lon="1.84624">
        <ele>542.32092285156</ele>
        <time>2011-04-24T09:58:04Z</time>
      </trkpt>
      <trkpt lat="42.9274" lon="1.84624">
        <ele>540.87890625</ele>
        <time>2011-04-24T09:58:09Z</time>
      </trkpt>
      <trkpt lat="42.92756" lon="1.84631">
        <ele>538.47570800781</ele>
        <time>2011-04-24T09:58:15Z</time>
      </trkpt>
      <trkpt lat="42.9277" lon="1.84639">
        <ele>538.47570800781</ele>
        <time>2011-04-24T09:58:20Z</time>
      </trkpt>
      <trkpt lat="42.92786" lon="1.84645">
        <ele>538.47570800781</ele>
        <time>2011-04-24T09:58:25Z</time>
      </trkpt>
      <trkpt lat="42.92796" lon="1.84651">
        <ele>537.51428222656</ele>
        <time>2011-04-24T09:58:29Z</time>
      </trkpt>
      <trkpt lat="42.92807" lon="1.84659">
        <ele>536.55310058594</ele>
        <time>2011-04-24T09:58:33Z</time>
      </trkpt>
      <trkpt lat="42.9281" lon="1.84661">
        <ele>536.07238769531</ele>
        <time>2011-04-24T09:58:34Z</time>
      </trkpt>
      <trkpt lat="42.92823" lon="1.8467">
        <ele>535.59155273438</ele>
        <time>2011-04-24T09:58:39Z</time>
      </trkpt>
      <trkpt lat="42.92837" lon="1.84681">
        <ele>535.59155273438</ele>
        <time>2011-04-24T09:58:45Z</time>
      </trkpt>
      <trkpt lat="42.92844" lon="1.84687">
        <ele>537.03369140625</ele>
        <time>2011-04-24T09:58:48Z</time>
      </trkpt>
      <trkpt lat="42.92853" lon="1.84695">
        <ele>537.51428222656</ele>
        <time>2011-04-24T09:58:52Z</time>
      </trkpt>
      <trkpt lat="42.9287" lon="1.84704">
        <ele>535.59155273438</ele>
        <time>2011-04-24T09:58:58Z</time>
      </trkpt>
      <trkpt lat="42.92879" lon="1.84709">
        <ele>535.59155273438</ele>
        <time>2011-04-24T09:59:02Z</time>
      </trkpt>
      <trkpt lat="42.92892" lon="1.84718">
        <ele>537.51428222656</ele>
        <time>2011-04-24T09:59:07Z</time>
      </trkpt>
      <trkpt lat="42.92908" lon="1.84728">
        <ele>536.07238769531</ele>
        <time>2011-04-24T09:59:13Z</time>
      </trkpt>
      <trkpt lat="42.92922" lon="1.84738">
        <ele>537.03369140625</ele>
        <time>2011-04-24T09:59:19Z</time>
      </trkpt>
      <trkpt lat="42.92933" lon="1.84744">
        <ele>537.51428222656</ele>
        <time>2011-04-24T09:59:23Z</time>
      </trkpt>
      <trkpt lat="42.92942" lon="1.84752">
        <ele>537.99499511719</ele>
        <time>2011-04-24T09:59:27Z</time>
      </trkpt>
      <trkpt lat="42.92954" lon="1.84761">
        <ele>540.39831542969</ele>
        <time>2011-04-24T09:59:32Z</time>
      </trkpt>
      <trkpt lat="42.92967" lon="1.84768">
        <ele>541.35949707031</ele>
        <time>2011-04-24T09:59:37Z</time>
      </trkpt>
      <trkpt lat="42.92978" lon="1.84776">
        <ele>538.47570800781</ele>
        <time>2011-04-24T09:59:41Z</time>
      </trkpt>
      <trkpt lat="42.92992" lon="1.84781">
        <ele>539.91760253906</ele>
        <time>2011-04-24T09:59:46Z</time>
      </trkpt>
      <trkpt lat="42.92999" lon="1.84786">
        <ele>539.43688964844</ele>
        <time>2011-04-24T09:59:49Z</time>
      </trkpt>
      <trkpt lat="42.9301" lon="1.84799">
        <ele>538.47570800781</ele>
        <time>2011-04-24T09:59:55Z</time>
      </trkpt>
      <trkpt lat="42.93019" lon="1.84809">
        <ele>536.07238769531</ele>
        <time>2011-04-24T09:59:59Z</time>
      </trkpt>
      <trkpt lat="42.93029" lon="1.84818">
        <ele>533.6689453125</ele>
        <time>2011-04-24T10:00:04Z</time>
      </trkpt>
      <trkpt lat="42.93041" lon="1.84824">
        <ele>532.70776367188</ele>
        <time>2011-04-24T10:00:09Z</time>
      </trkpt>
      <trkpt lat="42.9305" lon="1.84827">
        <ele>532.70776367188</ele>
        <time>2011-04-24T10:00:13Z</time>
      </trkpt>
      <trkpt lat="42.93066" lon="1.84829">
        <ele>531.74633789062</ele>
        <time>2011-04-24T10:00:19Z</time>
      </trkpt>
      <trkpt lat="42.9308" lon="1.84829">
        <ele>530.78515625</ele>
        <time>2011-04-24T10:00:24Z</time>
      </trkpt>
      <trkpt lat="42.93091" lon="1.84828">
        <ele>531.74633789062</ele>
        <time>2011-04-24T10:00:28Z</time>
      </trkpt>
      <trkpt lat="42.93102" lon="1.84827">
        <ele>531.74633789062</ele>
        <time>2011-04-24T10:00:32Z</time>
      </trkpt>
      <trkpt lat="42.93115" lon="1.84828">
        <ele>531.26574707031</ele>
        <time>2011-04-24T10:00:37Z</time>
      </trkpt>
      <trkpt lat="42.93129" lon="1.84831">
        <ele>531.26574707031</ele>
        <time>2011-04-24T10:00:42Z</time>
      </trkpt>
      <trkpt lat="42.93144" lon="1.84835">
        <ele>530.78515625</ele>
        <time>2011-04-24T10:00:47Z</time>
      </trkpt>
      <trkpt lat="42.93159" lon="1.84834">
        <ele>530.30444335938</ele>
        <time>2011-04-24T10:00:52Z</time>
      </trkpt>
      <trkpt lat="42.93165" lon="1.84831">
        <ele>528.86254882812</ele>
        <time>2011-04-24T10:00:54Z</time>
      </trkpt>
      <trkpt lat="42.93173" lon="1.84815">
        <ele>524.53649902344</ele>
        <time>2011-04-24T10:00:59Z</time>
      </trkpt>
      <trkpt lat="42.93188" lon="1.84828">
        <ele>522.13317871094</ele>
        <time>2011-04-24T10:01:05Z</time>
      </trkpt>
      <trkpt lat="42.93199" lon="1.84835">
        <ele>523.09460449219</ele>
        <time>2011-04-24T10:01:10Z</time>
      </trkpt>
      <trkpt lat="42.9321" lon="1.84839">
        <ele>525.01721191406</ele>
        <time>2011-04-24T10:01:14Z</time>
      </trkpt>
      <trkpt lat="42.93219" lon="1.84841">
        <ele>526.45910644531</ele>
        <time>2011-04-24T10:01:17Z</time>
      </trkpt>
      <trkpt lat="42.93233" lon="1.84844">
        <ele>527.42041015625</ele>
        <time>2011-04-24T10:01:22Z</time>
      </trkpt>
      <trkpt lat="42.93242" lon="1.84849">
        <ele>528.86254882812</ele>
        <time>2011-04-24T10:01:26Z</time>
      </trkpt>
      <trkpt lat="42.93244" lon="1.84849">
        <ele>529.82373046875</ele>
        <time>2011-04-24T10:01:27Z</time>
      </trkpt>
      <trkpt lat="42.93255" lon="1.84836">
        <ele>526.45910644531</ele>
        <time>2011-04-24T10:01:32Z</time>
      </trkpt>
      <trkpt lat="42.93259" lon="1.84835">
        <ele>525.97839355469</ele>
        <time>2011-04-24T10:01:33Z</time>
      </trkpt>
      <trkpt lat="42.93276" lon="1.84841">
        <ele>529.34313964844</ele>
        <time>2011-04-24T10:01:38Z</time>
      </trkpt>
      <trkpt lat="42.93288" lon="1.84851">
        <ele>529.82373046875</ele>
        <time>2011-04-24T10:01:42Z</time>
      </trkpt>
      <trkpt lat="42.93299" lon="1.8486">
        <ele>528.86254882812</ele>
        <time>2011-04-24T10:01:46Z</time>
      </trkpt>
      <trkpt lat="42.93311" lon="1.84867">
        <ele>525.97839355469</ele>
        <time>2011-04-24T10:01:50Z</time>
      </trkpt>
      <trkpt lat="42.93322" lon="1.84872">
        <ele>524.53649902344</ele>
        <time>2011-04-24T10:01:54Z</time>
      </trkpt>
      <trkpt lat="42.93333" lon="1.84876">
        <ele>524.53649902344</ele>
        <time>2011-04-24T10:01:58Z</time>
      </trkpt>
      <trkpt lat="42.93344" lon="1.8488">
        <ele>524.53649902344</ele>
        <time>2011-04-24T10:02:02Z</time>
      </trkpt>
      <trkpt lat="42.93359" lon="1.84888">
        <ele>524.53649902344</ele>
        <time>2011-04-24T10:02:07Z</time>
      </trkpt>
      <trkpt lat="42.93372" lon="1.84898">
        <ele>524.05578613281</ele>
        <time>2011-04-24T10:02:12Z</time>
      </trkpt>
      <trkpt lat="42.93382" lon="1.84906">
        <ele>523.09460449219</ele>
        <time>2011-04-24T10:02:16Z</time>
      </trkpt>
      <trkpt lat="42.93401" lon="1.84917">
        <ele>525.01721191406</ele>
        <time>2011-04-24T10:02:22Z</time>
      </trkpt>
      <trkpt lat="42.93415" lon="1.84927">
        <ele>525.01721191406</ele>
        <time>2011-04-24T10:02:27Z</time>
      </trkpt>
      <trkpt lat="42.93426" lon="1.84935">
        <ele>524.05578613281</ele>
        <time>2011-04-24T10:02:31Z</time>
      </trkpt>
      <trkpt lat="42.93438" lon="1.84943">
        <ele>524.05578613281</ele>
        <time>2011-04-24T10:02:35Z</time>
      </trkpt>
      <trkpt lat="42.93447" lon="1.84952">
        <ele>523.09460449219</ele>
        <time>2011-04-24T10:02:39Z</time>
      </trkpt>
    </trkseg>
  </trk>
</gpx>